Wetterdaten: Montag, 23.01.2017
Datum Zeit Temp. A. Feuchte A. Luftdruck Regen Wind Richtung Richtung Sonnenschein ET UV Solar Taupunkt Windchill Windben Empfang
23.01.2017 00:00 -10,6 C 92 % 1025,4 hPa 0,0 l/m 4,1 km/h (1 Bft) S-SW 200 0 min 0,000 mm 0,0 UV-I 0 W/m -11,6 C -10,6 C 4,8 km/h (1 Bft) 97,56 %
23.01.2017 00:02 -10,6 C 93 % 1025,4 hPa 0,0 l/m 4,9 km/h (1 Bft) S-SW 200 0 min 0,000 mm 0,0 UV-I 0 W/m -11,5 C -10,6 C 6,4 km/h (2 Bft) 97,30 %
23.01.2017 00:04 -10,4 C 93 % 1025,4 hPa 0,0 l/m 4,9 km/h (1 Bft) S-SW 200 0 min 0,000 mm 0,0 UV-I 0 W/m -11,3 C -10,4 C 6,4 km/h (2 Bft) 100,00 %
23.01.2017 00:06 -10,2 C 94 % 1025,5 hPa 0,0 l/m 5,1 km/h (1 Bft) S-SW 200 0 min 0,000 mm 0,0 UV-I 0 W/m -11,0 C -10,2 C 6,4 km/h (2 Bft) 100,00 %
23.01.2017 00:08 -10,1 C 94 % 1025,6 hPa 0,0 l/m 5,1 km/h (1 Bft) S-SW 200 0 min 0,000 mm 0,0 UV-I 0 W/m -10,9 C -10,1 C 6,4 km/h (2 Bft) 100,00 %
23.01.2017 00:10 -10,0 C 94 % 1025,5 hPa 0,0 l/m 4,3 km/h (1 Bft) S-SW 200 0 min 0,000 mm 0,0 UV-I 0 W/m -10,8 C -10,0 C 6,4 km/h (2 Bft) 100,00 %
23.01.2017 00:12 -9,9 C 93 % 1025,5 hPa 0,0 l/m 4,8 km/h (1 Bft) S-SW 200 0 min 0,000 mm 0,0 UV-I 0 W/m -10,8 C -9,9 C 6,4 km/h (2 Bft) 98,11 %
23.01.2017 00:14 -9,8 C 94 % 1025,4 hPa 0,0 l/m 4,4 km/h (1 Bft) S-SW 200 0 min 0,000 mm 0,0 UV-I 0 W/m -10,6 C -9,8 C 6,4 km/h (2 Bft) 97,87 %
23.01.2017 00:16 -9,7 C 94 % 1025,5 hPa 0,0 l/m 4,8 km/h (1 Bft) S-SW 200 0 min 0,000 mm 0,0 UV-I 0 W/m -10,5 C -9,7 C 6,4 km/h (2 Bft) 100,00 %
23.01.2017 00:18 -9,7 C 94 % 1025,5 hPa 0,0 l/m 4,6 km/h (1 Bft) S-SW 200 0 min 0,000 mm 0,0 UV-I 0 W/m -10,5 C -9,7 C 6,4 km/h (2 Bft) 100,00 %
23.01.2017 00:20 -9,6 C 94 % 1025,5 hPa 0,0 l/m 6,1 km/h (2 Bft) S-SW 200 0 min 0,000 mm 0,0 UV-I 0 W/m -10,4 C -9,6 C 8,0 km/h (2 Bft) 100,00 %
23.01.2017 00:22 -9,5 C 94 % 1025,4 hPa 0,0 l/m 5,4 km/h (1 Bft) S-SW 200 0 min 0,000 mm 0,0 UV-I 0 W/m -10,3 C -9,5 C 6,4 km/h (2 Bft) 98,00 %
23.01.2017 00:24 -9,5 C 94 % 1025,4 hPa 0,0 l/m 3,4 km/h (1 Bft) S-SW 200 0 min 0,000 mm 0,0 UV-I 0 W/m -10,3 C -9,5 C 6,4 km/h (2 Bft) 97,56 %
23.01.2017 00:26 -9,5 C 94 % 1025,5 hPa 0,0 l/m 1,8 km/h (1 Bft) S-SW 196 0 min 0,000 mm 0,0 UV-I 0 W/m -10,3 C -9,5 C 4,8 km/h (1 Bft) 100,00 %
23.01.2017 00:28 -9,5 C 94 % 1025,4 hPa 0,0 l/m 3,6 km/h (1 Bft) S-SW 196 0 min 0,000 mm 0,0 UV-I 0 W/m -10,3 C -9,5 C 6,4 km/h (2 Bft) 100,00 %
23.01.2017 00:30 -9,4 C 94 % 1025,4 hPa 0,0 l/m 3,8 km/h (1 Bft) S-SW 197 0 min 0,000 mm 0,0 UV-I 0 W/m -10,2 C -9,4 C 6,4 km/h (2 Bft) 97,87 %
23.01.2017 00:32 -9,4 C 94 % 1025,4 hPa 0,0 l/m 3,0 km/h (1 Bft) S-SW 197 0 min 0,000 mm 0,0 UV-I 0 W/m -10,2 C -9,4 C 4,8 km/h (1 Bft) 100,00 %
23.01.2017 00:34 -9,5 C 93 % 1025,4 hPa 0,0 l/m 4,3 km/h (1 Bft) SW 219 0 min 0,000 mm 0,0 UV-I 0 W/m -10,4 C -9,5 C 6,4 km/h (2 Bft) 97,56 %
23.01.2017 00:36 -9,6 C 93 % 1025,4 hPa 0,0 l/m 4,7 km/h (1 Bft) SW 220 0 min 0,000 mm 0,0 UV-I 0 W/m -10,5 C -9,6 C 6,4 km/h (2 Bft) 98,00 %
23.01.2017 00:38 -9,6 C 93 % 1025,3 hPa 0,0 l/m 3,8 km/h (1 Bft) SW 220 0 min 0,000 mm 0,0 UV-I 0 W/m -10,5 C -9,6 C 4,8 km/h (1 Bft) 100,00 %
23.01.2017 00:40 -9,7 C 93 % 1025,3 hPa 0,0 l/m 2,9 km/h (1 Bft) SW 220 0 min 0,000 mm 0,0 UV-I 0 W/m -10,6 C -9,7 C 4,8 km/h (1 Bft) 100,00 %
23.01.2017 00:42 -9,7 C 93 % 1025,4 hPa 0,0 l/m 4,4 km/h (1 Bft) S-SW 209 0 min 0,000 mm 0,0 UV-I 0 W/m -10,6 C -9,7 C 8,0 km/h (2 Bft) 97,73 %
23.01.2017 00:44 -9,8 C 93 % 1025,3 hPa 0,0 l/m 3,9 km/h (1 Bft) S-SW 209 0 min 0,000 mm 0,0 UV-I 0 W/m -10,7 C -9,8 C 6,4 km/h (2 Bft) 95,74 %
23.01.2017 00:46 -9,8 C 93 % 1025,3 hPa 0,0 l/m 1,9 km/h (1 Bft) S-SW 209 0 min 0,000 mm 0,0 UV-I 0 W/m -10,7 C -9,8 C 3,2 km/h (1 Bft) 98,00 %
23.01.2017 00:48 -9,9 C 93 % 1025,3 hPa 0,0 l/m 2,5 km/h (1 Bft) S-SW 209 0 min 0,000 mm 0,0 UV-I 0 W/m -10,8 C -9,9 C 6,4 km/h (2 Bft) 98,00 %
23.01.2017 00:50 -10,1 C 93 % 1025,3 hPa 0,0 l/m 3,6 km/h (1 Bft) S-SW 209 0 min 0,000 mm 0,0 UV-I 0 W/m -11,0 C -10,1 C 4,8 km/h (1 Bft) 96,00 %
23.01.2017 00:52 -10,1 C 93 % 1025,3 hPa 0,0 l/m 3,5 km/h (1 Bft) S-SW 209 0 min 0,000 mm 0,0 UV-I 0 W/m -11,0 C -10,1 C 6,4 km/h (2 Bft) 97,87 %
23.01.2017 00:54 -10,2 C 93 % 1025,3 hPa 0,0 l/m 4,3 km/h (1 Bft) S-SW 209 0 min 0,000 mm 0,0 UV-I 0 W/m -11,1 C -10,2 C 6,4 km/h (2 Bft) 97,56 %
23.01.2017 00:56 -10,2 C 93 % 1025,3 hPa 0,0 l/m 3,1 km/h (1 Bft) S-SW 209 0 min 0,000 mm 0,0 UV-I 0 W/m -11,1 C -10,2 C 4,8 km/h (1 Bft) 98,11 %
23.01.2017 00:58 -10,2 C 93 % 1025,3 hPa 0,0 l/m 2,6 km/h (1 Bft) S-SW 205 0 min 0,000 mm 0,0 UV-I 0 W/m -11,1 C -10,2 C 4,8 km/h (1 Bft) 97,22 %
23.01.2017 01:00 -10,3 C 93 % 1025,3 hPa 0,0 l/m 2,7 km/h (1 Bft) S-SW 205 0 min 0,000 mm 0,0 UV-I 0 W/m -11,2 C -10,3 C 4,8 km/h (1 Bft) 98,00 %
23.01.2017 01:02 -10,3 C 93 % 1025,3 hPa 0,0 l/m 4,7 km/h (1 Bft) S-SW 205 0 min 0,000 mm 0,0 UV-I 0 W/m -11,2 C -10,3 C 6,4 km/h (2 Bft) 97,87 %
23.01.2017 01:04 -10,2 C 93 % 1025,2 hPa 0,0 l/m 5,3 km/h (1 Bft) S-SW 205 0 min 0,000 mm 0,0 UV-I 0 W/m -11,1 C -10,2 C 6,4 km/h (2 Bft) 96,00 %
23.01.2017 01:06 -10,2 C 93 % 1025,2 hPa 0,0 l/m 5,5 km/h (1 Bft) S-SW 205 0 min 0,000 mm 0,0 UV-I 0 W/m -11,1 C -10,2 C 8,0 km/h (2 Bft) 96,00 %
23.01.2017 01:08 -10,1 C 93 % 1025,3 hPa 0,0 l/m 4,4 km/h (1 Bft) S-SW 205 0 min 0,000 mm 0,0 UV-I 0 W/m -11,0 C -10,1 C 6,4 km/h (2 Bft) 100,00 %
23.01.2017 01:10 -10,2 C 93 % 1025,3 hPa 0,0 l/m 3,2 km/h (1 Bft) S-SW 205 0 min 0,000 mm 0,0 UV-I 0 W/m -11,1 C -10,2 C 6,4 km/h (2 Bft) 96,23 %
23.01.2017 01:12 -10,4 C 92 % 1025,3 hPa 0,0 l/m 3,2 km/h (1 Bft) S-SW 205 0 min 0,000 mm 0,0 UV-I 0 W/m -11,4 C -10,4 C 4,8 km/h (1 Bft) 97,56 %
23.01.2017 01:14 -10,6 C 92 % 1025,3 hPa 0,0 l/m 3,4 km/h (1 Bft) S-SW 205 0 min 0,000 mm 0,0 UV-I 0 W/m -11,6 C -10,6 C 4,8 km/h (1 Bft) 98,00 %
23.01.2017 01:16 -10,6 C 93 % 1025,3 hPa 0,0 l/m 2,6 km/h (1 Bft) S-SW 205 0 min 0,000 mm 0,0 UV-I 0 W/m -11,5 C -10,6 C 4,8 km/h (1 Bft) 95,74 %
23.01.2017 01:18 -10,6 C 93 % 1025,3 hPa 0,0 l/m 2,6 km/h (1 Bft) S-SW 205 0 min 0,000 mm 0,0 UV-I 0 W/m -11,5 C -10,6 C 4,8 km/h (1 Bft) 98,00 %
23.01.2017 01:20 -10,6 C 93 % 1025,3 hPa 0,0 l/m 2,9 km/h (1 Bft) S-SW 205 0 min 0,000 mm 0,0 UV-I 0 W/m -11,5 C -10,6 C 6,4 km/h (2 Bft) 96,00 %
23.01.2017 01:22 -10,6 C 93 % 1025,3 hPa 0,0 l/m 2,6 km/h (1 Bft) S-SW 203 0 min 0,000 mm 0,0 UV-I 0 W/m -11,5 C -10,6 C 4,8 km/h (1 Bft) 95,83 %
23.01.2017 01:24 -10,5 C 93 % 1025,3 hPa 0,0 l/m 3,4 km/h (1 Bft) S-SW 203 0 min 0,000 mm 0,0 UV-I 0 W/m -11,4 C -10,5 C 4,8 km/h (1 Bft) 96,88 %
23.01.2017 01:26 -10,6 C 92 % 1025,3 hPa 0,0 l/m 3,0 km/h (1 Bft) S-SW 202 0 min 0,000 mm 0,0 UV-I 0 W/m -11,6 C -10,6 C 4,8 km/h (1 Bft) 98,00 %
23.01.2017 01:28 -10,6 C 92 % 1025,3 hPa 0,0 l/m 1,8 km/h (1 Bft) S-SW 201 0 min 0,000 mm 0,0 UV-I 0 W/m -11,6 C -10,6 C 3,2 km/h (1 Bft) 100,00 %
23.01.2017 01:30 -10,7 C 92 % 1025,3 hPa 0,0 l/m 2,0 km/h (1 Bft) S-SW 200 0 min 0,000 mm 0,0 UV-I 0 W/m -11,7 C -10,7 C 3,2 km/h (1 Bft) 97,87 %
23.01.2017 01:32 -10,7 C 93 % 1025,3 hPa 0,0 l/m 1,3 km/h (1 Bft) S-SW 198 0 min 0,000 mm 0,0 UV-I 0 W/m -11,6 C -10,7 C 3,2 km/h (1 Bft) 95,83 %
23.01.2017 01:34 -10,7 C 93 % 1025,3 hPa 0,0 l/m 2,0 km/h (1 Bft) S-SW 192 0 min 0,000 mm 0,0 UV-I 0 W/m -11,6 C -10,7 C 4,8 km/h (1 Bft) 100,00 %
23.01.2017 01:36 -10,5 C 93 % 1025,3 hPa 0,0 l/m 4,3 km/h (1 Bft) S-SW 192 0 min 0,000 mm 0,0 UV-I 0 W/m -11,4 C -10,5 C 6,4 km/h (2 Bft) 100,00 %
23.01.2017 01:38 -10,4 C 93 % 1025,3 hPa 0,0 l/m 4,0 km/h (1 Bft) S-SW 192 0 min 0,000 mm 0,0 UV-I 0 W/m -11,3 C -10,4 C 4,8 km/h (1 Bft) 100,00 %
23.01.2017 01:40 -10,5 C 93 % 1025,4 hPa 0,0 l/m 4,1 km/h (1 Bft) S-SW 192 0 min 0,000 mm 0,0 UV-I 0 W/m -11,4 C -10,5 C 4,8 km/h (1 Bft) 100,00 %
23.01.2017 01:42 -10,6 C 92 % 1025,4 hPa 0,0 l/m 3,7 km/h (1 Bft) S-SW 192 0 min 0,000 mm 0,0 UV-I 0 W/m -11,6 C -10,6 C 4,8 km/h (1 Bft) 100,00 %
23.01.2017 01:44 -10,7 C 92 % 1025,4 hPa 0,0 l/m 3,3 km/h (1 Bft) S-SW 192 0 min 0,000 mm 0,0 UV-I 0 W/m -11,7 C -10,7 C 4,8 km/h (1 Bft) 100,00 %
23.01.2017 01:46 -10,8 C 92 % 1025,4 hPa 0,0 l/m 3,2 km/h (1 Bft) S-SW 200 0 min 0,000 mm 0,0 UV-I 0 W/m -11,8 C -10,8 C 4,8 km/h (1 Bft) 100,00 %
23.01.2017 01:48 -10,9 C 92 % 1025,4 hPa 0,0 l/m 3,1 km/h (1 Bft) S-SW 205 0 min 0,000 mm 0,0 UV-I 0 W/m -11,9 C -10,9 C 6,4 km/h (2 Bft) 98,00 %
23.01.2017 01:50 -11,0 C 92 % 1025,5 hPa 0,0 l/m 4,6 km/h (1 Bft) S-SW 205 0 min 0,000 mm 0,0 UV-I 0 W/m -12,0 C -11,0 C 6,4 km/h (2 Bft) 100,00 %
23.01.2017 01:52 -11,1 C 92 % 1025,4 hPa 0,0 l/m 4,2 km/h (1 Bft) S-SW 205 0 min 0,000 mm 0,0 UV-I 0 W/m -12,1 C -11,1 C 4,8 km/h (1 Bft) 95,74 %
23.01.2017 01:54 -11,2 C 92 % 1025,4 hPa 0,0 l/m 2,4 km/h (1 Bft) S-SW 205 0 min 0,000 mm 0,0 UV-I 0 W/m -12,2 C -11,2 C 4,8 km/h (1 Bft) 97,87 %
23.01.2017 01:56 -11,3 C 92 % 1025,4 hPa 0,0 l/m 3,6 km/h (1 Bft) S-SW 205 0 min 0,000 mm 0,0 UV-I 0 W/m -12,3 C -11,3 C 4,8 km/h (1 Bft) 100,00 %
23.01.2017 01:58 -11,2 C 92 % 1025,4 hPa 0,0 l/m 4,4 km/h (1 Bft) S-SW 205 0 min 0,000 mm 0,0 UV-I 0 W/m -12,2 C -11,2 C 6,4 km/h (2 Bft) 100,00 %
23.01.2017 02:00 -11,2 C 92 % 1025,4 hPa 0,0 l/m 2,9 km/h (1 Bft) S-SW 205 0 min 0,000 mm 0,0 UV-I 0 W/m -12,2 C -11,2 C 4,8 km/h (1 Bft) 100,00 %
23.01.2017 02:02 -11,2 C 92 % 1025,4 hPa 0,0 l/m 1,2 km/h (1 Bft) S-SW 205 0 min 0,000 mm 0,0 UV-I 0 W/m -12,2 C -11,2 C 4,8 km/h (1 Bft) 100,00 %
23.01.2017 02:04 -11,2 C 92 % 1025,4 hPa 0,0 l/m 3,7 km/h (1 Bft) S-SW 205 0 min 0,000 mm 0,0 UV-I 0 W/m -12,2 C -11,2 C 4,8 km/h (1 Bft) 100,00 %
23.01.2017 02:06 -11,1 C 93 % 1025,4 hPa 0,0 l/m 4,7 km/h (1 Bft) S-SW 205 0 min 0,000 mm 0,0 UV-I 0 W/m -12,0 C -11,1 C 6,4 km/h (2 Bft) 100,00 %
23.01.2017 02:08 -11,1 C 93 % 1025,4 hPa 0,0 l/m 3,9 km/h (1 Bft) S-SW 205 0 min 0,000 mm 0,0 UV-I 0 W/m -12,0 C -11,1 C 4,8 km/h (1 Bft) 100,00 %
23.01.2017 02:10 -11,1 C 92 % 1025,4 hPa 0,0 l/m 2,7 km/h (1 Bft) S-SW 205 0 min 0,000 mm 0,0 UV-I 0 W/m -12,1 C -11,1 C 3,2 km/h (1 Bft) 89,47 %
23.01.2017 02:12 -11,2 C 92 % 1025,4 hPa 0,0 l/m 3,5 km/h (1 Bft) S-SW 205 0 min 0,000 mm 0,0 UV-I 0 W/m -12,2 C -11,2 C 4,8 km/h (1 Bft) 100,00 %
23.01.2017 02:14 -11,3 C 92 % 1025,5 hPa 0,0 l/m 4,3 km/h (1 Bft) S-SW 205 0 min 0,000 mm 0,0 UV-I 0 W/m -12,3 C -11,3 C 6,4 km/h (2 Bft) 100,00 %
23.01.2017 02:16 -11,3 C 92 % 1025,4 hPa 0,0 l/m 4,0 km/h (1 Bft) S-SW 205 0 min 0,000 mm 0,0 UV-I 0 W/m -12,3 C -11,3 C 6,4 km/h (2 Bft) 100,00 %
23.01.2017 02:18 -11,2 C 92 % 1025,5 hPa 0,0 l/m 5,2 km/h (1 Bft) S-SW 205 0 min 0,000 mm 0,0 UV-I 0 W/m -12,2 C -11,2 C 6,4 km/h (2 Bft) 97,87 %
23.01.2017 02:20 -11,2 C 93 % 1025,5 hPa 0,0 l/m 4,7 km/h (1 Bft) S-SW 205 0 min 0,000 mm 0,0 UV-I 0 W/m -12,1 C -11,2 C 6,4 km/h (2 Bft) 100,00 %
23.01.2017 02:22 -11,2 C 92 % 1025,5 hPa 0,0 l/m 3,6 km/h (1 Bft) S-SW 205 0 min 0,000 mm 0,0 UV-I 0 W/m -12,2 C -11,2 C 4,8 km/h (1 Bft) 100,00 %
23.01.2017 02:24 -11,2 C 92 % 1025,4 hPa 0,0 l/m 4,8 km/h (1 Bft) S-SW 205 0 min 0,000 mm 0,0 UV-I 0 W/m -12,2 C -11,2 C 6,4 km/h (2 Bft) 95,74 %
23.01.2017 02:26 -11,2 C 92 % 1025,4 hPa 0,0 l/m 2,6 km/h (1 Bft) S-SW 205 0 min 0,000 mm 0,0 UV-I 0 W/m -12,2 C -11,2 C 4,8 km/h (1 Bft) 94,74 %
23.01.2017 02:28 -11,2 C 92 % 1025,4 hPa 0,0 l/m 3,1 km/h (1 Bft) S-SW 205 0 min 0,000 mm 0,0 UV-I 0 W/m -12,2 C -11,2 C 4,8 km/h (1 Bft) 100,00 %
23.01.2017 02:30 -11,1 C 93 % 1025,4 hPa 0,0 l/m 3,8 km/h (1 Bft) S-SW 205 0 min 0,000 mm 0,0 UV-I 0 W/m -12,0 C -11,1 C 4,8 km/h (1 Bft) 97,87 %
23.01.2017 02:32 -11,1 C 93 % 1025,5 hPa 0,0 l/m 3,3 km/h (1 Bft) S-SW 205 0 min 0,000 mm 0,0 UV-I 0 W/m -12,0 C -11,1 C 4,8 km/h (1 Bft) 98,11 %
23.01.2017 02:34 -11,1 C 93 % 1025,5 hPa 0,0 l/m 3,0 km/h (1 Bft) S-SW 205 0 min 0,000 mm 0,0 UV-I 0 W/m -12,0 C -11,1 C 4,8 km/h (1 Bft) 100,00 %
23.01.2017 02:36 -11,0 C 93 % 1025,5 hPa 0,0 l/m 1,6 km/h (1 Bft) S-SW 205 0 min 0,000 mm 0,0 UV-I 0 W/m -11,9 C -11,0 C 3,2 km/h (1 Bft) 98,11 %
23.01.2017 02:38 -11,0 C 92 % 1025,5 hPa 0,0 l/m 3,2 km/h (1 Bft) S-SW 205 0 min 0,000 mm 0,0 UV-I 0 W/m -12,0 C -11,0 C 3,2 km/h (1 Bft) 100,00 %
23.01.2017 02:40 -11,1 C 92 % 1025,5 hPa 0,0 l/m 1,2 km/h (1 Bft) S-SW 205 0 min 0,000 mm 0,0 UV-I 0 W/m -12,1 C -11,1 C 3,2 km/h (1 Bft) 100,00 %
23.01.2017 02:42 -11,1 C 92 % 1025,5 hPa 0,0 l/m 3,2 km/h (1 Bft) S-SW 205 0 min 0,000 mm 0,0 UV-I 0 W/m -12,1 C -11,1 C 4,8 km/h (1 Bft) 97,87 %
23.01.2017 02:44 -11,1 C 92 % 1025,5 hPa 0,0 l/m 3,4 km/h (1 Bft) S-SW 205 0 min 0,000 mm 0,0 UV-I 0 W/m -12,1 C -11,1 C 4,8 km/h (1 Bft) 100,00 %
23.01.2017 02:46 -11,2 C 92 % 1025,5 hPa 0,0 l/m 4,2 km/h (1 Bft) S-SW 205 0 min 0,000 mm 0,0 UV-I 0 W/m -12,2 C -11,2 C 6,4 km/h (2 Bft) 97,37 %
23.01.2017 02:48 -11,2 C 92 % 1025,6 hPa 0,0 l/m 4,7 km/h (1 Bft) S-SW 205 0 min 0,000 mm 0,0 UV-I 0 W/m -12,2 C -11,2 C 6,4 km/h (2 Bft) 100,00 %
23.01.2017 02:50 -11,4 C 91 % 1025,6 hPa 0,0 l/m 2,8 km/h (1 Bft) S-SW 205 0 min 0,000 mm 0,0 UV-I 0 W/m -12,6 C -11,4 C 4,8 km/h (1 Bft) 100,00 %
23.01.2017 02:52 -11,5 C 91 % 1025,6 hPa 0,0 l/m 4,2 km/h (1 Bft) S-SW 205 0 min 0,000 mm 0,0 UV-I 0 W/m -12,7 C -11,5 C 4,8 km/h (1 Bft) 100,00 %
23.01.2017 02:54 -11,7 C 91 % 1025,6 hPa 0,0 l/m 3,9 km/h (1 Bft) S-SW 205 0 min 0,000 mm 0,0 UV-I 0 W/m -12,9 C -11,7 C 6,4 km/h (2 Bft) 96,00 %
23.01.2017 02:56 -11,8 C 91 % 1025,5 hPa 0,0 l/m 4,2 km/h (1 Bft) S-SW 205 0 min 0,000 mm 0,0 UV-I 0 W/m -13,0 C -11,8 C 6,4 km/h (2 Bft) 100,00 %
23.01.2017 02:58 -11,8 C 91 % 1025,6 hPa 0,0 l/m 2,0 km/h (1 Bft) S-SW 202 0 min 0,000 mm 0,0 UV-I 0 W/m -13,0 C -11,8 C 4,8 km/h (1 Bft) 100,00 %
23.01.2017 03:00 -11,7 C 92 % 1025,6 hPa 0,0 l/m 4,3 km/h (1 Bft) S-SW 200 0 min 0,000 mm 0,0 UV-I 0 W/m -12,7 C -11,7 C 4,8 km/h (1 Bft) 100,00 %
23.01.2017 03:02 -11,5 C 92 % 1025,7 hPa 0,0 l/m 2,1 km/h (1 Bft) S-SW 199 0 min 0,000 mm 0,0 UV-I 0 W/m -12,5 C -11,5 C 4,8 km/h (1 Bft) 97,87 %
23.01.2017 03:04 -11,4 C 92 % 1025,7 hPa 0,0 l/m 3,0 km/h (1 Bft) S-SW 199 0 min 0,000 mm 0,0 UV-I 0 W/m -12,4 C -11,4 C 4,8 km/h (1 Bft) 98,00 %
23.01.2017 03:06 -11,3 C 93 % 1025,7 hPa 0,0 l/m 3,7 km/h (1 Bft) S-SW 205 0 min 0,000 mm 0,0 UV-I 0 W/m -12,2 C -11,3 C 6,4 km/h (2 Bft) 100,00 %
23.01.2017 03:08 -11,2 C 93 % 1025,7 hPa 0,0 l/m 3,2 km/h (1 Bft) S 190 0 min 0,000 mm 0,0 UV-I 0 W/m -12,1 C -11,2 C 4,8 km/h (1 Bft) 97,56 %
23.01.2017 03:10 -11,2 C 93 % 1025,7 hPa 0,0 l/m 3,0 km/h (1 Bft) S 190 0 min 0,000 mm 0,0 UV-I 0 W/m -12,1 C -11,2 C 4,8 km/h (1 Bft) 100,00 %
23.01.2017 03:12 -11,1 C 93 % 1025,7 hPa 0,0 l/m 5,0 km/h (1 Bft) S-SW 205 0 min 0,000 mm 0,0 UV-I 0 W/m -12,0 C -11,1 C 6,4 km/h (2 Bft) 97,87 %
23.01.2017 03:14 -10,9 C 93 % 1025,7 hPa 0,0 l/m 4,4 km/h (1 Bft) S-SW 201 0 min 0,000 mm 0,0 UV-I 0 W/m -11,8 C -10,9 C 8,0 km/h (2 Bft) 98,21 %
23.01.2017 03:16 -11,1 C 92 % 1025,7 hPa 0,0 l/m 3,9 km/h (1 Bft) S-SW 201 0 min 0,000 mm 0,0 UV-I 0 W/m -12,1 C -11,1 C 6,4 km/h (2 Bft) 100,00 %
23.01.2017 03:18 -11,0 C 93 % 1025,7 hPa 0,0 l/m 3,3 km/h (1 Bft) S-SW 195 0 min 0,000 mm 0,0 UV-I 0 W/m -11,9 C -11,0 C 6,4 km/h (2 Bft) 100,00 %
23.01.2017 03:20 -11,0 C 92 % 1025,6 hPa 0,0 l/m 4,9 km/h (1 Bft) S-SW 211 0 min 0,000 mm 0,0 UV-I 0 W/m -12,0 C -11,0 C 6,4 km/h (2 Bft) 100,00 %
23.01.2017 03:22 -11,0 C 92 % 1025,6 hPa 0,0 l/m 3,4 km/h (1 Bft) S-SW 202 0 min 0,000 mm 0,0 UV-I 0 W/m -12,0 C -11,0 C 6,4 km/h (2 Bft) 100,00 %
23.01.2017 03:24 -10,9 C 92 % 1025,5 hPa 0,0 l/m 2,8 km/h (1 Bft) S-SW 202 0 min 0,000 mm 0,0 UV-I 0 W/m -11,9 C -10,9 C 4,8 km/h (1 Bft) 100,00 %
23.01.2017 03:26 -10,9 C 92 % 1025,5 hPa 0,0 l/m 4,2 km/h (1 Bft) S-SW 202 0 min 0,000 mm 0,0 UV-I 0 W/m -11,9 C -10,9 C 6,4 km/h (2 Bft) 95,12 %
23.01.2017 03:28 -10,9 C 93 % 1025,6 hPa 0,0 l/m 0,8 km/h (0 Bft) S-SW 198 0 min 0,000 mm 0,0 UV-I 0 W/m -11,8 C -10,9 C 3,2 km/h (1 Bft) 96,00 %
23.01.2017 03:30 -10,8 C 92 % 1025,5 hPa 0,0 l/m 3,5 km/h (1 Bft) S-SW 198 0 min 0,000 mm 0,0 UV-I 0 W/m -11,8 C -10,8 C 4,8 km/h (1 Bft) 93,62 %
23.01.2017 03:32 -10,9 C 92 % 1025,5 hPa 0,0 l/m 1,7 km/h (1 Bft) S-SW 198 0 min 0,000 mm 0,0 UV-I 0 W/m -11,9 C -10,9 C 3,2 km/h (1 Bft) 98,00 %
23.01.2017 03:34 -11,0 C 92 % 1025,6 hPa 0,0 l/m 2,8 km/h (1 Bft) S-SW 198 0 min 0,000 mm 0,0 UV-I 0 W/m -12,0 C -11,0 C 4,8 km/h (1 Bft) 96,08 %
23.01.2017 03:36 -11,1 C 92 % 1025,7 hPa 0,0 l/m 3,0 km/h (1 Bft) S-SW 198 0 min 0,000 mm 0,0 UV-I 0 W/m -12,1 C -11,1 C 4,8 km/h (1 Bft) 95,12 %
23.01.2017 03:38 -11,2 C 92 % 1025,7 hPa 0,0 l/m 3,8 km/h (1 Bft) S-SW 198 0 min 0,000 mm 0,0 UV-I 0 W/m -12,2 C -11,2 C 4,8 km/h (1 Bft) 94,34 %
23.01.2017 03:40 -11,1 C 92 % 1025,7 hPa 0,0 l/m 4,1 km/h (1 Bft) S-SW 198 0 min 0,000 mm 0,0 UV-I 0 W/m -12,1 C -11,1 C 4,8 km/h (1 Bft) 97,44 %
23.01.2017 03:42 -11,2 C 92 % 1025,6 hPa 0,0 l/m 3,1 km/h (1 Bft) S-SW 198 0 min 0,000 mm 0,0 UV-I 0 W/m -12,2 C -11,2 C 4,8 km/h (1 Bft) 96,23 %
23.01.2017 03:44 -11,3 C 91 % 1025,6 hPa 0,0 l/m 3,4 km/h (1 Bft) S-SW 198 0 min 0,000 mm 0,0 UV-I 0 W/m -12,5 C -11,3 C 4,8 km/h (1 Bft) 96,00 %
23.01.2017 03:46 -11,5 C 91 % 1025,7 hPa 0,0 l/m 3,3 km/h (1 Bft) S-SW 198 0 min 0,000 mm 0,0 UV-I 0 W/m -12,7 C -11,5 C 4,8 km/h (1 Bft) 97,14 %
23.01.2017 03:48 -11,4 C 92 % 1025,7 hPa 0,0 l/m 4,4 km/h (1 Bft) S-SW 198 0 min 0,000 mm 0,0 UV-I 0 W/m -12,4 C -11,4 C 4,8 km/h (1 Bft) 94,00 %
23.01.2017 03:50 -11,4 C 92 % 1025,7 hPa 0,0 l/m 2,3 km/h (1 Bft) S-SW 198 0 min 0,000 mm 0,0 UV-I 0 W/m -12,4 C -11,4 C 4,8 km/h (1 Bft) 94,29 %
23.01.2017 03:52 -11,4 C 92 % 1025,6 hPa 0,0 l/m 4,2 km/h (1 Bft) S-SW 198 0 min 0,000 mm 0,0 UV-I 0 W/m -12,4 C -11,4 C 6,4 km/h (2 Bft) 98,39 %
23.01.2017 03:54 -11,4 C 92 % 1025,7 hPa 0,0 l/m 2,3 km/h (1 Bft) S-SW 198 0 min 0,000 mm 0,0 UV-I 0 W/m -12,4 C -11,4 C 4,8 km/h (1 Bft) 90,00 %
23.01.2017 03:56 -11,4 C 92 % 1025,6 hPa 0,0 l/m 4,2 km/h (1 Bft) S-SW 207 0 min 0,000 mm 0,0 UV-I 0 W/m -12,4 C -11,4 C 6,4 km/h (2 Bft) 95,74 %
23.01.2017 03:58 -11,4 C 92 % 1025,7 hPa 0,0 l/m 2,3 km/h (1 Bft) S-SW 193 0 min 0,000 mm 0,0 UV-I 0 W/m -12,4 C -11,4 C 4,8 km/h (1 Bft) 97,87 %
23.01.2017 04:00 -11,5 C 92 % 1025,6 hPa 0,0 l/m 3,1 km/h (1 Bft) S-SW 193 0 min 0,000 mm 0,0 UV-I 0 W/m -12,5 C -11,5 C 4,8 km/h (1 Bft) 94,00 %
23.01.2017 04:02 -11,6 C 92 % 1025,7 hPa 0,0 l/m 1,9 km/h (1 Bft) S-SW 194 0 min 0,000 mm 0,0 UV-I 0 W/m -12,6 C -11,6 C 3,2 km/h (1 Bft) 96,43 %
23.01.2017 04:04 -11,6 C 92 % 1025,7 hPa 0,0 l/m 1,9 km/h (1 Bft) S-SW 193 0 min 0,000 mm 0,0 UV-I 0 W/m -12,6 C -11,6 C 4,8 km/h (1 Bft) 98,11 %
23.01.2017 04:06 -11,7 C 91 % 1025,7 hPa 0,0 l/m 2,8 km/h (1 Bft) S-SW 199 0 min 0,000 mm 0,0 UV-I 0 W/m -12,9 C -11,7 C 4,8 km/h (1 Bft) 95,45 %
23.01.2017 04:08 -11,8 C 91 % 1025,8 hPa 0,0 l/m 3,5 km/h (1 Bft) S-SW 199 0 min 0,000 mm 0,0 UV-I 0 W/m -13,0 C -11,8 C 4,8 km/h (1 Bft) 98,00 %
23.01.2017 04:10 -11,8 C 92 % 1025,8 hPa 0,0 l/m 4,3 km/h (1 Bft) S-SW 199 0 min 0,000 mm 0,0 UV-I 0 W/m -12,8 C -11,8 C 6,4 km/h (2 Bft) 100,00 %
23.01.2017 04:12 -11,8 C 91 % 1025,8 hPa 0,0 l/m 1,3 km/h (1 Bft) S-SW 199 0 min 0,000 mm 0,0 UV-I 0 W/m -13,0 C -11,8 C 4,8 km/h (1 Bft) 97,87 %
23.01.2017 04:14 -11,9 C 91 % 1025,8 hPa 0,0 l/m 2,3 km/h (1 Bft) S-SW 199 0 min 0,000 mm 0,0 UV-I 0 W/m -13,1 C -11,9 C 4,8 km/h (1 Bft) 100,00 %
23.01.2017 04:16 -12,0 C 91 % 1025,8 hPa 0,0 l/m 2,2 km/h (1 Bft) S-SW 199 0 min 0,000 mm 0,0 UV-I 0 W/m -13,2 C -12,0 C 3,2 km/h (1 Bft) 100,00 %
23.01.2017 04:18 -12,0 C 92 % 1025,8 hPa 0,0 l/m 1,8 km/h (1 Bft) S-SW 199 0 min 0,000 mm 0,0 UV-I 0 W/m -13,0 C -12,0 C 3,2 km/h (1 Bft) 100,00 %
23.01.2017 04:20 -11,9 C 92 % 1025,8 hPa 0,0 l/m 4,1 km/h (1 Bft) S-SW 199 0 min 0,000 mm 0,0 UV-I 0 W/m -12,9 C -11,9 C 4,8 km/h (1 Bft) 97,96 %
23.01.2017 04:22 -11,8 C 92 % 1025,8 hPa 0,0 l/m 3,1 km/h (1 Bft) S-SW 199 0 min 0,000 mm 0,0 UV-I 0 W/m -12,8 C -11,8 C 4,8 km/h (1 Bft) 100,00 %
23.01.2017 04:24 -11,8 C 92 % 1025,8 hPa 0,0 l/m 3,3 km/h (1 Bft) S-SW 199 0 min 0,000 mm 0,0 UV-I 0 W/m -12,8 C -11,8 C 4,8 km/h (1 Bft) 98,11 %
23.01.2017 04:26 -11,8 C 92 % 1025,9 hPa 0,0 l/m 3,0 km/h (1 Bft) S-SW 199 0 min 0,000 mm 0,0 UV-I 0 W/m -12,8 C -11,8 C 4,8 km/h (1 Bft) 100,00 %
23.01.2017 04:28 -11,8 C 92 % 1025,9 hPa 0,0 l/m 3,2 km/h (1 Bft) S-SW 198 0 min 0,000 mm 0,0 UV-I 0 W/m -12,8 C -11,8 C 4,8 km/h (1 Bft) 98,00 %
23.01.2017 04:30 -11,8 C 92 % 1025,9 hPa 0,0 l/m 1,7 km/h (1 Bft) S-SW 198 0 min 0,000 mm 0,0 UV-I 0 W/m -12,8 C -11,8 C 3,2 km/h (1 Bft) 93,62 %
23.01.2017 04:32 -11,8 C 92 % 1025,9 hPa 0,0 l/m 1,1 km/h (1 Bft) S-SW 198 0 min 0,000 mm 0,0 UV-I 0 W/m -12,8 C -11,8 C 3,2 km/h (1 Bft) 100,00 %
23.01.2017 04:34 -11,8 C 92 % 1025,9 hPa 0,0 l/m 1,2 km/h (1 Bft) S-SW 198 0 min 0,000 mm 0,0 UV-I 0 W/m -12,8 C -11,8 C 3,2 km/h (1 Bft) 100,00 %
23.01.2017 04:36 -11,7 C 92 % 1025,9 hPa 0,0 l/m 0,4 km/h (0 Bft) S-SW 198 0 min 0,000 mm 0,0 UV-I 0 W/m -12,7 C -11,7 C 1,6 km/h (1 Bft) 100,00 %
23.01.2017 04:38 -11,7 C 92 % 1025,9 hPa 0,0 l/m 0,6 km/h (0 Bft) S-SW 198 0 min 0,000 mm 0,0 UV-I 0 W/m -12,7 C -11,7 C 3,2 km/h (1 Bft) 100,00 %
23.01.2017 04:40 -11,6 C 92 % 1025,9 hPa 0,0 l/m 0,6 km/h (0 Bft) S-SW 198 0 min 0,000 mm 0,0 UV-I 0 W/m -12,6 C -11,6 C 3,2 km/h (1 Bft) 98,11 %
23.01.2017 04:42 -11,4 C 93 % 1025,8 hPa 0,0 l/m 0,9 km/h (0 Bft) S-SW 198 0 min 0,000 mm 0,0 UV-I 0 W/m -12,3 C -11,4 C 1,6 km/h (1 Bft) 100,00 %
23.01.2017 04:44 -11,3 C 92 % 1025,8 hPa 0,0 l/m 2,1 km/h (1 Bft) S-SW 198 0 min 0,000 mm 0,0 UV-I 0 W/m -12,3 C -11,3 C 3,2 km/h (1 Bft) 97,37 %
23.01.2017 04:46 -11,3 C 92 % 1025,8 hPa 0,0 l/m 0,0 km/h (0 Bft) S-SW 198 0 min 0,000 mm 0,0 UV-I 0 W/m -12,3 C -11,3 C 1,6 km/h (1 Bft) 100,00 %
23.01.2017 04:48 -11,4 C 92 % 1025,8 hPa 0,0 l/m 2,3 km/h (1 Bft) S-SW 198 0 min 0,000 mm 0,0 UV-I 0 W/m -12,4 C -11,4 C 4,8 km/h (1 Bft) 100,00 %
23.01.2017 04:50 -11,5 C 92 % 1025,8 hPa 0,0 l/m 0,4 km/h (0 Bft) S-SW 198 0 min 0,000 mm 0,0 UV-I 0 W/m -12,5 C -11,5 C 1,6 km/h (1 Bft) 100,00 %
23.01.2017 04:52 -11,6 C 92 % 1025,8 hPa 0,0 l/m 1,7 km/h (1 Bft) S-SW 198 0 min 0,000 mm 0,0 UV-I 0 W/m -12,6 C -11,6 C 3,2 km/h (1 Bft) 100,00 %
23.01.2017 04:54 -11,6 C 92 % 1025,8 hPa 0,0 l/m 1,8 km/h (1 Bft) S-SW 198 0 min 0,000 mm 0,0 UV-I 0 W/m -12,6 C -11,6 C 3,2 km/h (1 Bft) 100,00 %
23.01.2017 04:56 -11,7 C 92 % 1025,7 hPa 0,0 l/m 1,7 km/h (1 Bft) S-SW 198 0 min 0,000 mm 0,0 UV-I 0 W/m -12,7 C -11,7 C 3,2 km/h (1 Bft) 100,00 %
23.01.2017 04:58 -11,8 C 91 % 1025,7 hPa 0,0 l/m 2,3 km/h (1 Bft) S-SW 198 0 min 0,000 mm 0,0 UV-I 0 W/m -13,0 C -11,8 C 3,2 km/h (1 Bft) 100,00 %
23.01.2017 05:00 -11,8 C 91 % 1025,7 hPa 0,0 l/m 2,6 km/h (1 Bft) S-SW 198 0 min 0,000 mm 0,0 UV-I 0 W/m -13,0 C -11,8 C 3,2 km/h (1 Bft) 100,00 %
23.01.2017 05:02 -12,0 C 91 % 1025,7 hPa 0,0 l/m 0,8 km/h (0 Bft) S-SW 198 0 min 0,000 mm 0,0 UV-I 0 W/m -13,2 C -12,0 C 1,6 km/h (1 Bft) 100,00 %
23.01.2017 05:04 -12,2 C 91 % 1025,7 hPa 0,0 l/m 0,4 km/h (0 Bft) S-SW 198 0 min 0,000 mm 0,0 UV-I 0 W/m -13,4 C -12,2 C 1,6 km/h (1 Bft) 97,62 %
23.01.2017 05:06 -12,3 C 91 % 1025,7 hPa 0,0 l/m 0,3 km/h (0 Bft) S-SW 198 0 min 0,000 mm 0,0 UV-I 0 W/m -13,5 C -12,3 C 1,6 km/h (1 Bft) 100,00 %
23.01.2017 05:08 -12,3 C 91 % 1025,7 hPa 0,0 l/m 0,9 km/h (0 Bft) S-SW 198 0 min 0,000 mm 0,0 UV-I 0 W/m -13,5 C -12,3 C 1,6 km/h (1 Bft) 100,00 %
23.01.2017 05:10 -12,1 C 92 % 1025,7 hPa 0,0 l/m 0,8 km/h (0 Bft) S-SW 198 0 min 0,000 mm 0,0 UV-I 0 W/m -13,1 C -12,1 C 1,6 km/h (1 Bft) 100,00 %
23.01.2017 05:12 -11,8 C 92 % 1025,7 hPa 0,0 l/m 0,7 km/h (0 Bft) S-SW 198 0 min 0,000 mm 0,0 UV-I 0 W/m -12,8 C -11,8 C 1,6 km/h (1 Bft) 100,00 %
23.01.2017 05:14 -11,8 C 92 % 1025,6 hPa 0,0 l/m 0,5 km/h (0 Bft) S-SW 198 0 min 0,000 mm 0,0 UV-I 0 W/m -12,8 C -11,8 C 1,6 km/h (1 Bft) 100,00 %
23.01.2017 05:16 -11,8 C 92 % 1025,6 hPa 0,0 l/m 0,7 km/h (0 Bft) S-SW 198 0 min 0,000 mm 0,0 UV-I 0 W/m -12,8 C -11,8 C 1,6 km/h (1 Bft) 97,87 %
23.01.2017 05:18 -11,8 C 92 % 1025,5 hPa 0,0 l/m 2,5 km/h (1 Bft) S-SW 198 0 min 0,000 mm 0,0 UV-I 0 W/m -12,8 C -11,8 C 3,2 km/h (1 Bft) 97,87 %
23.01.2017 05:20 -11,8 C 92 % 1025,5 hPa 0,0 l/m 1,6 km/h (1 Bft) S-SW 198 0 min 0,000 mm 0,0 UV-I 0 W/m -12,8 C -11,8 C 3,2 km/h (1 Bft) 98,11 %
23.01.2017 05:22 -11,9 C 92 % 1025,6 hPa 0,0 l/m 0,5 km/h (0 Bft) S-SW 198 0 min 0,000 mm 0,0 UV-I 0 W/m -12,9 C -11,9 C 1,6 km/h (1 Bft) 100,00 %
23.01.2017 05:24 -12,0 C 91 % 1025,6 hPa 0,0 l/m 0,4 km/h (0 Bft) S-SW 198 0 min 0,000 mm 0,0 UV-I 0 W/m -13,2 C -12,0 C 1,6 km/h (1 Bft) 98,11 %
23.01.2017 05:26 -12,1 C 91 % 1025,6 hPa 0,0 l/m 1,0 km/h (0 Bft) S-SW 198 0 min 0,000 mm 0,0 UV-I 0 W/m -13,3 C -12,1 C 3,2 km/h (1 Bft) 97,87 %
23.01.2017 05:28 -12,2 C 91 % 1025,7 hPa 0,0 l/m 1,4 km/h (1 Bft) S-SW 198 0 min 0,000 mm 0,0 UV-I 0 W/m -13,4 C -12,2 C 1,6 km/h (1 Bft) 100,00 %
23.01.2017 05:30 -12,2 C 91 % 1025,6 hPa 0,0 l/m 0,9 km/h (0 Bft) S-SW 198 0 min 0,000 mm 0,0 UV-I 0 W/m -13,4 C -12,2 C 1,6 km/h (1 Bft) 100,00 %
23.01.2017 05:32 -12,1 C 92 % 1025,6 hPa 0,0 l/m 0,3 km/h (0 Bft) S-SW 198 0 min 0,000 mm 0,0 UV-I 0 W/m -13,1 C -12,1 C 1,6 km/h (1 Bft) 95,74 %
23.01.2017 05:34 -11,9 C 92 % 1025,6 hPa 0,0 l/m 0,0 km/h (0 Bft) S-SW 198 0 min 0,000 mm 0,0 UV-I 0 W/m -12,9 C -11,9 C 1,6 km/h (1 Bft) 98,11 %
23.01.2017 05:36 -11,8 C 92 % 1025,5 hPa 0,0 l/m 0,2 km/h (0 Bft) S-SW 198 0 min 0,000 mm 0,0 UV-I 0 W/m -12,8 C -11,8 C 1,6 km/h (1 Bft) 100,00 %
23.01.2017 05:38 -11,8 C 92 % 1025,6 hPa 0,0 l/m 0,1 km/h (0 Bft) S-SW 198 0 min 0,000 mm 0,0 UV-I 0 W/m -12,8 C -11,8 C 1,6 km/h (1 Bft) 98,00 %
23.01.2017 05:40 -11,7 C 92 % 1025,7 hPa 0,0 l/m 0,5 km/h (0 Bft) S-SW 198 0 min 0,000 mm 0,0 UV-I 0 W/m -12,7 C -11,7 C 1,6 km/h (1 Bft) 100,00 %
23.01.2017 05:42 -11,6 C 92 % 1025,6 hPa 0,0 l/m 0,1 km/h (0 Bft) S-SW 198 0 min 0,000 mm 0,0 UV-I 0 W/m -12,6 C -11,6 C 1,6 km/h (1 Bft) 100,00 %
23.01.2017 05:44 -11,6 C 92 % 1025,6 hPa 0,0 l/m 0,2 km/h (0 Bft) S-SW 198 0 min 0,000 mm 0,0 UV-I 0 W/m -12,6 C -11,6 C 1,6 km/h (1 Bft) 100,00 %
23.01.2017 05:46 -11,5 C 92 % 1025,6 hPa 0,0 l/m 0,9 km/h (0 Bft) S-SW 198 0 min 0,000 mm 0,0 UV-I 0 W/m -12,5 C -11,5 C 3,2 km/h (1 Bft) 100,00 %
23.01.2017 05:48 -11,7 C 92 % 1025,5 hPa 0,0 l/m 2,7 km/h (1 Bft) S-SW 198 0 min 0,000 mm 0,0 UV-I 0 W/m -12,7 C -11,7 C 3,2 km/h (1 Bft) 100,00 %
23.01.2017 05:50 -11,8 C 91 % 1025,5 hPa 0,0 l/m 1,9 km/h (1 Bft) S-SW 198 0 min 0,000 mm 0,0 UV-I 0 W/m -13,0 C -11,8 C 3,2 km/h (1 Bft) 96,00 %
23.01.2017 05:52 -12,1 C 91 % 1025,5 hPa 0,0 l/m 1,7 km/h (1 Bft) S-SW 198 0 min 0,000 mm 0,0 UV-I 0 W/m -13,3 C -12,1 C 3,2 km/h (1 Bft) 97,73 %
23.01.2017 05:54 -12,2 C 91 % 1025,5 hPa 0,0 l/m 1,8 km/h (1 Bft) S-SW 198 0 min 0,000 mm 0,0 UV-I 0 W/m -13,4 C -12,2 C 3,2 km/h (1 Bft) 100,00 %
23.01.2017 05:56 -12,3 C 91 % 1025,6 hPa 0,0 l/m 2,7 km/h (1 Bft) S-SW 198 0 min 0,000 mm 0,0 UV-I 0 W/m -13,5 C -12,3 C 3,2 km/h (1 Bft) 95,74 %
23.01.2017 05:58 -12,4 C 91 % 1025,6 hPa 0,0 l/m 1,6 km/h (1 Bft) S-SW 198 0 min 0,000 mm 0,0 UV-I 0 W/m -13,6 C -12,4 C 3,2 km/h (1 Bft) 100,00 %
23.01.2017 06:00 -12,5 C 91 % 1025,6 hPa 0,0 l/m 0,9 km/h (0 Bft) S-SW 198 0 min 0,000 mm 0,0 UV-I 0 W/m -13,7 C -12,5 C 1,6 km/h (1 Bft) 97,37 %
23.01.2017 06:02 -12,6 C 91 % 1025,7 hPa 0,0 l/m 1,9 km/h (1 Bft) S-SW 198 0 min 0,000 mm 0,0 UV-I 0 W/m -13,8 C -12,6 C 3,2 km/h (1 Bft) 100,00 %
23.01.2017 06:04 -12,5 C 91 % 1025,6 hPa 0,0 l/m 2,0 km/h (1 Bft) S-SW 198 0 min 0,000 mm 0,0 UV-I 0 W/m -13,7 C -12,5 C 3,2 km/h (1 Bft) 98,11 %
23.01.2017 06:06 -12,4 C 91 % 1025,7 hPa 0,0 l/m 2,3 km/h (1 Bft) S-SW 198 0 min 0,000 mm 0,0 UV-I 0 W/m -13,6 C -12,4 C 3,2 km/h (1 Bft) 94,74 %
23.01.2017 06:08 -12,4 C 91 % 1025,7 hPa 0,0 l/m 2,2 km/h (1 Bft) S-SW 198 0 min 0,000 mm 0,0 UV-I 0 W/m -13,6 C -12,4 C 3,2 km/h (1 Bft) 91,49 %
23.01.2017 06:10 -12,4 C 92 % 1025,7 hPa 0,0 l/m 1,5 km/h (1 Bft) S-SW 198 0 min 0,000 mm 0,0 UV-I 0 W/m -13,4 C -12,4 C 3,2 km/h (1 Bft) 96,23 %
23.01.2017 06:12 -12,4 C 92 % 1025,8 hPa 0,0 l/m 0,6 km/h (0 Bft) S-SW 198 0 min 0,000 mm 0,0 UV-I 0 W/m -13,4 C -12,4 C 1,6 km/h (1 Bft) 93,62 %
23.01.2017 06:14 -12,4 C 91 % 1025,8 hPa 0,0 l/m 0,7 km/h (0 Bft) S-SW 198 0 min 0,000 mm 0,0 UV-I 0 W/m -13,6 C -12,4 C 1,6 km/h (1 Bft) 95,74 %
23.01.2017 06:16 -12,3 C 92 % 1025,9 hPa 0,0 l/m 1,2 km/h (1 Bft) S-SW 198 0 min 0,000 mm 0,0 UV-I 0 W/m -13,3 C -12,3 C 3,2 km/h (1 Bft) 94,00 %
23.01.2017 06:18 -12,2 C 92 % 1025,9 hPa 0,0 l/m 0,2 km/h (0 Bft) S-SW 198 0 min 0,000 mm 0,0 UV-I 0 W/m -13,2 C -12,2 C 1,6 km/h (1 Bft) 97,56 %
23.01.2017 06:20 -12,3 C 91 % 1025,9 hPa 0,0 l/m 0,1 km/h (0 Bft) S-SW 198 0 min 0,000 mm 0,0 UV-I 0 W/m -13,5 C -12,3 C 1,6 km/h (1 Bft) 89,36 %
23.01.2017 06:22 -12,3 C 91 % 1025,9 hPa 0,0 l/m 0,0 km/h (0 Bft) S-SW 198 0 min 0,000 mm 0,0 UV-I 0 W/m -13,5 C -12,3 C 0,0 km/h (0 Bft) 92,45 %
23.01.2017 06:24 -12,3 C 92 % 1025,9 hPa 0,0 l/m 0,3 km/h (0 Bft) S-SW 198 0 min 0,000 mm 0,0 UV-I 0 W/m -13,3 C -12,3 C 1,6 km/h (1 Bft) 97,44 %
23.01.2017 06:26 -12,2 C 92 % 1025,9 hPa 0,0 l/m 0,6 km/h (0 Bft) S-SW 198 0 min 0,000 mm 0,0 UV-I 0 W/m -13,2 C -12,2 C 1,6 km/h (1 Bft) 96,00 %
23.01.2017 06:28 -12,2 C 92 % 1025,9 hPa 0,0 l/m 0,4 km/h (0 Bft) S-SW 198 0 min 0,000 mm 0,0 UV-I 0 W/m -13,2 C -12,2 C 1,6 km/h (1 Bft) 98,00 %
23.01.2017 06:30 -12,2 C 92 % 1025,9 hPa 0,0 l/m 0,0 km/h (0 Bft) S-SW 198 0 min 0,000 mm 0,0 UV-I 0 W/m -13,2 C -12,2 C 1,6 km/h (1 Bft) 97,87 %
23.01.2017 06:32 -12,2 C 91 % 1025,9 hPa 0,0 l/m 0,1 km/h (0 Bft) S-SW 198 0 min 0,000 mm 0,0 UV-I 0 W/m -13,4 C -12,2 C 1,6 km/h (1 Bft) 97,37 %
23.01.2017 06:34 -12,2 C 92 % 1025,9 hPa 0,0 l/m 0,2 km/h (0 Bft) S-SW 198 0 min 0,000 mm 0,0 UV-I 0 W/m -13,2 C -12,2 C 1,6 km/h (1 Bft) 98,00 %
23.01.2017 06:36 -12,2 C 92 % 1025,9 hPa 0,0 l/m 0,0 km/h (0 Bft) S-SW 198 0 min 0,000 mm 0,0 UV-I 0 W/m -13,2 C -12,2 C 0,0 km/h (0 Bft) 97,87 %
23.01.2017 06:38 -12,2 C 92 % 1025,9 hPa 0,0 l/m 0,5 km/h (0 Bft) S-SW 198 0 min 0,000 mm 0,0 UV-I 0 W/m -13,2 C -12,2 C 3,2 km/h (1 Bft) 96,00 %
23.01.2017 06:40 -12,2 C 91 % 1025,9 hPa 0,0 l/m 1,5 km/h (1 Bft) S-SW 198 0 min 0,000 mm 0,0 UV-I 0 W/m -13,4 C -12,2 C 3,2 km/h (1 Bft) 98,00 %
23.01.2017 06:42 -12,3 C 91 % 1025,9 hPa 0,0 l/m 2,3 km/h (1 Bft) S-SW 198 0 min 0,000 mm 0,0 UV-I 0 W/m -13,5 C -12,3 C 3,2 km/h (1 Bft) 95,74 %
23.01.2017 06:44 -12,3 C 91 % 1025,9 hPa 0,0 l/m 1,9 km/h (1 Bft) S-SW 198 0 min 0,000 mm 0,0 UV-I 0 W/m -13,5 C -12,3 C 3,2 km/h (1 Bft) 97,14 %
23.01.2017 06:46 -12,3 C 91 % 1025,9 hPa 0,0 l/m 1,7 km/h (1 Bft) S-SW 198 0 min 0,000 mm 0,0 UV-I 0 W/m -13,5 C -12,3 C 3,2 km/h (1 Bft) 96,23 %
23.01.2017 06:48 -12,4 C 91 % 1025,9 hPa 0,0 l/m 2,4 km/h (1 Bft) S-SW 198 0 min 0,000 mm 0,0 UV-I 0 W/m -13,6 C -12,4 C 3,2 km/h (1 Bft) 96,23 %
23.01.2017 06:50 -12,4 C 91 % 1025,8 hPa 0,0 l/m 2,7 km/h (1 Bft) S-SW 198 0 min 0,000 mm 0,0 UV-I 0 W/m -13,6 C -12,4 C 3,2 km/h (1 Bft) 97,22 %
23.01.2017 06:52 -12,4 C 91 % 1025,9 hPa 0,0 l/m 2,8 km/h (1 Bft) S-SW 198 0 min 0,000 mm 0,0 UV-I 0 W/m -13,6 C -12,4 C 3,2 km/h (1 Bft) 96,23 %
23.01.2017 06:54 -12,4 C 91 % 1025,8 hPa 0,0 l/m 2,7 km/h (1 Bft) S-SW 198 0 min 0,000 mm 0,0 UV-I 0 W/m -13,6 C -12,4 C 4,8 km/h (1 Bft) 97,56 %
23.01.2017 06:56 -12,4 C 91 % 1025,8 hPa 0,0 l/m 0,5 km/h (0 Bft) S-SW 198 0 min 0,000 mm 0,0 UV-I 0 W/m -13,6 C -12,4 C 1,6 km/h (1 Bft) 97,87 %
23.01.2017 06:58 -12,4 C 91 % 1025,8 hPa 0,0 l/m 1,4 km/h (1 Bft) S-SW 198 0 min 0,000 mm 0,0 UV-I 0 W/m -13,6 C -12,4 C 3,2 km/h (1 Bft) 100,00 %
23.01.2017 07:00 -12,4 C 91 % 1025,8 hPa 0,0 l/m 0,2 km/h (0 Bft) S-SW 198 0 min 0,000 mm 0,0 UV-I 0 W/m -13,6 C -12,4 C 1,6 km/h (1 Bft) 97,87 %
23.01.2017 07:02 -12,4 C 91 % 1025,8 hPa 0,0 l/m 0,4 km/h (0 Bft) S-SW 198 0 min 0,000 mm 0,0 UV-I 0 W/m -13,6 C -12,4 C 1,6 km/h (1 Bft) 100,00 %
23.01.2017 07:04 -12,4 C 92 % 1025,8 hPa 0,0 l/m 2,3 km/h (1 Bft) S-SW 198 0 min 0,000 mm 0,0 UV-I 0 W/m -13,4 C -12,4 C 3,2 km/h (1 Bft) 98,00 %
23.01.2017 07:06 -12,3 C 92 % 1025,8 hPa 0,0 l/m 2,0 km/h (1 Bft) S-SW 198 0 min 0,000 mm 0,0 UV-I 0 W/m -13,3 C -12,3 C 3,2 km/h (1 Bft) 97,44 %
23.01.2017 07:08 -12,3 C 91 % 1025,8 hPa 0,0 l/m 2,5 km/h (1 Bft) S-SW 198 0 min 0,000 mm 0,0 UV-I 0 W/m -13,5 C -12,3 C 3,2 km/h (1 Bft) 100,00 %
23.01.2017 07:10 -12,4 C 91 % 1025,8 hPa 0,0 l/m 3,0 km/h (1 Bft) S-SW 198 0 min 0,000 mm 0,0 UV-I 0 W/m -13,6 C -12,4 C 3,2 km/h (1 Bft) 100,00 %
23.01.2017 07:12 -12,4 C 91 % 1025,8 hPa 0,0 l/m 3,6 km/h (1 Bft) S-SW 198 0 min 0,000 mm 0,0 UV-I 0 W/m -13,6 C -12,4 C 4,8 km/h (1 Bft) 96,00 %
23.01.2017 07:14 -12,5 C 91 % 1025,8 hPa 0,0 l/m 3,1 km/h (1 Bft) S-SW 198 0 min 0,000 mm 0,0 UV-I 0 W/m -13,7 C -12,5 C 4,8 km/h (1 Bft) 100,00 %
23.01.2017 07:16 -12,6 C 91 % 1025,8 hPa 0,0 l/m 2,8 km/h (1 Bft) S-SW 198 0 min 0,000 mm 0,0 UV-I 0 W/m -13,8 C -12,6 C 3,2 km/h (1 Bft) 100,00 %
23.01.2017 07:18 -12,6 C 91 % 1025,8 hPa 0,0 l/m 2,2 km/h (1 Bft) S-SW 198 0 min 0,000 mm 0,0 UV-I 0 W/m -13,8 C -12,6 C 3,2 km/h (1 Bft) 100,00 %
23.01.2017 07:20 -12,6 C 91 % 1025,8 hPa 0,0 l/m 2,7 km/h (1 Bft) S-SW 198 0 min 0,000 mm 0,0 UV-I 0 W/m -13,8 C -12,6 C 3,2 km/h (1 Bft) 98,11 %
23.01.2017 07:22 -12,7 C 91 % 1025,9 hPa 0,0 l/m 1,4 km/h (1 Bft) S-SW 198 0 min 0,000 mm 0,0 UV-I 0 W/m -13,9 C -12,7 C 3,2 km/h (1 Bft) 98,00 %
23.01.2017 07:24 -12,7 C 91 % 1025,8 hPa 0,0 l/m 0,5 km/h (0 Bft) S-SW 198 0 min 0,000 mm 0,0 UV-I 0 W/m -13,9 C -12,7 C 3,2 km/h (1 Bft) 95,83 %
23.01.2017 07:26 -12,6 C 91 % 1025,8 hPa 0,0 l/m 2,0 km/h (1 Bft) S-SW 198 0 min 0,000 mm 0,0 UV-I 0 W/m -13,8 C -12,6 C 3,2 km/h (1 Bft) 100,00 %
23.01.2017 07:28 -12,5 C 91 % 1025,8 hPa 0,0 l/m 1,9 km/h (1 Bft) S-SW 198 0 min 0,000 mm 0,0 UV-I 2 W/m -13,7 C -12,5 C 3,2 km/h (1 Bft) 100,00 %
23.01.2017 07:30 -12,4 C 92 % 1025,9 hPa 0,0 l/m 2,2 km/h (1 Bft) S-SW 198 0 min 0,000 mm 0,0 UV-I 5 W/m -13,4 C -12,4 C 3,2 km/h (1 Bft) 100,00 %
23.01.2017 07:32 -12,6 C 91 % 1025,9 hPa 0,0 l/m 1,2 km/h (1 Bft) S-SW 198 0 min 0,000 mm 0,0 UV-I 5 W/m -13,8 C -12,6 C 3,2 km/h (1 Bft) 100,00 %
23.01.2017 07:34 -12,6 C 91 % 1025,9 hPa 0,0 l/m 1,5 km/h (1 Bft) S-SW 198 0 min 0,000 mm 0,0 UV-I 5 W/m -13,8 C -12,6 C 3,2 km/h (1 Bft) 100,00 %
23.01.2017 07:36 -12,6 C 91 % 1025,9 hPa 0,0 l/m 1,3 km/h (1 Bft) S-SW 198 0 min 0,000 mm 0,0 UV-I 5 W/m -13,8 C -12,6 C 1,6 km/h (1 Bft) 95,12 %
23.01.2017 07:38 -12,4 C 92 % 1025,8 hPa 0,0 l/m 0,7 km/h (0 Bft) S-SW 198 0 min 0,000 mm 0,0 UV-I 5 W/m -13,4 C -12,4 C 1,6 km/h (1 Bft) 52,38 %
23.01.2017 07:40 -12,4 C 92 % 1025,8 hPa 0,0 l/m 0,5 km/h (0 Bft) S-SW 198 0 min 0,000 mm 0,0 UV-I 7 W/m -13,4 C -12,4 C 1,6 km/h (1 Bft) 100,00 %
23.01.2017 07:42 -12,3 C 92 % 1025,9 hPa 0,0 l/m 0,4 km/h (0 Bft) S-SW 198 0 min 0,000 mm 0,0 UV-I 7 W/m -13,3 C -12,3 C 1,6 km/h (1 Bft) 100,00 %
23.01.2017 07:44 -12,2 C 92 % 1025,8 hPa 0,0 l/m 0,8 km/h (0 Bft) S-SW 198 0 min 0,000 mm 0,0 UV-I 7 W/m -13,2 C -12,2 C 1,6 km/h (1 Bft) 100,00 %
23.01.2017 07:46 -12,1 C 92 % 1025,8 hPa 0,0 l/m 0,1 km/h (0 Bft) S-SW 198 0 min 0,000 mm 0,0 UV-I 9 W/m -13,1 C -12,1 C 1,6 km/h (1 Bft) 100,00 %
23.01.2017 07:48 -12,1 C 92 % 1025,9 hPa 0,0 l/m 0,9 km/h (0 Bft) S-SW 198 0 min 0,000 mm 0,0 UV-I 10 W/m -13,1 C -12,1 C 1,6 km/h (1 Bft) 100,00 %
23.01.2017 07:50 -12,1 C 92 % 1025,9 hPa 0,0 l/m 0,4 km/h (0 Bft) S-SW 198 0 min 0,000 mm 0,0 UV-I 11 W/m -13,1 C -12,1 C 1,6 km/h (1 Bft) 100,00 %
23.01.2017 07:52 -12,1 C 92 % 1025,9 hPa 0,0 l/m 0,0 km/h (0 Bft) S-SW 198 0 min 0,000 mm 0,0 UV-I 12 W/m -13,1 C -12,1 C 0,0 km/h (0 Bft) 98,11 %
23.01.2017 07:54 -12,1 C 92 % 1026,0 hPa 0,0 l/m 0,5 km/h (0 Bft) S-SW 198 2 min 0,000 mm 0,0 UV-I 12 W/m -13,1 C -12,1 C 1,6 km/h (1 Bft) 100,00 %
23.01.2017 07:56 -12,3 C 91 % 1026,0 hPa 0,0 l/m 1,8 km/h (1 Bft) S-SW 198 2 min 0,000 mm 0,0 UV-I 14 W/m -13,5 C -12,3 C 3,2 km/h (1 Bft) 97,87 %
23.01.2017 07:58 -12,5 C 91 % 1025,9 hPa 0,0 l/m 0,7 km/h (0 Bft) S-SW 198 2 min 0,000 mm 0,0 UV-I 16 W/m -13,7 C -12,5 C 1,6 km/h (1 Bft) 86,96 %
23.01.2017 08:00 -12,7 C 90 % 1026,0 hPa 0,0 l/m 0,5 km/h (0 Bft) S-SW 198 2 min 0,000 mm 0,0 UV-I 18 W/m -14,0 C -12,7 C 1,6 km/h (1 Bft) 94,12 %
23.01.2017 08:02 -12,8 C 90 % 1026,0 hPa 0,0 l/m 1,6 km/h (1 Bft) S-SW 198 0 min 0,000 mm 0,0 UV-I 19 W/m -14,1 C -12,8 C 3,2 km/h (1 Bft) 100,00 %
23.01.2017 08:04 -12,9 C 90 % 1026,0 hPa 0,0 l/m 1,6 km/h (1 Bft) S-SW 198 0 min 0,000 mm 0,0 UV-I 20 W/m -14,2 C -12,9 C 1,6 km/h (1 Bft) 97,87 %
23.01.2017 08:06 -12,9 C 91 % 1026,0 hPa 0,0 l/m 2,1 km/h (1 Bft) S-SW 198 0 min 0,000 mm 0,0 UV-I 23 W/m -14,1 C -12,9 C 3,2 km/h (1 Bft) 90,24 %
23.01.2017 08:08 -12,9 C 91 % 1025,9 hPa 0,0 l/m 2,5 km/h (1 Bft) S-SW 198 0 min 0,000 mm 0,0 UV-I 25 W/m -14,1 C -12,9 C 3,2 km/h (1 Bft) 96,23 %
23.01.2017 08:10 -13,0 C 91 % 1025,9 hPa 0,0 l/m 2,8 km/h (1 Bft) S-SW 198 0 min 0,000 mm 0,0 UV-I 27 W/m -14,2 C -13,0 C 3,2 km/h (1 Bft) 97,87 %
23.01.2017 08:12 -12,9 C 91 % 1025,9 hPa 0,0 l/m 2,0 km/h (1 Bft) S-SW 198 0 min 0,000 mm 0,0 UV-I 30 W/m -14,1 C -12,9 C 3,2 km/h (1 Bft) 97,87 %
23.01.2017 08:14 -12,9 C 91 % 1025,9 hPa 0,0 l/m 1,7 km/h (1 Bft) S-SW 198 0 min 0,000 mm 0,0 UV-I 33 W/m -14,1 C -12,9 C 3,2 km/h (1 Bft) 100,00 %
23.01.2017 08:16 -12,9 C 91 % 1025,9 hPa 0,0 l/m 1,4 km/h (1 Bft) S-SW 198 0 min 0,000 mm 0,0 UV-I 35 W/m -14,1 C -12,9 C 3,2 km/h (1 Bft) 97,87 %
23.01.2017 08:18 -12,8 C 91 % 1026,0 hPa 0,0 l/m 0,7 km/h (0 Bft) S-SW 198 0 min 0,000 mm 0,0 UV-I 39 W/m -14,0 C -12,8 C 3,2 km/h (1 Bft) 100,00 %
23.01.2017 08:20 -12,7 C 91 % 1026,0 hPa 0,0 l/m 2,3 km/h (1 Bft) S-SW 198 0 min 0,000 mm 0,0 UV-I 40 W/m -13,9 C -12,7 C 3,2 km/h (1 Bft) 98,00 %
23.01.2017 08:22 -12,6 C 91 % 1026,0 hPa 0,0 l/m 2,3 km/h (1 Bft) S-SW 198 0 min 0,000 mm 0,0 UV-I 42 W/m -13,8 C -12,6 C 3,2 km/h (1 Bft) 100,00 %
23.01.2017 08:24 -12,6 C 91 % 1026,0 hPa 0,0 l/m 2,4 km/h (1 Bft) S-SW 198 0 min 0,000 mm 0,0 UV-I 44 W/m -13,8 C -12,6 C 3,2 km/h (1 Bft) 100,00 %
23.01.2017 08:26 -12,5 C 92 % 1026,0 hPa 0,0 l/m 2,3 km/h (1 Bft) S-SW 198 0 min 0,000 mm 0,0 UV-I 46 W/m -13,5 C -12,5 C 3,2 km/h (1 Bft) 100,00 %
23.01.2017 08:28 -12,3 C 92 % 1026,0 hPa 0,0 l/m 2,9 km/h (1 Bft) S-SW 198 0 min 0,000 mm 0,0 UV-I 44 W/m -13,3 C -12,3 C 3,2 km/h (1 Bft) 100,00 %
23.01.2017 08:30 -12,1 C 92 % 1026,0 hPa 0,0 l/m 2,7 km/h (1 Bft) S-SW 198 0 min 0,000 mm 0,0 UV-I 45 W/m -13,1 C -12,1 C 4,8 km/h (1 Bft) 100,00 %
23.01.2017 08:32 -12,0 C 92 % 1026,0 hPa 0,0 l/m 0,9 km/h (0 Bft) S-SW 198 0 min 0,000 mm 0,0 UV-I 47 W/m -13,0 C -12,0 C 3,2 km/h (1 Bft) 100,00 %
23.01.2017 08:34 -12,1 C 92 % 1026,0 hPa 0,0 l/m 1,3 km/h (1 Bft) S-SW 198 0 min 0,000 mm 0,0 UV-I 49 W/m -13,1 C -12,1 C 3,2 km/h (1 Bft) 97,37 %
23.01.2017 08:36 -12,1 C 92 % 1026,0 hPa 0,0 l/m 1,4 km/h (1 Bft) S-SW 198 0 min 0,000 mm 0,0 UV-I 52 W/m -13,1 C -12,1 C 3,2 km/h (1 Bft) 98,11 %
23.01.2017 08:38 -12,1 C 92 % 1026,0 hPa 0,0 l/m 1,4 km/h (1 Bft) S-SW 198 0 min 0,000 mm 0,0 UV-I 55 W/m -13,1 C -12,1 C 3,2 km/h (1 Bft) 100,00 %
23.01.2017 08:40 -11,9 C 92 % 1026,0 hPa 0,0 l/m 1,2 km/h (1 Bft) S-SW 198 0 min 0,000 mm 0,0 UV-I 59 W/m -12,9 C -11,9 C 1,6 km/h (1 Bft) 100,00 %
23.01.2017 08:42 -11,8 C 92 % 1026,0 hPa 0,0 l/m 2,0 km/h (1 Bft) S-SW 198 0 min 0,000 mm 0,0 UV-I 65 W/m -12,8 C -11,8 C 3,2 km/h (1 Bft) 100,00 %
23.01.2017 08:44 -11,8 C 92 % 1026,0 hPa 0,0 l/m 2,4 km/h (1 Bft) S-SW 198 0 min 0,000 mm 0,0 UV-I 72 W/m -12,8 C -11,8 C 3,2 km/h (1 Bft) 100,00 %
23.01.2017 08:46 -11,6 C 92 % 1026,0 hPa 0,0 l/m 3,1 km/h (1 Bft) S-SW 198 2 min 0,000 mm 0,0 UV-I 79 W/m -12,6 C -11,6 C 4,8 km/h (1 Bft) 98,00 %
23.01.2017 08:48 -11,6 C 92 % 1026,0 hPa 0,0 l/m 2,7 km/h (1 Bft) S-SW 198 2 min 0,000 mm 0,0 UV-I 80 W/m -12,6 C -11,6 C 3,2 km/h (1 Bft) 100,00 %
23.01.2017 08:50 -11,7 C 92 % 1026,0 hPa 0,0 l/m 3,0 km/h (1 Bft) S-SW 198 2 min 0,000 mm 0,0 UV-I 84 W/m -12,7 C -11,7 C 3,2 km/h (1 Bft) 98,11 %
23.01.2017 08:52 -11,8 C 91 % 1026,0 hPa 0,0 l/m 2,9 km/h (1 Bft) S-SW 198 2 min 0,000 mm 0,0 UV-I 88 W/m -13,0 C -11,8 C 3,2 km/h (1 Bft) 97,56 %
23.01.2017 08:54 -11,8 C 91 % 1026,0 hPa 0,0 l/m 3,1 km/h (1 Bft) S-SW 198 2 min 0,000 mm 0,0 UV-I 89 W/m -13,0 C -11,8 C 4,8 km/h (1 Bft) 100,00 %
23.01.2017 08:56 -11,7 C 92 % 1026,0 hPa 0,0 l/m 2,0 km/h (1 Bft) S-SW 198 2 min 0,000 mm 0,0 UV-I 90 W/m -12,7 C -11,7 C 3,2 km/h (1 Bft) 98,00 %
23.01.2017 08:58 -11,7 C 92 % 1026,0 hPa 0,0 l/m 2,4 km/h (1 Bft) S-SW 198 0 min 0,000 mm 0,0 UV-I 91 W/m -12,7 C -11,7 C 3,2 km/h (1 Bft) 100,00 %
23.01.2017 09:00 -11,6 C 92 % 1026,1 hPa 0,0 l/m 2,2 km/h (1 Bft) S-SW 198 2 min 0,000 mm 0,0 UV-I 95 W/m -12,6 C -11,6 C 3,2 km/h (1 Bft) 100,00 %
23.01.2017 09:02 -11,4 C 92 % 1026,1 hPa 0,0 l/m 1,8 km/h (1 Bft) S-SW 198 2 min 0,000 mm 0,0 UV-I 101 W/m -12,4 C -11,4 C 3,2 km/h (1 Bft) 97,87 %
23.01.2017 09:04 -11,3 C 92 % 1026,1 hPa 0,0 l/m 2,3 km/h (1 Bft) S-SW 198 2 min 0,000 mm 0,0 UV-I 105 W/m -12,3 C -11,3 C 3,2 km/h (1 Bft) 96,00 %
23.01.2017 09:06 -11,2 C 92 % 1026,1 hPa 0,0 l/m 2,9 km/h (1 Bft) S-SW 198 2 min 0,000 mm 0,0 UV-I 106 W/m -12,2 C -11,2 C 3,2 km/h (1 Bft) 97,44 %
23.01.2017 09:08 -11,1 C 92 % 1026,1 hPa 0,0 l/m 2,0 km/h (1 Bft) S-SW 198 2 min 0,000 mm 0,0 UV-I 105 W/m -12,1 C -11,1 C 3,2 km/h (1 Bft) 98,00 %
23.01.2017 09:10 -11,0 C 92 % 1026,1 hPa 0,0 l/m 1,7 km/h (1 Bft) S-SW 198 2 min 0,000 mm 0,0 UV-I 108 W/m -12,0 C -11,0 C 3,2 km/h (1 Bft) 98,00 %
23.01.2017 09:12 -10,9 C 92 % 1026,1 hPa 0,0 l/m 1,2 km/h (1 Bft) S-SW 198 2 min 0,000 mm 0,0 UV-I 110 W/m -11,9 C -10,9 C 3,2 km/h (1 Bft) 92,00 %
23.01.2017 09:14 -10,8 C 92 % 1026,1 hPa 0,0 l/m 0,7 km/h (0 Bft) S-SW 198 2 min 0,000 mm 0,0 UV-I 112 W/m -11,8 C -10,8 C 3,2 km/h (1 Bft) 97,87 %
23.01.2017 09:16 -10,8 C 92 % 1026,1 hPa 0,0 l/m 0,8 km/h (0 Bft) S-SW 198 2 min 0,000 mm 0,0 UV-I 116 W/m -11,8 C -10,8 C 1,6 km/h (1 Bft) 94,74 %
23.01.2017 09:18 -10,7 C 92 % 1026,1 hPa 0,0 l/m 1,0 km/h (0 Bft) S-SW 198 2 min 0,000 mm 0,0 UV-I 124 W/m -11,7 C -10,7 C 3,2 km/h (1 Bft) 98,11 %
23.01.2017 09:20 -10,6 C 92 % 1026,1 hPa 0,0 l/m 0,2 km/h (0 Bft) S-SW 198 2 min 0,000 mm 0,0 UV-I 129 W/m -11,6 C -10,6 C 1,6 km/h (1 Bft) 97,87 %
23.01.2017 09:22 -10,4 C 93 % 1026,1 hPa 0,0 l/m 2,0 km/h (1 Bft) S-SW 198 2 min 0,000 mm 0,0 UV-I 129 W/m -11,3 C -10,4 C 3,2 km/h (1 Bft) 98,11 %
23.01.2017 09:24 -10,4 C 93 % 1026,1 hPa 0,0 l/m 2,5 km/h (1 Bft) S-SW 198 2 min 0,000 mm 0,0 UV-I 129 W/m -11,3 C -10,4 C 3,2 km/h (1 Bft) 97,56 %
23.01.2017 09:26 -10,3 C 93 % 1026,1 hPa 0,0 l/m 1,9 km/h (1 Bft) S-SW 198 2 min 0,000 mm 0,0 UV-I 135 W/m -11,2 C -10,3 C 3,2 km/h (1 Bft) 98,00 %
23.01.2017 09:28 -10,2 C 93 % 1026,1 hPa 0,0 l/m 0,8 km/h (0 Bft) S-SW 198 2 min 0,000 mm 0,0 UV-I 136 W/m -11,1 C -10,2 C 3,2 km/h (1 Bft) 94,74 %
23.01.2017 09:30 -10,1 C 93 % 1026,1 hPa 0,0 l/m 1,6 km/h (1 Bft) S-SW 198 2 min 0,000 mm 0,0 UV-I 137 W/m -11,0 C -10,1 C 3,2 km/h (1 Bft) 98,00 %
23.01.2017 09:32 -10,1 C 93 % 1026,0 hPa 0,0 l/m 0,8 km/h (0 Bft) S-SW 198 2 min 0,000 mm 0,0 UV-I 143 W/m -11,0 C -10,1 C 1,6 km/h (1 Bft) 98,11 %
23.01.2017 09:34 -10,0 C 93 % 1026,1 hPa 0,0 l/m 2,9 km/h (1 Bft) S-SW 198 2 min 0,000 mm 0,0 UV-I 151 W/m -10,9 C -10,0 C 4,8 km/h (1 Bft) 100,00 %
23.01.2017 09:36 -10,0 C 93 % 1026,1 hPa 0,0 l/m 3,0 km/h (1 Bft) S-SW 198 2 min 0,000 mm 0,0 UV-I 155 W/m -10,9 C -10,0 C 4,8 km/h (1 Bft) 98,00 %
23.01.2017 09:38 -9,9 C 93 % 1026,1 hPa 0,0 l/m 3,2 km/h (1 Bft) S-SW 198 2 min 0,000 mm 0,0 UV-I 166 W/m -10,8 C -9,9 C 4,8 km/h (1 Bft) 100,00 %
23.01.2017 09:40 -9,9 C 93 % 1026,1 hPa 0,0 l/m 2,4 km/h (1 Bft) S-SW 198 2 min 0,000 mm 0,0 UV-I 170 W/m -10,8 C -9,9 C 3,2 km/h (1 Bft) 96,00 %
23.01.2017 09:42 -9,9 C 93 % 1026,1 hPa 0,0 l/m 2,8 km/h (1 Bft) S-SW 198 2 min 0,000 mm 0,0 UV-I 172 W/m -10,8 C -9,9 C 4,8 km/h (1 Bft) 100,00 %
23.01.2017 09:44 -9,9 C 93 % 1026,2 hPa 0,0 l/m 2,9 km/h (1 Bft) S-SW 198 2 min 0,000 mm 0,0 UV-I 173 W/m -10,8 C -9,9 C 4,8 km/h (1 Bft) 100,00 %
23.01.2017 09:46 -9,8 C 93 % 1026,2 hPa 0,0 l/m 2,4 km/h (1 Bft) S-SW 198 2 min 0,000 mm 0,0 UV-I 178 W/m -10,7 C -9,8 C 3,2 km/h (1 Bft) 100,00 %
23.01.2017 09:48 -9,8 C 93 % 1026,2 hPa 0,0 l/m 2,1 km/h (1 Bft) S-SW 198 2 min 0,000 mm 0,0 UV-I 179 W/m -10,7 C -9,8 C 3,2 km/h (1 Bft) 100,00 %
23.01.2017 09:50 -9,8 C 93 % 1026,2 hPa 0,0 l/m 1,1 km/h (1 Bft) S-SW 198 2 min 0,000 mm 0,0 UV-I 186 W/m -10,7 C -9,8 C 3,2 km/h (1 Bft) 100,00 %
23.01.2017 09:52 -9,8 C 93 % 1026,2 hPa 0,0 l/m 2,1 km/h (1 Bft) S-SW 198 2 min 0,000 mm 0,0 UV-I 191 W/m -10,7 C -9,8 C 3,2 km/h (1 Bft) 100,00 %
23.01.2017 09:54 -9,7 C 93 % 1026,3 hPa 0,0 l/m 1,8 km/h (1 Bft) S-SW 198 2 min 0,000 mm 0,0 UV-I 195 W/m -10,6 C -9,7 C 3,2 km/h (1 Bft) 98,00 %
23.01.2017 09:56 -9,6 C 93 % 1026,3 hPa 0,0 l/m 1,4 km/h (1 Bft) S-SW 198 2 min 0,000 mm 0,0 UV-I 199 W/m -10,5 C -9,6 C 3,2 km/h (1 Bft) 98,00 %
23.01.2017 09:58 -9,4 C 93 % 1026,3 hPa 0,0 l/m 1,6 km/h (1 Bft) S-SW 198 2 min 0,000 mm 0,0 UV-I 202 W/m -10,3 C -9,4 C 3,2 km/h (1 Bft) 100,00 %
23.01.2017 10:00 -9,3 C 93 % 1026,3 hPa 0,0 l/m 1,0 km/h (0 Bft) S-SW 198 2 min 0,000 mm 0,0 UV-I 207 W/m -10,2 C -9,3 C 1,6 km/h (1 Bft) 100,00 %
23.01.2017 10:02 -9,3 C 93 % 1026,3 hPa 0,0 l/m 1,4 km/h (1 Bft) S-SW 198 2 min 0,025 mm 0,0 UV-I 209 W/m -10,2 C -9,3 C 3,2 km/h (1 Bft) 95,74 %
23.01.2017 10:04 -9,3 C 93 % 1026,3 hPa 0,0 l/m 1,5 km/h (1 Bft) S-SW 198 2 min 0,000 mm 0,0 UV-I 215 W/m -10,2 C -9,3 C 3,2 km/h (1 Bft) 100,00 %
23.01.2017 10:06 -9,3 C 93 % 1026,3 hPa 0,0 l/m 1,9 km/h (1 Bft) S-SW 198 2 min 0,000 mm 0,0 UV-I 218 W/m -10,2 C -9,3 C 3,2 km/h (1 Bft) 100,00 %
23.01.2017 10:08 -9,2 C 93 % 1026,3 hPa 0,0 l/m 1,2 km/h (1 Bft) S-SW 198 2 min 0,000 mm 0,0 UV-I 221 W/m -10,1 C -9,2 C 3,2 km/h (1 Bft) 100,00 %
23.01.2017 10:10 -9,1 C 93 % 1026,2 hPa 0,0 l/m 0,2 km/h (0 Bft) S-SW 198 2 min 0,000 mm 0,0 UV-I 227 W/m -10,0 C -9,1 C 1,6 km/h (1 Bft) 94,74 %
23.01.2017 10:12 -9,1 C 93 % 1026,3 hPa 0,0 l/m 1,6 km/h (1 Bft) S-SW 198 2 min 0,000 mm 0,0 UV-I 230 W/m -10,0 C -9,1 C 3,2 km/h (1 Bft) 97,87 %
23.01.2017 10:14 -9,0 C 93 % 1026,3 hPa 0,0 l/m 1,6 km/h (1 Bft) S-SW 198 2 min 0,000 mm 0,0 UV-I 234 W/m -9,9 C -9,0 C 3,2 km/h (1 Bft) 100,00 %
23.01.2017 10:16 -8,9 C 93 % 1026,3 hPa 0,0 l/m 1,0 km/h (0 Bft) S-SW 198 2 min 0,000 mm 0,0 UV-I 240 W/m -9,8 C -8,9 C 1,6 km/h (1 Bft) 100,00 %
23.01.2017 10:18 -8,9 C 93 % 1026,2 hPa 0,0 l/m 0,6 km/h (0 Bft) S-SW 198 2 min 0,000 mm 0,0 UV-I 241 W/m -9,8 C -8,9 C 1,6 km/h (1 Bft) 100,00 %
23.01.2017 10:20 -8,8 C 93 % 1026,3 hPa 0,0 l/m 1,1 km/h (1 Bft) S-SW 198 2 min 0,000 mm 0,0 UV-I 244 W/m -9,7 C -8,8 C 3,2 km/h (1 Bft) 96,23 %
23.01.2017 10:22 -8,8 C 93 % 1026,3 hPa 0,0 l/m 1,3 km/h (1 Bft) S-SW 198 2 min 0,000 mm 0,4 UV-I 249 W/m -9,7 C -8,8 C 1,6 km/h (1 Bft) 98,00 %
23.01.2017 10:24 -8,8 C 93 % 1026,4 hPa 0,0 l/m 1,2 km/h (1 Bft) S-SW 198 2 min 0,000 mm 0,5 UV-I 251 W/m -9,7 C -8,8 C 1,6 km/h (1 Bft) 100,00 %
23.01.2017 10:26 -8,7 C 93 % 1026,4 hPa 0,0 l/m 1,3 km/h (1 Bft) S-SW 198 2 min 0,000 mm 0,5 UV-I 253 W/m -9,6 C -8,7 C 3,2 km/h (1 Bft) 100,00 %
23.01.2017 10:28 -8,7 C 93 % 1026,4 hPa 0,0 l/m 0,0 km/h (0 Bft) S-SW 198 2 min 0,000 mm 0,5 UV-I 254 W/m -9,6 C -8,7 C 0,0 km/h (0 Bft) 97,22 %
23.01.2017 10:30 -8,7 C 93 % 1026,4 hPa 0,0 l/m 0,0 km/h (0 Bft) S-SW 198 2 min 0,000 mm 0,5 UV-I 265 W/m -9,6 C -8,7 C 0,0 km/h (0 Bft) 100,00 %
23.01.2017 10:32 -8,6 C 93 % 1026,4 hPa 0,0 l/m 0,0 km/h (0 Bft) S-SW 198 2 min 0,000 mm 0,5 UV-I 278 W/m -9,5 C -8,6 C 0,0 km/h (0 Bft) 98,00 %
23.01.2017 10:34 -8,4 C 94 % 1026,4 hPa 0,0 l/m 0,0 km/h (0 Bft) S-SW 198 2 min 0,000 mm 0,5 UV-I 303 W/m -9,2 C -8,4 C 0,0 km/h (0 Bft) 98,00 %
23.01.2017 10:36 -8,4 C 94 % 1026,3 hPa 0,0 l/m 0,0 km/h (0 Bft) S-SW 198 2 min 0,000 mm 0,5 UV-I 329 W/m -9,2 C -8,4 C 0,0 km/h (0 Bft) 98,00 %
23.01.2017 10:38 -8,3 C 94 % 1026,3 hPa 0,0 l/m 0,0 km/h (0 Bft) S-SW 198 2 min 0,000 mm 0,5 UV-I 337 W/m -9,1 C -8,3 C 0,0 km/h (0 Bft) 95,74 %
23.01.2017 10:40 -8,2 C 94 % 1026,3 hPa 0,0 l/m 0,0 km/h (0 Bft) S-SW 198 2 min 0,000 mm 0,6 UV-I 338 W/m -9,0 C -8,2 C 0,0 km/h (0 Bft) 97,87 %
23.01.2017 10:42 -8,2 C 94 % 1026,3 hPa 0,0 l/m 0,0 km/h (0 Bft) S-SW 198 2 min 0,000 mm 0,6 UV-I 328 W/m -9,0 C -8,2 C 0,0 km/h (0 Bft) 97,37 %
23.01.2017 10:44 -8,2 C 94 % 1026,3 hPa 0,0 l/m 0,0 km/h (0 Bft) S-SW 198 2 min 0,000 mm 0,6 UV-I 325 W/m -9,0 C -8,2 C 0,0 km/h (0 Bft) 97,87 %
23.01.2017 10:46 -8,1 C 94 % 1026,3 hPa 0,0 l/m 0,0 km/h (0 Bft) S-SW 198 2 min 0,000 mm 0,6 UV-I 307 W/m -8,9 C -8,1 C 0,0 km/h (0 Bft) 95,74 %
23.01.2017 10:48 -8,0 C 94 % 1026,3 hPa 0,0 l/m 0,0 km/h (0 Bft) S-SW 198 2 min 0,000 mm 0,6 UV-I 303 W/m -8,8 C -8,0 C 0,0 km/h (0 Bft) 96,23 %
23.01.2017 10:50 -8,1 C 93 % 1026,3 hPa 0,0 l/m 0,0 km/h (0 Bft) S-SW 198 2 min 0,000 mm 0,6 UV-I 298 W/m -9,0 C -8,1 C 1,6 km/h (1 Bft) 97,56 %
23.01.2017 10:52 -8,1 C 93 % 1026,3 hPa 0,0 l/m 0,2 km/h (0 Bft) S-SW 198 2 min 0,000 mm 0,6 UV-I 302 W/m -9,0 C -8,1 C 1,6 km/h (1 Bft) 100,00 %
23.01.2017 10:54 -8,1 C 94 % 1026,3 hPa 0,0 l/m 0,0 km/h (0 Bft) S-SW 198 2 min 0,000 mm 0,6 UV-I 302 W/m -8,9 C -8,1 C 1,6 km/h (1 Bft) 100,00 %
23.01.2017 10:56 -8,0 C 93 % 1026,3 hPa 0,0 l/m 0,1 km/h (0 Bft) S-SW 198 2 min 0,000 mm 0,6 UV-I 306 W/m -8,9 C -8,0 C 1,6 km/h (1 Bft) 100,00 %
23.01.2017 10:58 -7,9 C 94 % 1026,3 hPa 0,0 l/m 0,0 km/h (0 Bft) S-SW 198 2 min 0,000 mm 0,6 UV-I 308 W/m -8,7 C -7,9 C 0,0 km/h (0 Bft) 100,00 %
23.01.2017 11:00 -7,8 C 94 % 1026,3 hPa 0,0 l/m 0,1 km/h (0 Bft) S-SW 198 2 min 0,051 mm 0,7 UV-I 308 W/m -8,6 C -7,8 C 1,6 km/h (1 Bft) 100,00 %
23.01.2017 11:02 -7,8 C 94 % 1026,3 hPa 0,0 l/m 0,0 km/h (0 Bft) S-SW 198 2 min 0,000 mm 0,7 UV-I 304 W/m -8,6 C -7,8 C 1,6 km/h (1 Bft) 100,00 %
23.01.2017 11:04 -7,7 C 94 % 1026,3 hPa 0,0 l/m 0,0 km/h (0 Bft) S-SW 198 2 min 0,000 mm 0,7 UV-I 309 W/m -8,5 C -7,7 C 0,0 km/h (0 Bft) 100,00 %
23.01.2017 11:06 -7,6 C 94 % 1026,3 hPa 0,0 l/m 0,0 km/h (0 Bft) S-SW 198 2 min 0,000 mm 0,7 UV-I 315 W/m -8,4 C -7,6 C 1,6 km/h (1 Bft) 100,00 %
23.01.2017 11:08 -7,5 C 94 % 1026,2 hPa 0,0 l/m 0,1 km/h (0 Bft) S-SW 198 2 min 0,000 mm 0,7 UV-I 309 W/m -8,3 C -7,5 C 1,6 km/h (1 Bft) 98,08 %
23.01.2017 11:10 -7,5 C 94 % 1026,3 hPa 0,0 l/m 0,2 km/h (0 Bft) S-SW 198 2 min 0,000 mm 0,7 UV-I 317 W/m -8,3 C -7,5 C 1,6 km/h (1 Bft) 100,00 %
23.01.2017 11:12 -7,4 C 93 % 1026,2 hPa 0,0 l/m 0,3 km/h (0 Bft) S-SW 198 2 min 0,000 mm 0,7 UV-I 312 W/m -8,3 C -7,4 C 1,6 km/h (1 Bft) 100,00 %
23.01.2017 11:14 -7,5 C 93 % 1026,2 hPa 0,0 l/m 0,2 km/h (0 Bft) S-SW 198 2 min 0,000 mm 0,7 UV-I 323 W/m -8,4 C -7,5 C 1,6 km/h (1 Bft) 98,00 %
23.01.2017 11:16 -7,4 C 94 % 1026,2 hPa 0,0 l/m 0,0 km/h (0 Bft) S-SW 198 2 min 0,000 mm 0,7 UV-I 319 W/m -8,2 C -7,4 C 1,6 km/h (1 Bft) 97,37 %
23.01.2017 11:18 -7,3 C 94 % 1026,2 hPa 0,0 l/m 0,0 km/h (0 Bft) S-SW 198 2 min 0,000 mm 0,7 UV-I 320 W/m -8,1 C -7,3 C 1,6 km/h (1 Bft) 100,00 %
23.01.2017 11:20 -7,3 C 93 % 1026,1 hPa 0,0 l/m 0,0 km/h (0 Bft) S-SW 198 2 min 0,000 mm 0,7 UV-I 326 W/m -8,2 C -7,3 C 1,6 km/h (1 Bft) 100,00 %
23.01.2017 11:22 -7,2 C 93 % 1026,1 hPa 0,0 l/m 0,0 km/h (0 Bft) S-SW 198 2 min 0,000 mm 0,7 UV-I 321 W/m -8,1 C -7,2 C 0,0 km/h (0 Bft) 100,00 %
23.01.2017 11:24 -7,2 C 93 % 1026,1 hPa 0,0 l/m 0,0 km/h (0 Bft) S-SW 198 2 min 0,000 mm 0,7 UV-I 321 W/m -8,1 C -7,2 C 1,6 km/h (1 Bft) 100,00 %
23.01.2017 11:26 -7,1 C 93 % 1026,0 hPa 0,0 l/m 0,1 km/h (0 Bft) S-SW 198 2 min 0,000 mm 0,8 UV-I 327 W/m -8,0 C -7,1 C 1,6 km/h (1 Bft) 100,00 %
23.01.2017 11:28 -7,2 C 93 % 1026,0 hPa 0,0 l/m 0,0 km/h (0 Bft) S-SW 198 2 min 0,000 mm 0,8 UV-I 326 W/m -8,1 C -7,2 C 1,6 km/h (1 Bft) 100,00 %
23.01.2017 11:30 -7,2 C 92 % 1026,0 hPa 0,0 l/m 0,5 km/h (0 Bft) S-SW 198 2 min 0,000 mm 0,8 UV-I 330 W/m -8,3 C -7,2 C 1,6 km/h (1 Bft) 100,00 %
23.01.2017 11:32 -7,1 C 93 % 1026,0 hPa 0,0 l/m 0,1 km/h (0 Bft) S-SW 198 2 min 0,000 mm 0,8 UV-I 326 W/m -8,0 C -7,1 C 1,6 km/h (1 Bft) 100,00 %
23.01.2017 11:34 -7,0 C 92 % 1026,0 hPa 0,0 l/m 0,3 km/h (0 Bft) S-SW 198 2 min 0,000 mm 0,8 UV-I 333 W/m -8,1 C -7,0 C 1,6 km/h (1 Bft) 98,11 %
23.01.2017 11:36 -7,0 C 92 % 1025,9 hPa 0,0 l/m 1,1 km/h (1 Bft) S-SW 198 2 min 0,000 mm 0,8 UV-I 331 W/m -8,1 C -7,0 C 3,2 km/h (1 Bft) 100,00 %
23.01.2017 11:38 -7,1 C 91 % 1026,0 hPa 0,0 l/m 0,2 km/h (0 Bft) S-SW 198 2 min 0,000 mm 0,8 UV-I 342 W/m -8,3 C -7,1 C 1,6 km/h (1 Bft) 98,00 %
23.01.2017 11:40 -6,9 C 92 % 1026,0 hPa 0,0 l/m 0,1 km/h (0 Bft) S-SW 198 2 min 0,000 mm 0,8 UV-I 339 W/m -8,0 C -6,9 C 1,6 km/h (1 Bft) 97,87 %
23.01.2017 11:42 -6,9 C 91 % 1026,0 hPa 0,0 l/m 0,2 km/h (0 Bft) S-SW 198 2 min 0,000 mm 0,8 UV-I 340 W/m -8,1 C -6,9 C 1,6 km/h (1 Bft) 98,11 %
23.01.2017 11:44 -6,8 C 91 % 1026,0 hPa 0,0 l/m 0,0 km/h (0 Bft) S-SW 198 2 min 0,000 mm 0,8 UV-I 328 W/m -8,0 C -6,8 C 1,6 km/h (1 Bft) 97,87 %
23.01.2017 11:46 -6,8 C 91 % 1026,0 hPa 0,0 l/m 0,5 km/h (0 Bft) S-SW 198 2 min 0,000 mm 0,8 UV-I 333 W/m -8,0 C -6,8 C 3,2 km/h (1 Bft) 97,92 %
23.01.2017 11:48 -6,8 C 91 % 1026,0 hPa 0,0 l/m 2,2 km/h (1 Bft) S-SW 198 2 min 0,000 mm 0,8 UV-I 338 W/m -8,0 C -6,8 C 4,8 km/h (1 Bft) 95,92 %
23.01.2017 11:50 -6,7 C 91 % 1026,0 hPa 0,0 l/m 3,1 km/h (1 Bft) S-SW 198 2 min 0,000 mm 0,8 UV-I 345 W/m -7,9 C -6,7 C 4,8 km/h (1 Bft) 100,00 %
23.01.2017 11:52 -6,7 C 90 % 1026,0 hPa 0,0 l/m 2,9 km/h (1 Bft) S-SW 198 2 min 0,000 mm 0,8 UV-I 337 W/m -8,1 C -6,7 C 4,8 km/h (1 Bft) 96,08 %
23.01.2017 11:54 -6,7 C 90 % 1026,0 hPa 0,0 l/m 3,0 km/h (1 Bft) S-SW 198 2 min 0,000 mm 0,8 UV-I 341 W/m -8,1 C -6,7 C 4,8 km/h (1 Bft) 92,45 %
23.01.2017 11:56 -6,6 C 90 % 1025,9 hPa 0,0 l/m 2,9 km/h (1 Bft) S-SW 198 2 min 0,000 mm 0,8 UV-I 336 W/m -8,0 C -6,6 C 4,8 km/h (1 Bft) 100,00 %
23.01.2017 11:58 -6,5 C 89 % 1025,9 hPa 0,0 l/m 3,7 km/h (1 Bft) S-SW 198 2 min 0,000 mm 0,8 UV-I 336 W/m -8,0 C -6,5 C 4,8 km/h (1 Bft) 100,00 %
23.01.2017 12:00 -6,5 C 89 % 1025,8 hPa 0,0 l/m 2,3 km/h (1 Bft) S-SW 198 2 min 0,076 mm 0,8 UV-I 339 W/m -8,0 C -6,5 C 4,8 km/h (1 Bft) 98,00 %
23.01.2017 12:02 -6,5 C 89 % 1025,8 hPa 0,0 l/m 2,7 km/h (1 Bft) S-SW 198 2 min 0,000 mm 0,8 UV-I 328 W/m -8,0 C -6,5 C 4,8 km/h (1 Bft) 100,00 %
23.01.2017 12:04 -6,4 C 89 % 1025,8 hPa 0,0 l/m 2,5 km/h (1 Bft) S-SW 198 2 min 0,000 mm 0,8 UV-I 344 W/m -7,9 C -6,4 C 3,2 km/h (1 Bft) 100,00 %
23.01.2017 12:06 -6,4 C 89 % 1025,8 hPa 0,0 l/m 2,4 km/h (1 Bft) S-SW 198 2 min 0,000 mm 0,8 UV-I 333 W/m -7,9 C -6,4 C 4,8 km/h (1 Bft) 100,00 %
23.01.2017 12:08 -6,3 C 88 % 1025,7 hPa 0,0 l/m 2,4 km/h (1 Bft) S-SW 198 2 min 0,000 mm 0,8 UV-I 340 W/m -8,0 C -6,3 C 3,2 km/h (1 Bft) 100,00 %
23.01.2017 12:10 -6,2 C 88 % 1025,8 hPa 0,0 l/m 2,1 km/h (1 Bft) S-SW 197 2 min 0,000 mm 0,8 UV-I 339 W/m -7,9 C -6,2 C 4,8 km/h (1 Bft) 97,87 %
23.01.2017 12:12 -6,2 C 88 % 1025,8 hPa 0,0 l/m 2,4 km/h (1 Bft) S-SW 197 2 min 0,000 mm 0,8 UV-I 341 W/m -7,9 C -6,2 C 3,2 km/h (1 Bft) 100,00 %
23.01.2017 12:14 -6,2 C 88 % 1025,7 hPa 0,0 l/m 2,7 km/h (1 Bft) S-SW 197 2 min 0,000 mm 0,8 UV-I 347 W/m -7,9 C -6,2 C 3,2 km/h (1 Bft) 100,00 %
23.01.2017 12:16 -6,2 C 88 % 1025,7 hPa 0,0 l/m 0,7 km/h (0 Bft) S-SW 197 2 min 0,000 mm 0,8 UV-I 346 W/m -7,9 C -6,2 C 3,2 km/h (1 Bft) 100,00 %
23.01.2017 12:18 -6,2 C 87 % 1025,7 hPa 0,0 l/m 1,0 km/h (0 Bft) S-SW 197 2 min 0,000 mm 0,8 UV-I 349 W/m -8,0 C -6,2 C 3,2 km/h (1 Bft) 100,00 %
23.01.2017 12:20 -6,2 C 87 % 1025,7 hPa 0,0 l/m 1,0 km/h (0 Bft) S-SW 197 2 min 0,000 mm 0,8 UV-I 345 W/m -8,0 C -6,2 C 3,2 km/h (1 Bft) 100,00 %
23.01.2017 12:22 -6,2 C 87 % 1025,6 hPa 0,0 l/m 2,3 km/h (1 Bft) S-SW 194 2 min 0,000 mm 0,8 UV-I 352 W/m -8,0 C -6,2 C 4,8 km/h (1 Bft) 100,00 %
23.01.2017 12:24 -6,1 C 87 % 1025,6 hPa 0,0 l/m 1,8 km/h (1 Bft) S-SW 194 2 min 0,000 mm 0,8 UV-I 351 W/m -7,9 C -6,1 C 3,2 km/h (1 Bft) 100,00 %
23.01.2017 12:26 -6,1 C 87 % 1025,6 hPa 0,0 l/m 0,4 km/h (0 Bft) S-SW 194 2 min 0,000 mm 0,8 UV-I 354 W/m -7,9 C -6,1 C 3,2 km/h (1 Bft) 98,00 %
23.01.2017 12:28 -5,9 C 87 % 1025,5 hPa 0,0 l/m 1,3 km/h (1 Bft) S-SW 194 2 min 0,000 mm 0,8 UV-I 357 W/m -7,7 C -5,9 C 3,2 km/h (1 Bft) 100,00 %
23.01.2017 12:30 -5,9 C 87 % 1025,6 hPa 0,0 l/m 0,7 km/h (0 Bft) S-SW 194 2 min 0,000 mm 0,8 UV-I 356 W/m -7,7 C -5,9 C 4,8 km/h (1 Bft) 100,00 %
23.01.2017 12:32 -5,9 C 87 % 1025,6 hPa 0,0 l/m 1,7 km/h (1 Bft) S-SW 194 2 min 0,000 mm 0,8 UV-I 358 W/m -7,7 C -5,9 C 4,8 km/h (1 Bft) 100,00 %
23.01.2017 12:34 -5,8 C 87 % 1025,6 hPa 0,0 l/m 1,3 km/h (1 Bft) S-SW 194 2 min 0,000 mm 0,8 UV-I 354 W/m -7,6 C -5,8 C 3,2 km/h (1 Bft) 97,37 %
23.01.2017 12:36 -5,8 C 86 % 1025,5 hPa 0,0 l/m 1,9 km/h (1 Bft) S-SW 194 2 min 0,000 mm 0,8 UV-I 354 W/m -7,8 C -5,8 C 4,8 km/h (1 Bft) 100,00 %
23.01.2017 12:38 -5,8 C 86 % 1025,5 hPa 0,0 l/m 1,1 km/h (1 Bft) S-SW 194 2 min 0,000 mm 0,8 UV-I 355 W/m -7,8 C -5,8 C 3,2 km/h (1 Bft) 100,00 %
23.01.2017 12:40 -5,9 C 86 % 1025,5 hPa 0,0 l/m 1,0 km/h (0 Bft) S-SW 194 2 min 0,000 mm 0,8 UV-I 354 W/m -7,9 C -5,9 C 3,2 km/h (1 Bft) 96,00 %
23.01.2017 12:42 -5,8 C 86 % 1025,5 hPa 0,0 l/m 2,7 km/h (1 Bft) O-NO 65 2 min 0,000 mm 0,8 UV-I 356 W/m -7,8 C -5,8 C 6,4 km/h (2 Bft) 98,00 %
23.01.2017 12:44 -5,6 C 87 % 1025,4 hPa 0,0 l/m 5,1 km/h (1 Bft) NO 44 2 min 0,000 mm 0,8 UV-I 358 W/m -7,4 C -5,6 C 8,0 km/h (2 Bft) 97,37 %
23.01.2017 12:46 -5,4 C 86 % 1025,4 hPa 0,0 l/m 4,7 km/h (1 Bft) O-NO 57 2 min 0,000 mm 0,8 UV-I 358 W/m -7,4 C -5,4 C 8,0 km/h (2 Bft) 98,11 %
23.01.2017 12:48 -5,4 C 86 % 1025,3 hPa 0,0 l/m 5,2 km/h (1 Bft) NO 50 2 min 0,000 mm 0,8 UV-I 359 W/m -7,4 C -5,4 C 8,0 km/h (2 Bft) 96,00 %
23.01.2017 12:50 -5,3 C 85 % 1025,4 hPa 0,0 l/m 5,2 km/h (1 Bft) NO 48 2 min 0,000 mm 0,8 UV-I 361 W/m -7,4 C -5,3 C 6,4 km/h (2 Bft) 97,37 %
23.01.2017 12:52 -5,3 C 85 % 1025,3 hPa 0,0 l/m 4,6 km/h (1 Bft) NO 47 2 min 0,000 mm 0,8 UV-I 357 W/m -7,4 C -5,3 C 6,4 km/h (2 Bft) 97,87 %
23.01.2017 12:54 -5,3 C 85 % 1025,3 hPa 0,0 l/m 4,8 km/h (1 Bft) NO 45 2 min 0,000 mm 0,8 UV-I 358 W/m -7,4 C -5,3 C 6,4 km/h (2 Bft) 97,87 %
23.01.2017 12:56 -5,3 C 85 % 1025,4 hPa 0,0 l/m 5,3 km/h (1 Bft) NO 44 2 min 0,000 mm 0,8 UV-I 356 W/m -7,4 C -5,3 C 8,0 km/h (2 Bft) 93,62 %
23.01.2017 12:58 -5,2 C 84 % 1025,4 hPa 0,0 l/m 4,9 km/h (1 Bft) NO 44 2 min 0,000 mm 0,8 UV-I 358 W/m -7,5 C -5,2 C 6,4 km/h (2 Bft) 100,00 %
23.01.2017 13:00 -5,2 C 84 % 1025,4 hPa 0,0 l/m 4,5 km/h (1 Bft) NO 44 2 min 0,102 mm 0,8 UV-I 359 W/m -7,5 C -5,2 C 6,4 km/h (2 Bft) 100,00 %
23.01.2017 13:02 -5,2 C 84 % 1025,4 hPa 0,0 l/m 5,1 km/h (1 Bft) NO 44 2 min 0,000 mm 0,8 UV-I 354 W/m -7,5 C -5,2 C 6,4 km/h (2 Bft) 100,00 %
23.01.2017 13:04 -5,3 C 84 % 1025,3 hPa 0,2 l/m 4,8 km/h (1 Bft) NO 44 2 min 0,000 mm 0,8 UV-I 352 W/m -7,6 C -5,3 C 6,4 km/h (2 Bft) 97,62 %
23.01.2017 13:06 -5,3 C 84 % 1025,3 hPa 0,0 l/m 4,3 km/h (1 Bft) NO 44 2 min 0,000 mm 0,8 UV-I 351 W/m -7,6 C -5,3 C 6,4 km/h (2 Bft) 100,00 %
23.01.2017 13:08 -5,3 C 84 % 1025,3 hPa 0,0 l/m 5,0 km/h (1 Bft) NO 46 2 min 0,000 mm 0,8 UV-I 351 W/m -7,6 C -5,3 C 6,4 km/h (2 Bft) 98,00 %
23.01.2017 13:10 -5,2 C 84 % 1025,2 hPa 0,0 l/m 4,1 km/h (1 Bft) NO 47 2 min 0,000 mm 0,8 UV-I 351 W/m -7,5 C -5,2 C 6,4 km/h (2 Bft) 100,00 %
23.01.2017 13:12 -5,1 C 84 % 1025,1 hPa 0,0 l/m 4,9 km/h (1 Bft) NO 49 2 min 0,000 mm 0,8 UV-I 351 W/m -7,4 C -5,1 C 6,4 km/h (2 Bft) 100,00 %
23.01.2017 13:14 -5,1 C 84 % 1025,1 hPa 0,0 l/m 5,2 km/h (1 Bft) NO 56 2 min 0,000 mm 0,8 UV-I 347 W/m -7,4 C -5,1 C 8,0 km/h (2 Bft) 100,00 %
23.01.2017 13:16 -5,1 C 83 % 1025,0 hPa 0,0 l/m 5,3 km/h (1 Bft) NO 56 2 min 0,000 mm 0,8 UV-I 344 W/m -7,5 C -5,1 C 6,4 km/h (2 Bft) 100,00 %
23.01.2017 13:18 -5,1 C 83 % 1025,0 hPa 0,0 l/m 4,6 km/h (1 Bft) NO 55 2 min 0,000 mm 0,7 UV-I 343 W/m -7,5 C -5,1 C 6,4 km/h (2 Bft) 100,00 %
23.01.2017 13:20 -5,1 C 83 % 1025,0 hPa 0,0 l/m 4,1 km/h (1 Bft) NO 55 2 min 0,000 mm 0,7 UV-I 342 W/m -7,5 C -5,1 C 4,8 km/h (1 Bft) 100,00 %
23.01.2017 13:22 -5,1 C 83 % 1025,0 hPa 0,0 l/m 5,6 km/h (1 Bft) NO 53 2 min 0,000 mm 0,7 UV-I 341 W/m -7,5 C -5,1 C 6,4 km/h (2 Bft) 100,00 %
23.01.2017 13:24 -5,2 C 83 % 1025,0 hPa 0,0 l/m 5,0 km/h (1 Bft) NO 52 2 min 0,000 mm 0,7 UV-I 338 W/m -7,6 C -5,2 C 8,0 km/h (2 Bft) 100,00 %
23.01.2017 13:26 -5,2 C 84 % 1025,0 hPa 0,0 l/m 5,8 km/h (2 Bft) NO 51 2 min 0,000 mm 0,7 UV-I 335 W/m -7,5 C -5,2 C 8,0 km/h (2 Bft) 97,87 %
23.01.2017 13:28 -5,2 C 84 % 1025,0 hPa 0,0 l/m 4,9 km/h (1 Bft) NO 51 2 min 0,000 mm 0,7 UV-I 330 W/m -7,5 C -5,2 C 6,4 km/h (2 Bft) 100,00 %
23.01.2017 13:30 -5,2 C 84 % 1024,9 hPa 0,0 l/m 5,1 km/h (1 Bft) NO 51 2 min 0,000 mm 0,7 UV-I 325 W/m -7,5 C -5,2 C 6,4 km/h (2 Bft) 100,00 %
23.01.2017 13:32 -5,2 C 83 % 1025,0 hPa 0,0 l/m 4,5 km/h (1 Bft) NO 51 2 min 0,000 mm 0,7 UV-I 326 W/m -7,6 C -5,2 C 6,4 km/h (2 Bft) 100,00 %
23.01.2017 13:34 -5,2 C 84 % 1024,9 hPa 0,0 l/m 3,3 km/h (1 Bft) NO 51 2 min 0,000 mm 0,7 UV-I 326 W/m -7,5 C -5,2 C 4,8 km/h (1 Bft) 100,00 %
23.01.2017 13:36 -5,2 C 84 % 1024,9 hPa 0,0 l/m 3,4 km/h (1 Bft) NO 49 2 min 0,000 mm 0,7 UV-I 322 W/m -7,5 C -5,2 C 6,4 km/h (2 Bft) 96,00 %
23.01.2017 13:38 -5,2 C 84 % 1024,9 hPa 0,0 l/m 2,9 km/h (1 Bft) NO 47 2 min 0,000 mm 0,7 UV-I 319 W/m -7,5 C -5,2 C 4,8 km/h (1 Bft) 97,87 %
23.01.2017 13:40 -5,1 C 84 % 1024,9 hPa 0,0 l/m 3,8 km/h (1 Bft) NO 47 2 min 0,000 mm 0,7 UV-I 317 W/m -7,4 C -5,1 C 4,8 km/h (1 Bft) 97,87 %
23.01.2017 13:42 -5,1 C 83 % 1024,9 hPa 0,0 l/m 3,6 km/h (1 Bft) NO 47 2 min 0,000 mm 0,6 UV-I 313 W/m -7,5 C -5,1 C 4,8 km/h (1 Bft) 98,00 %
23.01.2017 13:44 -5,1 C 83 % 1024,9 hPa 0,0 l/m 3,8 km/h (1 Bft) NO 47 2 min 0,000 mm 0,6 UV-I 313 W/m -7,5 C -5,1 C 4,8 km/h (1 Bft) 97,62 %
23.01.2017 13:46 -5,0 C 83 % 1024,9 hPa 0,0 l/m 3,2 km/h (1 Bft) NO 47 2 min 0,000 mm 0,6 UV-I 308 W/m -7,4 C -5,0 C 4,8 km/h (1 Bft) 98,08 %
23.01.2017 13:48 -4,9 C 83 % 1024,8 hPa 0,0 l/m 2,6 km/h (1 Bft) NO 47 2 min 0,000 mm 0,6 UV-I 307 W/m -7,3 C -4,9 C 4,8 km/h (1 Bft) 97,62 %
23.01.2017 13:50 -4,8 C 83 % 1024,9 hPa 0,0 l/m 3,0 km/h (1 Bft) NO 47 2 min 0,000 mm 0,6 UV-I 301 W/m -7,2 C -4,8 C 4,8 km/h (1 Bft) 96,23 %
23.01.2017 13:52 -4,8 C 82 % 1024,8 hPa 0,0 l/m 3,6 km/h (1 Bft) NO 47 2 min 0,000 mm 0,6 UV-I 299 W/m -7,4 C -4,8 C 4,8 km/h (1 Bft) 97,87 %
23.01.2017 13:54 -4,8 C 82 % 1024,9 hPa 0,0 l/m 3,4 km/h (1 Bft) NO 47 2 min 0,000 mm 0,6 UV-I 301 W/m -7,4 C -4,8 C 4,8 km/h (1 Bft) 97,37 %
23.01.2017 13:56 -4,8 C 82 % 1024,9 hPa 0,0 l/m 4,4 km/h (1 Bft) NO 47 2 min 0,000 mm 0,6 UV-I 298 W/m -7,4 C -4,8 C 4,8 km/h (1 Bft) 98,11 %
23.01.2017 13:58 -4,9 C 82 % 1024,9 hPa 0,0 l/m 4,5 km/h (1 Bft) NO 47 2 min 0,000 mm 0,6 UV-I 293 W/m -7,5 C -4,9 C 4,8 km/h (1 Bft) 100,00 %
23.01.2017 14:00 -4,8 C 82 % 1024,9 hPa 0,0 l/m 4,1 km/h (1 Bft) NO 47 2 min 0,102 mm 0,6 UV-I 290 W/m -7,4 C -4,8 C 4,8 km/h (1 Bft) 100,00 %
23.01.2017 14:02 -4,8 C 82 % 1024,9 hPa 0,0 l/m 3,4 km/h (1 Bft) NO 47 2 min 0,000 mm 0,6 UV-I 287 W/m -7,4 C -4,8 C 4,8 km/h (1 Bft) 100,00 %
23.01.2017 14:04 -4,8 C 82 % 1024,9 hPa 0,0 l/m 3,1 km/h (1 Bft) NO 47 2 min 0,000 mm 0,6 UV-I 286 W/m -7,4 C -4,8 C 4,8 km/h (1 Bft) 94,00 %
23.01.2017 14:06 -4,8 C 82 % 1024,9 hPa 0,0 l/m 3,9 km/h (1 Bft) NO 47 2 min 0,000 mm 0,5 UV-I 283 W/m -7,4 C -4,8 C 4,8 km/h (1 Bft) 100,00 %
23.01.2017 14:08 -4,8 C 82 % 1024,9 hPa 0,0 l/m 4,4 km/h (1 Bft) NO 47 2 min 0,000 mm 0,5 UV-I 281 W/m -7,4 C -4,8 C 4,8 km/h (1 Bft) 100,00 %
23.01.2017 14:10 -4,9 C 82 % 1024,9 hPa 0,0 l/m 4,3 km/h (1 Bft) NO 47 2 min 0,000 mm 0,5 UV-I 276 W/m -7,5 C -4,9 C 4,8 km/h (1 Bft) 100,00 %
23.01.2017 14:12 -4,8 C 82 % 1024,8 hPa 0,0 l/m 3,6 km/h (1 Bft) NO 47 2 min 0,000 mm 0,5 UV-I 272 W/m -7,4 C -4,8 C 4,8 km/h (1 Bft) 100,00 %
23.01.2017 14:14 -4,8 C 82 % 1024,8 hPa 0,0 l/m 4,5 km/h (1 Bft) NO 47 2 min 0,000 mm 0,5 UV-I 271 W/m -7,4 C -4,8 C 4,8 km/h (1 Bft) 100,00 %
23.01.2017 14:16 -4,9 C 82 % 1024,8 hPa 0,0 l/m 4,2 km/h (1 Bft) NO 47 2 min 0,000 mm 0,5 UV-I 270 W/m -7,5 C -4,9 C 4,8 km/h (1 Bft) 98,00 %
23.01.2017 14:18 -4,8 C 82 % 1024,8 hPa 0,0 l/m 4,4 km/h (1 Bft) NO 47 2 min 0,000 mm 0,5 UV-I 267 W/m -7,4 C -4,8 C 4,8 km/h (1 Bft) 100,00 %
23.01.2017 14:20 -4,8 C 82 % 1024,7 hPa 0,0 l/m 4,2 km/h (1 Bft) NO 47 2 min 0,000 mm 0,5 UV-I 264 W/m -7,4 C -4,8 C 4,8 km/h (1 Bft) 100,00 %
23.01.2017 14:22 -4,7 C 82 % 1024,8 hPa 0,0 l/m 3,4 km/h (1 Bft) NO 47 2 min 0,000 mm 0,5 UV-I 260 W/m -7,3 C -4,7 C 4,8 km/h (1 Bft) 100,00 %
23.01.2017 14:24 -4,7 C 82 % 1024,8 hPa 0,0 l/m 4,5 km/h (1 Bft) NO 47 2 min 0,000 mm 0,5 UV-I 256 W/m -7,3 C -4,7 C 6,4 km/h (2 Bft) 100,00 %
23.01.2017 14:26 -4,7 C 82 % 1024,8 hPa 0,0 l/m 4,4 km/h (1 Bft) NO 47 2 min 0,000 mm 0,4 UV-I 252 W/m -7,3 C -4,7 C 6,4 km/h (2 Bft) 100,00 %
23.01.2017 14:28 -4,7 C 82 % 1024,8 hPa 0,0 l/m 3,7 km/h (1 Bft) NO 47 2 min 0,000 mm 0,0 UV-I 249 W/m -7,3 C -4,7 C 4,8 km/h (1 Bft) 98,28 %
23.01.2017 14:30 -4,7 C 81 % 1024,8 hPa 0,0 l/m 4,3 km/h (1 Bft) NO 47 2 min 0,000 mm 0,0 UV-I 245 W/m -7,4 C -4,7 C 6,4 km/h (2 Bft) 100,00 %
23.01.2017 14:32 -4,7 C 81 % 1024,8 hPa 0,0 l/m 4,6 km/h (1 Bft) NO 47 2 min 0,000 mm 0,0 UV-I 243 W/m -7,4 C -4,7 C 6,4 km/h (2 Bft) 100,00 %
23.01.2017 14:34 -4,7 C 81 % 1024,8 hPa 0,0 l/m 4,6 km/h (1 Bft) NO 47 2 min 0,000 mm 0,0 UV-I 238 W/m -7,4 C -4,7 C 6,4 km/h (2 Bft) 100,00 %
23.01.2017 14:36 -4,7 C 81 % 1024,8 hPa 0,0 l/m 3,7 km/h (1 Bft) NO 47 2 min 0,000 mm 0,0 UV-I 236 W/m -7,4 C -4,7 C 4,8 km/h (1 Bft) 100,00 %
23.01.2017 14:38 -4,6 C 81 % 1024,8 hPa 0,0 l/m 3,4 km/h (1 Bft) NO 47 2 min 0,000 mm 0,0 UV-I 230 W/m -7,4 C -4,6 C 4,8 km/h (1 Bft) 100,00 %
23.01.2017 14:40 -4,6 C 81 % 1024,9 hPa 0,0 l/m 3,4 km/h (1 Bft) NO 47 2 min 0,000 mm 0,0 UV-I 225 W/m -7,4 C -4,6 C 4,8 km/h (1 Bft) 100,00 %
23.01.2017 14:42 -4,5 C 81 % 1024,9 hPa 0,0 l/m 3,3 km/h (1 Bft) NO 47 2 min 0,000 mm 0,0 UV-I 221 W/m -7,3 C -4,5 C 4,8 km/h (1 Bft) 100,00 %
23.01.2017 14:44 -4,6 C 81 % 1024,8 hPa 0,0 l/m 4,5 km/h (1 Bft) NO 47 2 min 0,000 mm 0,0 UV-I 218 W/m -7,4 C -4,6 C 6,4 km/h (2 Bft) 100,00 %
23.01.2017 14:46 -4,6 C 81 % 1024,8 hPa 0,0 l/m 3,9 km/h (1 Bft) NO 47 2 min 0,000 mm 0,0 UV-I 217 W/m -7,4 C -4,6 C 4,8 km/h (1 Bft) 100,00 %
23.01.2017 14:48 -4,6 C 81 % 1024,8 hPa 0,0 l/m 3,3 km/h (1 Bft) NO 47 2 min 0,000 mm 0,0 UV-I 212 W/m -7,4 C -4,6 C 6,4 km/h (2 Bft) 98,15 %
23.01.2017 14:50 -4,6 C 81 % 1024,7 hPa 0,0 l/m 4,8 km/h (1 Bft) NO 47 2 min 0,000 mm 0,0 UV-I 208 W/m -7,4 C -4,6 C 6,4 km/h (2 Bft) 97,87 %
23.01.2017 14:52 -4,6 C 81 % 1024,8 hPa 0,0 l/m 3,8 km/h (1 Bft) NO 47 2 min 0,000 mm 0,0 UV-I 204 W/m -7,4 C -4,6 C 4,8 km/h (1 Bft) 98,00 %
23.01.2017 14:54 -4,6 C 81 % 1024,8 hPa 0,0 l/m 4,0 km/h (1 Bft) NO 47 2 min 0,000 mm 0,0 UV-I 200 W/m -7,4 C -4,6 C 4,8 km/h (1 Bft) 97,56 %
23.01.2017 14:56 -4,6 C 81 % 1024,7 hPa 0,0 l/m 3,2 km/h (1 Bft) NO 47 2 min 0,000 mm 0,0 UV-I 197 W/m -7,4 C -4,6 C 4,8 km/h (1 Bft) 98,00 %
23.01.2017 14:58 -4,6 C 81 % 1024,7 hPa 0,0 l/m 3,6 km/h (1 Bft) NO 47 2 min 0,000 mm 0,0 UV-I 194 W/m -7,4 C -4,6 C 4,8 km/h (1 Bft) 96,00 %
23.01.2017 15:00 -4,6 C 81 % 1024,7 hPa 0,0 l/m 3,7 km/h (1 Bft) NO 47 2 min 0,076 mm 0,0 UV-I 191 W/m -7,4 C -4,6 C 4,8 km/h (1 Bft) 97,56 %
23.01.2017 15:02 -4,6 C 81 % 1024,7 hPa 0,0 l/m 3,6 km/h (1 Bft) NO 47 2 min 0,000 mm 0,0 UV-I 187 W/m -7,4 C -4,6 C 4,8 km/h (1 Bft) 98,11 %
23.01.2017 15:04 -4,7 C 81 % 1024,7 hPa 0,0 l/m 3,7 km/h (1 Bft) NO 47 2 min 0,000 mm 0,0 UV-I 184 W/m -7,4 C -4,7 C 4,8 km/h (1 Bft) 96,67 %
23.01.2017 15:06 -4,7 C 81 % 1024,7 hPa 0,0 l/m 3,8 km/h (1 Bft) NO 47 2 min 0,000 mm 0,0 UV-I 179 W/m -7,4 C -4,7 C 4,8 km/h (1 Bft) 98,39 %
23.01.2017 15:08 -4,7 C 81 % 1024,7 hPa 0,0 l/m 3,9 km/h (1 Bft) NO 47 2 min 0,000 mm 0,0 UV-I 175 W/m -7,4 C -4,7 C 4,8 km/h (1 Bft) 97,87 %
23.01.2017 15:10 -4,7 C 81 % 1024,6 hPa 0,0 l/m 3,4 km/h (1 Bft) NO 47 2 min 0,000 mm 0,0 UV-I 171 W/m -7,4 C -4,7 C 4,8 km/h (1 Bft) 97,56 %
23.01.2017 15:12 -4,6 C 81 % 1024,7 hPa 0,0 l/m 2,8 km/h (1 Bft) NO 47 2 min 0,000 mm 0,0 UV-I 167 W/m -7,4 C -4,6 C 4,8 km/h (1 Bft) 98,00 %
23.01.2017 15:14 -4,6 C 81 % 1024,6 hPa 0,0 l/m 2,7 km/h (1 Bft) NO 47 2 min 0,000 mm 0,0 UV-I 163 W/m -7,4 C -4,6 C 4,8 km/h (1 Bft) 97,87 %
23.01.2017 15:16 -4,6 C 81 % 1024,7 hPa 0,0 l/m 2,8 km/h (1 Bft) NO 47 2 min 0,000 mm 0,0 UV-I 159 W/m -7,4 C -4,6 C 4,8 km/h (1 Bft) 97,73 %
23.01.2017 15:18 -4,6 C 81 % 1024,6 hPa 0,0 l/m 2,8 km/h (1 Bft) NO 47 2 min 0,000 mm 0,0 UV-I 155 W/m -7,4 C -4,6 C 4,8 km/h (1 Bft) 97,87 %
23.01.2017 15:20 -4,5 C 81 % 1024,6 hPa 0,0 l/m 2,6 km/h (1 Bft) NO 47 2 min 0,000 mm 0,0 UV-I 150 W/m -7,3 C -4,5 C 3,2 km/h (1 Bft) 100,00 %
23.01.2017 15:22 -4,5 C 81 % 1024,6 hPa 0,0 l/m 2,7 km/h (1 Bft) NO 47 2 min 0,000 mm 0,0 UV-I 146 W/m -7,3 C -4,5 C 3,2 km/h (1 Bft) 100,00 %
23.01.2017 15:24 -4,4 C 81 % 1024,6 hPa 0,0 l/m 2,9 km/h (1 Bft) NO 47 2 min 0,000 mm 0,0 UV-I 142 W/m -7,2 C -4,4 C 3,2 km/h (1 Bft) 100,00 %
23.01.2017 15:26 -4,5 C 81 % 1024,6 hPa 0,0 l/m 2,8 km/h (1 Bft) NO 47 2 min 0,000 mm 0,0 UV-I 138 W/m -7,3 C -4,5 C 3,2 km/h (1 Bft) 98,04 %
23.01.2017 15:28 -4,6 C 81 % 1024,6 hPa 0,0 l/m 2,8 km/h (1 Bft) NO 47 2 min 0,000 mm 0,0 UV-I 134 W/m -7,4 C -4,6 C 4,8 km/h (1 Bft) 97,87 %
23.01.2017 15:30 -4,6 C 81 % 1024,6 hPa 0,0 l/m 3,0 km/h (1 Bft) NO 47 2 min 0,000 mm 0,0 UV-I 130 W/m -7,4 C -4,6 C 3,2 km/h (1 Bft) 100,00 %
23.01.2017 15:32 -4,6 C 81 % 1024,6 hPa 0,0 l/m 3,3 km/h (1 Bft) NO 47 2 min 0,000 mm 0,0 UV-I 126 W/m -7,4 C -4,6 C 4,8 km/h (1 Bft) 100,00 %
23.01.2017 15:34 -4,6 C 81 % 1024,6 hPa 0,0 l/m 3,2 km/h (1 Bft) NO 47 2 min 0,000 mm 0,0 UV-I 122 W/m -7,4 C -4,6 C 4,8 km/h (1 Bft) 95,74 %
23.01.2017 15:36 -4,6 C 81 % 1024,6 hPa 0,0 l/m 2,7 km/h (1 Bft) NO 47 2 min 0,000 mm 0,0 UV-I 117 W/m -7,4 C -4,6 C 3,2 km/h (1 Bft) 97,87 %
23.01.2017 15:38 -4,6 C 81 % 1024,6 hPa 0,0 l/m 2,1 km/h (1 Bft) NO 47 2 min 0,000 mm 0,0 UV-I 113 W/m -7,4 C -4,6 C 3,2 km/h (1 Bft) 100,00 %
23.01.2017 15:40 -4,6 C 81 % 1024,6 hPa 0,0 l/m 1,8 km/h (1 Bft) NO 47 2 min 0,000 mm 0,0 UV-I 109 W/m -7,4 C -4,6 C 3,2 km/h (1 Bft) 100,00 %
23.01.2017 15:42 -4,6 C 81 % 1024,6 hPa 0,0 l/m 1,9 km/h (1 Bft) NO 47 2 min 0,000 mm 0,0 UV-I 105 W/m -7,4 C -4,6 C 3,2 km/h (1 Bft) 95,24 %
23.01.2017 15:44 -4,6 C 81 % 1024,6 hPa 0,0 l/m 1,8 km/h (1 Bft) NO 47 2 min 0,000 mm 0,0 UV-I 101 W/m -7,4 C -4,6 C 3,2 km/h (1 Bft) 100,00 %
23.01.2017 15:46 -4,6 C 81 % 1024,6 hPa 0,0 l/m 2,3 km/h (1 Bft) NO 47 2 min 0,000 mm 0,0 UV-I 97 W/m -7,4 C -4,6 C 3,2 km/h (1 Bft) 100,00 %
23.01.2017 15:48 -4,5 C 81 % 1024,6 hPa 0,0 l/m 1,4 km/h (1 Bft) NO 47 2 min 0,000 mm 0,0 UV-I 93 W/m -7,3 C -4,5 C 1,6 km/h (1 Bft) 100,00 %
23.01.2017 15:50 -4,5 C 81 % 1024,6 hPa 0,0 l/m 1,4 km/h (1 Bft) NO 47 2 min 0,000 mm 0,0 UV-I 90 W/m -7,3 C -4,5 C 3,2 km/h (1 Bft) 100,00 %
23.01.2017 15:52 -4,5 C 81 % 1024,6 hPa 0,0 l/m 1,0 km/h (0 Bft) NO 47 2 min 0,000 mm 0,0 UV-I 86 W/m -7,3 C -4,5 C 1,6 km/h (1 Bft) 100,00 %
23.01.2017 15:54 -4,6 C 81 % 1024,6 hPa 0,0 l/m 1,7 km/h (1 Bft) NO 47 2 min 0,000 mm 0,0 UV-I 82 W/m -7,4 C -4,6 C 3,2 km/h (1 Bft) 98,11 %
23.01.2017 15:56 -4,6 C 81 % 1024,6 hPa 0,0 l/m 1,6 km/h (1 Bft) NO 47 2 min 0,000 mm 0,0 UV-I 77 W/m -7,4 C -4,6 C 3,2 km/h (1 Bft) 100,00 %
23.01.2017 15:58 -4,6 C 82 % 1024,6 hPa 0,0 l/m 2,0 km/h (1 Bft) NO 47 2 min 0,000 mm 0,0 UV-I 74 W/m -7,2 C -4,6 C 3,2 km/h (1 Bft) 100,00 %
23.01.2017 16:00 -4,6 C 81 % 1024,6 hPa 0,0 l/m 1,3 km/h (1 Bft) NO 47 2 min 0,051 mm 0,0 UV-I 71 W/m -7,4 C -4,6 C 3,2 km/h (1 Bft) 100,00 %
23.01.2017 16:02 -4,6 C 81 % 1024,6 hPa 0,0 l/m 1,7 km/h (1 Bft) NO 47 2 min 0,000 mm 0,0 UV-I 68 W/m -7,4 C -4,6 C 3,2 km/h (1 Bft) 100,00 %
23.01.2017 16:04 -4,7 C 82 % 1024,7 hPa 0,0 l/m 2,1 km/h (1 Bft) NO 47 2 min 0,000 mm 0,0 UV-I 64 W/m -7,3 C -4,7 C 4,8 km/h (1 Bft) 100,00 %
23.01.2017 16:06 -4,7 C 82 % 1024,6 hPa 0,0 l/m 2,3 km/h (1 Bft) NO 47 2 min 0,000 mm 0,0 UV-I 61 W/m -7,3 C -4,7 C 3,2 km/h (1 Bft) 100,00 %
23.01.2017 16:08 -4,6 C 82 % 1024,6 hPa 0,0 l/m 1,8 km/h (1 Bft) NO 47 2 min 0,000 mm 0,0 UV-I 57 W/m -7,2 C -4,6 C 3,2 km/h (1 Bft) 100,00 %
23.01.2017 16:10 -4,6 C 82 % 1024,6 hPa 0,0 l/m 1,4 km/h (1 Bft) NO 47 2 min 0,000 mm 0,0 UV-I 54 W/m -7,2 C -4,6 C 1,6 km/h (1 Bft) 100,00 %
23.01.2017 16:12 -4,7 C 82 % 1024,6 hPa 0,0 l/m 1,3 km/h (1 Bft) NO 47 2 min 0,000 mm 0,0 UV-I 50 W/m -7,3 C -4,7 C 3,2 km/h (1 Bft) 100,00 %
23.01.2017 16:14 -4,7 C 82 % 1024,6 hPa 0,0 l/m 0,9 km/h (0 Bft) NO 47 2 min 0,000 mm 0,0 UV-I 47 W/m -7,3 C -4,7 C 1,6 km/h (1 Bft) 100,00 %
23.01.2017 16:16 -4,7 C 82 % 1024,7 hPa 0,0 l/m 1,4 km/h (1 Bft) NO 47 2 min 0,000 mm 0,0 UV-I 44 W/m -7,3 C -4,7 C 1,6 km/h (1 Bft) 100,00 %
23.01.2017 16:18 -4,8 C 83 % 1024,7 hPa 0,0 l/m 1,3 km/h (1 Bft) NO 47 2 min 0,000 mm 0,0 UV-I 41 W/m -7,2 C -4,8 C 3,2 km/h (1 Bft) 97,87 %
23.01.2017 16:20 -4,8 C 83 % 1024,6 hPa 0,0 l/m 1,5 km/h (1 Bft) NO 47 2 min 0,000 mm 0,0 UV-I 38 W/m -7,2 C -4,8 C 3,2 km/h (1 Bft) 97,87 %
23.01.2017 16:22 -4,8 C 83 % 1024,7 hPa 0,0 l/m 0,4 km/h (0 Bft) NO 47 2 min 0,000 mm 0,0 UV-I 35 W/m -7,2 C -4,8 C 1,6 km/h (1 Bft) 100,00 %
23.01.2017 16:24 -4,8 C 83 % 1024,6 hPa 0,0 l/m 1,4 km/h (1 Bft) NO 47 2 min 0,000 mm 0,0 UV-I 32 W/m -7,2 C -4,8 C 3,2 km/h (1 Bft) 100,00 %
23.01.2017 16:26 -4,8 C 83 % 1024,7 hPa 0,0 l/m 1,9 km/h (1 Bft) NO 47 2 min 0,000 mm 0,0 UV-I 30 W/m -7,2 C -4,8 C 3,2 km/h (1 Bft) 95,74 %
23.01.2017 16:28 -4,8 C 83 % 1024,7 hPa 0,0 l/m 2,0 km/h (1 Bft) NO 47 2 min 0,000 mm 0,0 UV-I 27 W/m -7,2 C -4,8 C 3,2 km/h (1 Bft) 100,00 %
23.01.2017 16:30 -4,8 C 83 % 1024,7 hPa 0,0 l/m 1,4 km/h (1 Bft) NO 47 2 min 0,000 mm 0,0 UV-I 25 W/m -7,2 C -4,8 C 3,2 km/h (1 Bft) 100,00 %
23.01.2017 16:32 -4,9 C 83 % 1024,7 hPa 0,0 l/m 1,6 km/h (1 Bft) NO 47 2 min 0,000 mm 0,0 UV-I 22 W/m -7,3 C -4,9 C 3,2 km/h (1 Bft) 100,00 %
23.01.2017 16:34 -4,9 C 83 % 1024,7 hPa 0,0 l/m 1,1 km/h (1 Bft) NO 47 2 min 0,000 mm 0,0 UV-I 20 W/m -7,3 C -4,9 C 3,2 km/h (1 Bft) 100,00 %
23.01.2017 16:36 -5,0 C 83 % 1024,8 hPa 0,0 l/m 1,4 km/h (1 Bft) NO 47 2 min 0,000 mm 0,0 UV-I 19 W/m -7,4 C -5,0 C 1,6 km/h (1 Bft) 100,00 %
23.01.2017 16:38 -5,1 C 84 % 1024,8 hPa 0,0 l/m 1,2 km/h (1 Bft) NO 47 0 min 0,000 mm 0,0 UV-I 17 W/m -7,4 C -5,1 C 3,2 km/h (1 Bft) 100,00 %
23.01.2017 16:40 -5,1 C 84 % 1024,8 hPa 0,0 l/m 1,0 km/h (0 Bft) NO 47 0 min 0,000 mm 0,0 UV-I 14 W/m -7,4 C -5,1 C 1,6 km/h (1 Bft) 100,00 %
23.01.2017 16:42 -5,2 C 84 % 1024,8 hPa 0,0 l/m 1,3 km/h (1 Bft) NO 47 0 min 0,000 mm 0,0 UV-I 13 W/m -7,5 C -5,2 C 3,2 km/h (1 Bft) 100,00 %
23.01.2017 16:44 -5,2 C 84 % 1024,8 hPa 0,0 l/m 1,9 km/h (1 Bft) NO 47 0 min 0,000 mm 0,0 UV-I 12 W/m -7,5 C -5,2 C 3,2 km/h (1 Bft) 97,37 %
23.01.2017 16:46 -5,2 C 84 % 1024,8 hPa 0,0 l/m 1,6 km/h (1 Bft) NO 47 0 min 0,000 mm 0,0 UV-I 11 W/m -7,5 C -5,2 C 3,2 km/h (1 Bft) 100,00 %
23.01.2017 16:48 -5,3 C 84 % 1024,8 hPa 0,0 l/m 1,2 km/h (1 Bft) NO 47 0 min 0,000 mm 0,0 UV-I 9 W/m -7,6 C -5,3 C 1,6 km/h (1 Bft) 100,00 %
23.01.2017 16:50 -5,3 C 85 % 1024,8 hPa 0,0 l/m 0,4 km/h (0 Bft) NO 47 0 min 0,000 mm 0,0 UV-I 9 W/m -7,4 C -5,3 C 1,6 km/h (1 Bft) 100,00 %
23.01.2017 16:52 -5,4 C 85 % 1024,8 hPa 0,0 l/m 0,8 km/h (0 Bft) NO 47 0 min 0,000 mm 0,0 UV-I 8 W/m -7,5 C -5,4 C 1,6 km/h (1 Bft) 100,00 %
23.01.2017 16:54 -5,4 C 85 % 1024,8 hPa 0,0 l/m 0,0 km/h (0 Bft) NO 47 0 min 0,000 mm 0,0 UV-I 7 W/m -7,5 C -5,4 C 0,0 km/h (0 Bft) 98,11 %
23.01.2017 16:56 -5,5 C 86 % 1024,8 hPa 0,0 l/m 0,9 km/h (0 Bft) NO 47 0 min 0,000 mm 0,0 UV-I 7 W/m -7,5 C -5,5 C 1,6 km/h (1 Bft) 100,00 %
23.01.2017 16:58 -5,6 C 86 % 1024,8 hPa 0,0 l/m 1,1 km/h (1 Bft) NO 47 0 min 0,000 mm 0,0 UV-I 5 W/m -7,6 C -5,6 C 3,2 km/h (1 Bft) 98,44 %
23.01.2017 17:00 -5,7 C 86 % 1024,9 hPa 0,0 l/m 1,1 km/h (1 Bft) NO 47 0 min 0,000 mm 0,0 UV-I 5 W/m -7,7 C -5,7 C 3,2 km/h (1 Bft) 100,00 %
23.01.2017 17:02 -5,8 C 86 % 1024,9 hPa 0,0 l/m 1,5 km/h (1 Bft) NO 47 0 min 0,000 mm 0,0 UV-I 5 W/m -7,8 C -5,8 C 1,6 km/h (1 Bft) 100,00 %
23.01.2017 17:04 -5,8 C 87 % 1024,9 hPa 0,0 l/m 1,5 km/h (1 Bft) NO 47 0 min 0,000 mm 0,0 UV-I 3 W/m -7,6 C -5,8 C 3,2 km/h (1 Bft) 98,00 %
23.01.2017 17:06 -5,8 C 87 % 1024,9 hPa 0,0 l/m 1,6 km/h (1 Bft) NO 47 0 min 0,000 mm 0,0 UV-I 0 W/m -7,6 C -5,8 C 3,2 km/h (1 Bft) 100,00 %
23.01.2017 17:08 -5,8 C 87 % 1024,9 hPa 0,0 l/m 1,8 km/h (1 Bft) NO 47 0 min 0,000 mm 0,0 UV-I 0 W/m -7,6 C -5,8 C 3,2 km/h (1 Bft) 100,00 %
23.01.2017 17:10 -5,8 C 87 % 1024,9 hPa 0,0 l/m 2,6 km/h (1 Bft) NO 47 0 min 0,000 mm 0,0 UV-I 0 W/m -7,6 C -5,8 C 4,8 km/h (1 Bft) 100,00 %
23.01.2017 17:12 -5,8 C 87 % 1024,9 hPa 0,0 l/m 3,1 km/h (1 Bft) NO 47 0 min 0,000 mm 0,0 UV-I 0 W/m -7,6 C -5,8 C 4,8 km/h (1 Bft) 100,00 %
23.01.2017 17:14 -6,0 C 87 % 1024,9 hPa 0,0 l/m 2,5 km/h (1 Bft) NO 47 0 min 0,000 mm 0,0 UV-I 0 W/m -7,8 C -6,0 C 4,8 km/h (1 Bft) 100,00 %
23.01.2017 17:16 -5,9 C 88 % 1024,9 hPa 0,0 l/m 3,0 km/h (1 Bft) NO 47 0 min 0,000 mm 0,0 UV-I 0 W/m -7,6 C -5,9 C 4,8 km/h (1 Bft) 100,00 %
23.01.2017 17:18 -5,8 C 87 % 1025,0 hPa 0,0 l/m 3,0 km/h (1 Bft) NO 47 0 min 0,000 mm 0,0 UV-I 0 W/m -7,6 C -5,8 C 4,8 km/h (1 Bft) 100,00 %
23.01.2017 17:20 -5,8 C 87 % 1025,0 hPa 0,0 l/m 3,2 km/h (1 Bft) NO 47 0 min 0,000 mm 0,0 UV-I 0 W/m -7,6 C -5,8 C 3,2 km/h (1 Bft) 100,00 %
23.01.2017 17:22 -5,8 C 87 % 1024,9 hPa 0,0 l/m 2,7 km/h (1 Bft) NO 47 0 min 0,000 mm 0,0 UV-I 0 W/m -7,6 C -5,8 C 4,8 km/h (1 Bft) 98,00 %
23.01.2017 17:24 -5,8 C 87 % 1025,0 hPa 0,0 l/m 2,0 km/h (1 Bft) NO 47 0 min 0,000 mm 0,0 UV-I 0 W/m -7,6 C -5,8 C 3,2 km/h (1 Bft) 100,00 %
23.01.2017 17:26 -5,8 C 87 % 1025,0 hPa 0,0 l/m 2,3 km/h (1 Bft) NO 47 0 min 0,000 mm 0,0 UV-I 0 W/m -7,6 C -5,8 C 3,2 km/h (1 Bft) 100,00 %
23.01.2017 17:28 -5,8 C 87 % 1025,0 hPa 0,0 l/m 2,0 km/h (1 Bft) NO 47 0 min 0,000 mm 0,0 UV-I 0 W/m -7,6 C -5,8 C 3,2 km/h (1 Bft) 100,00 %
23.01.2017 17:30 -5,8 C 87 % 1025,0 hPa 0,0 l/m 1,6 km/h (1 Bft) NO 47 0 min 0,000 mm 0,0 UV-I 0 W/m -7,6 C -5,8 C 3,2 km/h (1 Bft) 100,00 %
23.01.2017 17:32 -5,9 C 87 % 1025,0 hPa 0,0 l/m 0,4 km/h (0 Bft) NO 47 0 min 0,000 mm 0,0 UV-I 0 W/m -7,7 C -5,9 C 1,6 km/h (1 Bft) 97,37 %
23.01.2017 17:34 -5,9 C 87 % 1025,0 hPa 0,0 l/m 0,8 km/h (0 Bft) NO 47 0 min 0,000 mm 0,0 UV-I 0 W/m -7,7 C -5,9 C 1,6 km/h (1 Bft) 100,00 %
23.01.2017 17:36 -6,1 C 87 % 1025,0 hPa 0,0 l/m 1,2 km/h (1 Bft) NO 47 0 min 0,000 mm 0,0 UV-I 0 W/m -7,9 C -6,1 C 1,6 km/h (1 Bft) 98,31 %
23.01.2017 17:38 -6,5 C 86 % 1025,0 hPa 0,0 l/m 0,1 km/h (0 Bft) NO 47 0 min 0,000 mm 0,0 UV-I 0 W/m -8,4 C -6,5 C 1,6 km/h (1 Bft) 100,00 %
23.01.2017 17:40 -6,8 C 86 % 1025,0 hPa 0,0 l/m 1,5 km/h (1 Bft) NO 47 0 min 0,000 mm 0,0 UV-I 0 W/m -8,7 C -6,8 C 3,2 km/h (1 Bft) 100,00 %
23.01.2017 17:42 -7,1 C 87 % 1025,0 hPa 0,0 l/m 1,3 km/h (1 Bft) NO 47 0 min 0,000 mm 0,0 UV-I 0 W/m -8,9 C -7,1 C 3,2 km/h (1 Bft) 98,28 %
23.01.2017 17:44 -7,3 C 87 % 1025,0 hPa 0,0 l/m 1,7 km/h (1 Bft) NO 47 0 min 0,000 mm 0,0 UV-I 0 W/m -9,1 C -7,3 C 3,2 km/h (1 Bft) 100,00 %
23.01.2017 17:46 -7,4 C 88 % 1025,0 hPa 0,0 l/m 2,0 km/h (1 Bft) NO 47 0 min 0,000 mm 0,0 UV-I 0 W/m -9,0 C -7,4 C 3,2 km/h (1 Bft) 100,00 %
23.01.2017 17:48 -7,5 C 89 % 1025,0 hPa 0,0 l/m 2,3 km/h (1 Bft) NO 47 0 min 0,000 mm 0,0 UV-I 0 W/m -9,0 C -7,5 C 3,2 km/h (1 Bft) 98,00 %
23.01.2017 17:50 -7,6 C 89 % 1025,1 hPa 0,0 l/m 2,3 km/h (1 Bft) NO 47 0 min 0,000 mm 0,0 UV-I 0 W/m -9,1 C -7,6 C 4,8 km/h (1 Bft) 100,00 %
23.01.2017 17:52 -7,4 C 90 % 1025,0 hPa 0,0 l/m 2,0 km/h (1 Bft) NO 47 0 min 0,000 mm 0,0 UV-I 0 W/m -8,8 C -7,4 C 3,2 km/h (1 Bft) 100,00 %
23.01.2017 17:54 -7,3 C 91 % 1025,0 hPa 0,0 l/m 2,3 km/h (1 Bft) NO 47 0 min 0,000 mm 0,0 UV-I 0 W/m -8,5 C -7,3 C 3,2 km/h (1 Bft) 97,87 %
23.01.2017 17:56 -7,2 C 91 % 1025,0 hPa 0,0 l/m 2,4 km/h (1 Bft) NO 47 0 min 0,000 mm 0,0 UV-I 0 W/m -8,4 C -7,2 C 4,8 km/h (1 Bft) 97,37 %
23.01.2017 17:58 -7,1 C 91 % 1025,1 hPa 0,0 l/m 2,5 km/h (1 Bft) NO 47 0 min 0,000 mm 0,0 UV-I 0 W/m -8,3 C -7,1 C 3,2 km/h (1 Bft) 100,00 %
23.01.2017 18:00 -7,0 C 91 % 1025,0 hPa 0,0 l/m 2,7 km/h (1 Bft) NO 47 0 min 0,000 mm 0,0 UV-I 0 W/m -8,2 C -7,0 C 3,2 km/h (1 Bft) 100,00 %
23.01.2017 18:02 -7,1 C 90 % 1025,0 hPa 0,0 l/m 2,7 km/h (1 Bft) NO 47 0 min 0,000 mm 0,0 UV-I 0 W/m -8,5 C -7,1 C 3,2 km/h (1 Bft) 97,87 %
23.01.2017 18:04 -7,1 C 90 % 1025,0 hPa 0,0 l/m 2,3 km/h (1 Bft) NO 47 0 min 0,000 mm 0,0 UV-I 0 W/m -8,5 C -7,1 C 3,2 km/h (1 Bft) 100,00 %
23.01.2017 18:06 -7,0 C 91 % 1025,1 hPa 0,0 l/m 1,6 km/h (1 Bft) NO 47 0 min 0,000 mm 0,0 UV-I 0 W/m -8,2 C -7,0 C 3,2 km/h (1 Bft) 100,00 %
23.01.2017 18:08 -6,9 C 91 % 1025,1 hPa 0,0 l/m 2,3 km/h (1 Bft) NO 47 0 min 0,000 mm 0,0 UV-I 0 W/m -8,1 C -6,9 C 3,2 km/h (1 Bft) 100,00 %
23.01.2017 18:10 -6,9 C 91 % 1025,1 hPa 0,0 l/m 3,0 km/h (1 Bft) NO 47 0 min 0,000 mm 0,0 UV-I 0 W/m -8,1 C -6,9 C 4,8 km/h (1 Bft) 98,00 %
23.01.2017 18:12 -6,8 C 91 % 1025,1 hPa 0,0 l/m 3,1 km/h (1 Bft) NO 47 0 min 0,000 mm 0,0 UV-I 0 W/m -8,0 C -6,8 C 4,8 km/h (1 Bft) 97,73 %
23.01.2017 18:14 -6,8 C 91 % 1025,1 hPa 0,0 l/m 3,4 km/h (1 Bft) NO 47 0 min 0,000 mm 0,0 UV-I 0 W/m -8,0 C -6,8 C 4,8 km/h (1 Bft) 100,00 %
23.01.2017 18:16 -6,8 C 90 % 1025,1 hPa 0,0 l/m 3,9 km/h (1 Bft) NO 47 0 min 0,000 mm 0,0 UV-I 0 W/m -8,2 C -6,8 C 4,8 km/h (1 Bft) 95,74 %
23.01.2017 18:18 -6,8 C 91 % 1025,1 hPa 0,0 l/m 3,5 km/h (1 Bft) NO 47 0 min 0,000 mm 0,0 UV-I 0 W/m -8,0 C -6,8 C 4,8 km/h (1 Bft) 100,00 %
23.01.2017 18:20 -6,9 C 90 % 1025,1 hPa 0,0 l/m 4,0 km/h (1 Bft) NO 47 0 min 0,000 mm 0,0 UV-I 0 W/m -8,3 C -6,9 C 4,8 km/h (1 Bft) 96,00 %
23.01.2017 18:22 -7,0 C 91 % 1025,0 hPa 0,0 l/m 3,1 km/h (1 Bft) NO 47 0 min 0,000 mm 0,0 UV-I 0 W/m -8,2 C -7,0 C 4,8 km/h (1 Bft) 97,44 %
23.01.2017 18:24 -6,9 C 91 % 1025,1 hPa 0,0 l/m 3,5 km/h (1 Bft) NO 49 0 min 0,000 mm 0,0 UV-I 0 W/m -8,1 C -6,9 C 4,8 km/h (1 Bft) 98,08 %
23.01.2017 18:26 -6,8 C 91 % 1025,1 hPa 0,0 l/m 4,3 km/h (1 Bft) NO 55 0 min 0,000 mm 0,0 UV-I 0 W/m -8,0 C -6,8 C 6,4 km/h (2 Bft) 96,00 %
23.01.2017 18:28 -6,8 C 91 % 1025,2 hPa 0,0 l/m 4,8 km/h (1 Bft) O-NO 69 0 min 0,000 mm 0,0 UV-I 0 W/m -8,0 C -6,8 C 6,4 km/h (2 Bft) 97,44 %
23.01.2017 18:30 -6,8 C 91 % 1025,1 hPa 0,0 l/m 5,5 km/h (1 Bft) O-NO 76 0 min 0,000 mm 0,0 UV-I 0 W/m -8,0 C -6,8 C 8,0 km/h (2 Bft) 96,00 %
23.01.2017 18:32 -6,8 C 91 % 1025,1 hPa 0,0 l/m 6,4 km/h (2 Bft) O 80 0 min 0,000 mm 0,0 UV-I 0 W/m -8,0 C -6,7 C 8,0 km/h (2 Bft) 98,00 %
23.01.2017 18:34 -6,8 C 91 % 1025,1 hPa 0,0 l/m 7,1 km/h (2 Bft) O-NO 76 0 min 0,000 mm 0,0 UV-I 0 W/m -8,0 C -7,7 C 11,3 km/h (2 Bft) 97,87 %
23.01.2017 18:36 -6,8 C 91 % 1025,2 hPa 0,0 l/m 6,7 km/h (2 Bft) O-NO 74 0 min 0,000 mm 0,0 UV-I 0 W/m -8,0 C -7,2 C 11,3 km/h (2 Bft) 98,00 %
23.01.2017 18:38 -6,7 C 91 % 1025,2 hPa 0,0 l/m 7,1 km/h (2 Bft) O-NO 76 0 min 0,000 mm 0,0 UV-I 0 W/m -7,9 C -7,6 C 11,3 km/h (2 Bft) 97,37 %
23.01.2017 18:40 -6,7 C 91 % 1025,2 hPa 0,0 l/m 7,0 km/h (2 Bft) O-NO 69 0 min 0,000 mm 0,0 UV-I 0 W/m -7,9 C -7,4 C 11,3 km/h (2 Bft) 96,00 %
23.01.2017 18:42 -6,8 C 91 % 1025,2 hPa 0,0 l/m 7,0 km/h (2 Bft) O 80 0 min 0,000 mm 0,0 UV-I 0 W/m -8,0 C -7,5 C 11,3 km/h (2 Bft) 94,34 %
23.01.2017 18:44 -6,8 C 91 % 1025,2 hPa 0,0 l/m 6,2 km/h (2 Bft) O 79 0 min 0,000 mm 0,0 UV-I 0 W/m -8,0 C -6,8 C 11,3 km/h (2 Bft) 97,87 %
23.01.2017 18:46 -6,8 C 90 % 1025,2 hPa 0,0 l/m 7,4 km/h (2 Bft) O 81 0 min 0,000 mm 0,0 UV-I 0 W/m -8,2 C -8,1 C 11,3 km/h (2 Bft) 97,87 %
23.01.2017 18:48 -6,8 C 90 % 1025,2 hPa 0,0 l/m 6,4 km/h (2 Bft) O 80 0 min 0,000 mm 0,0 UV-I 0 W/m -8,2 C -6,7 C 8,0 km/h (2 Bft) 95,74 %
23.01.2017 18:50 -6,9 C 90 % 1025,3 hPa 0,0 l/m 6,6 km/h (2 Bft) O-NO 76 0 min 0,000 mm 0,0 UV-I 0 W/m -8,3 C -7,1 C 11,3 km/h (2 Bft) 93,62 %
23.01.2017 18:52 -6,9 C 90 % 1025,2 hPa 0,0 l/m 5,3 km/h (1 Bft) O-NO 76 0 min 0,000 mm 0,0 UV-I 0 W/m -8,3 C -6,9 C 8,0 km/h (2 Bft) 97,14 %
23.01.2017 18:54 -6,9 C 90 % 1025,2 hPa 0,0 l/m 5,0 km/h (1 Bft) O-NO 75 0 min 0,000 mm 0,0 UV-I 0 W/m -8,3 C -6,9 C 8,0 km/h (2 Bft) 98,00 %
23.01.2017 18:56 -6,9 C 90 % 1025,2 hPa 0,0 l/m 4,1 km/h (1 Bft) O-NO 75 0 min 0,000 mm 0,0 UV-I 0 W/m -8,3 C -6,9 C 6,4 km/h (2 Bft) 98,00 %
23.01.2017 18:58 -7,0 C 90 % 1025,3 hPa 0,0 l/m 4,8 km/h (1 Bft) O-NO 77 0 min 0,000 mm 0,0 UV-I 0 W/m -8,4 C -7,0 C 6,4 km/h (2 Bft) 97,87 %
23.01.2017 19:00 -7,0 C 91 % 1025,3 hPa 0,0 l/m 3,9 km/h (1 Bft) O-NO 76 0 min 0,000 mm 0,0 UV-I 0 W/m -8,2 C -7,0 C 8,0 km/h (2 Bft) 97,87 %
23.01.2017 19:02 -7,1 C 91 % 1025,3 hPa 0,0 l/m 4,5 km/h (1 Bft) O-NO 78 0 min 0,000 mm 0,0 UV-I 0 W/m -8,3 C -7,1 C 8,0 km/h (2 Bft) 98,00 %
23.01.2017 19:04 -7,2 C 90 % 1025,3 hPa 0,0 l/m 3,0 km/h (1 Bft) O-NO 78 0 min 0,000 mm 0,0 UV-I 0 W/m -8,6 C -7,2 C 4,8 km/h (1 Bft) 100,00 %
23.01.2017 19:06 -7,3 C 90 % 1025,3 hPa 0,0 l/m 3,1 km/h (1 Bft) O-NO 78 0 min 0,000 mm 0,0 UV-I 0 W/m -8,7 C -7,3 C 4,8 km/h (1 Bft) 100,00 %
23.01.2017 19:08 -7,3 C 91 % 1025,3 hPa 0,0 l/m 3,0 km/h (1 Bft) O-NO 78 0 min 0,000 mm 0,0 UV-I 0 W/m -8,5 C -7,3 C 6,4 km/h (2 Bft) 97,22 %
23.01.2017 19:10 -7,3 C 91 % 1025,3 hPa 0,0 l/m 3,4 km/h (1 Bft) O 79 0 min 0,000 mm 0,0 UV-I 0 W/m -8,5 C -7,3 C 4,8 km/h (1 Bft) 98,00 %
23.01.2017 19:12 -7,4 C 91 % 1025,3 hPa 0,0 l/m 2,7 km/h (1 Bft) O 79 0 min 0,000 mm 0,0 UV-I 0 W/m -8,6 C -7,4 C 4,8 km/h (1 Bft) 100,00 %
23.01.2017 19:14 -7,5 C 91 % 1025,3 hPa 0,0 l/m 3,5 km/h (1 Bft) O 79 0 min 0,000 mm 0,0 UV-I 0 W/m -8,7 C -7,5 C 6,4 km/h (2 Bft) 100,00 %
23.01.2017 19:16 -7,6 C 91 % 1025,3 hPa 0,0 l/m 3,2 km/h (1 Bft) O 80 0 min 0,000 mm 0,0 UV-I 0 W/m -8,8 C -7,6 C 4,8 km/h (1 Bft) 96,00 %
23.01.2017 19:18 -7,7 C 91 % 1025,3 hPa 0,0 l/m 3,5 km/h (1 Bft) O 80 0 min 0,000 mm 0,0 UV-I 0 W/m -8,9 C -7,7 C 4,8 km/h (1 Bft) 93,62 %
23.01.2017 19:20 -7,9 C 91 % 1025,4 hPa 0,0 l/m 3,2 km/h (1 Bft) O 80 0 min 0,000 mm 0,0 UV-I 0 W/m -9,1 C -7,9 C 4,8 km/h (1 Bft) 100,00 %
23.01.2017 19:22 -8,1 C 90 % 1025,4 hPa 0,0 l/m 3,0 km/h (1 Bft) O 80 0 min 0,000 mm 0,0 UV-I 0 W/m -9,4 C -8,1 C 4,8 km/h (1 Bft) 100,00 %
23.01.2017 19:24 -8,2 C 91 % 1025,4 hPa 0,0 l/m 3,2 km/h (1 Bft) O 80 0 min 0,000 mm 0,0 UV-I 0 W/m -9,4 C -8,2 C 4,8 km/h (1 Bft) 97,87 %
23.01.2017 19:26 -8,3 C 91 % 1025,4 hPa 0,0 l/m 3,5 km/h (1 Bft) O 80 0 min 0,000 mm 0,0 UV-I 0 W/m -9,5 C -8,3 C 6,4 km/h (2 Bft) 100,00 %
23.01.2017 19:28 -8,3 C 92 % 1025,4 hPa 0,0 l/m 2,2 km/h (1 Bft) O 80 0 min 0,000 mm 0,0 UV-I 0 W/m -9,4 C -8,3 C 4,8 km/h (1 Bft) 100,00 %
23.01.2017 19:30 -8,2 C 92 % 1025,4 hPa 0,0 l/m 0,4 km/h (0 Bft) O 80 0 min 0,000 mm 0,0 UV-I 0 W/m -9,3 C -8,2 C 1,6 km/h (1 Bft) 100,00 %
23.01.2017 19:32 -8,3 C 92 % 1025,4 hPa 0,0 l/m 0,0 km/h (0 Bft) O 80 0 min 0,000 mm 0,0 UV-I 0 W/m -9,4 C -8,3 C 0,0 km/h (0 Bft) 100,00 %
23.01.2017 19:34 -8,4 C 92 % 1025,4 hPa 0,0 l/m 0,1 km/h (0 Bft) O 80 0 min 0,000 mm 0,0 UV-I 0 W/m -9,5 C -8,4 C 1,6 km/h (1 Bft) 100,00 %
23.01.2017 19:36 -8,6 C 92 % 1025,4 hPa 0,0 l/m 1,0 km/h (0 Bft) O 80 0 min 0,000 mm 0,0 UV-I 0 W/m -9,7 C -8,6 C 1,6 km/h (1 Bft) 100,00 %
23.01.2017 19:38 -8,7 C 92 % 1025,4 hPa 0,0 l/m 0,7 km/h (0 Bft) O 80 0 min 0,000 mm 0,0 UV-I 0 W/m -9,8 C -8,7 C 3,2 km/h (1 Bft) 100,00 %
23.01.2017 19:40 -8,7 C 92 % 1025,4 hPa 0,0 l/m 1,8 km/h (1 Bft) O 80 0 min 0,000 mm 0,0 UV-I 0 W/m -9,8 C -8,7 C 3,2 km/h (1 Bft) 100,00 %
23.01.2017 19:42 -8,8 C 92 % 1025,3 hPa 0,0 l/m 1,5 km/h (1 Bft) O 80 0 min 0,000 mm 0,0 UV-I 0 W/m -9,9 C -8,8 C 3,2 km/h (1 Bft) 100,00 %
23.01.2017 19:44 -8,9 C 92 % 1025,3 hPa 0,0 l/m 1,1 km/h (1 Bft) O 80 0 min 0,000 mm 0,0 UV-I 0 W/m -10,0 C -8,9 C 1,6 km/h (1 Bft) 100,00 %
23.01.2017 19:46 -8,9 C 93 % 1025,3 hPa 0,0 l/m 1,1 km/h (1 Bft) O 80 0 min 0,000 mm 0,0 UV-I 0 W/m -9,8 C -8,9 C 1,6 km/h (1 Bft) 100,00 %
23.01.2017 19:48 -9,0 C 93 % 1025,3 hPa 0,0 l/m 1,6 km/h (1 Bft) O 80 0 min 0,000 mm 0,0 UV-I 0 W/m -9,9 C -9,0 C 3,2 km/h (1 Bft) 97,87 %
23.01.2017 19:50 -9,1 C 93 % 1025,3 hPa 0,0 l/m 1,4 km/h (1 Bft) O 80 0 min 0,000 mm 0,0 UV-I 0 W/m -10,0 C -9,1 C 3,2 km/h (1 Bft) 100,00 %
23.01.2017 19:52 -8,9 C 93 % 1025,3 hPa 0,0 l/m 1,4 km/h (1 Bft) O 80 0 min 0,000 mm 0,0 UV-I 0 W/m -9,8 C -8,9 C 3,2 km/h (1 Bft) 100,00 %
23.01.2017 19:54 -8,8 C 93 % 1025,3 hPa 0,0 l/m 0,8 km/h (0 Bft) O 80 0 min 0,000 mm 0,0 UV-I 0 W/m -9,7 C -8,8 C 1,6 km/h (1 Bft) 100,00 %
23.01.2017 19:56 -8,7 C 93 % 1025,3 hPa 0,0 l/m 1,3 km/h (1 Bft) O 80 0 min 0,000 mm 0,0 UV-I 0 W/m -9,6 C -8,7 C 3,2 km/h (1 Bft) 100,00 %
23.01.2017 19:58 -8,7 C 93 % 1025,3 hPa 0,0 l/m 1,0 km/h (0 Bft) O 80 0 min 0,000 mm 0,0 UV-I 0 W/m -9,6 C -8,7 C 3,2 km/h (1 Bft) 97,87 %
23.01.2017 20:00 -8,8 C 93 % 1025,4 hPa 0,0 l/m 0,0 km/h (0 Bft) O 80 0 min 0,000 mm 0,0 UV-I 0 W/m -9,7 C -8,8 C 0,0 km/h (0 Bft) 100,00 %
23.01.2017 20:02 -8,9 C 93 % 1025,4 hPa 0,0 l/m 0,0 km/h (0 Bft) O 80 0 min 0,000 mm 0,0 UV-I 0 W/m -9,8 C -8,9 C 0,0 km/h (0 Bft) 97,87 %
23.01.2017 20:04 -9,1 C 93 % 1025,4 hPa 0,0 l/m 0,0 km/h (0 Bft) O 80 0 min 0,000 mm 0,0 UV-I 0 W/m -10,0 C -9,1 C 1,6 km/h (1 Bft) 97,87 %
23.01.2017 20:06 -9,2 C 93 % 1025,5 hPa 0,0 l/m 0,8 km/h (0 Bft) O 80 0 min 0,000 mm 0,0 UV-I 0 W/m -10,1 C -9,2 C 3,2 km/h (1 Bft) 100,00 %
23.01.2017 20:08 -9,2 C 93 % 1025,5 hPa 0,0 l/m 1,8 km/h (1 Bft) O 80 0 min 0,000 mm 0,0 UV-I 0 W/m -10,1 C -9,2 C 3,2 km/h (1 Bft) 100,00 %
23.01.2017 20:10 -9,2 C 93 % 1025,5 hPa 0,0 l/m 1,9 km/h (1 Bft) O 80 0 min 0,000 mm 0,0 UV-I 0 W/m -10,1 C -9,2 C 3,2 km/h (1 Bft) 97,87 %
23.01.2017 20:12 -9,3 C 93 % 1025,5 hPa 0,0 l/m 1,0 km/h (0 Bft) O 80 0 min 0,000 mm 0,0 UV-I 0 W/m -10,2 C -9,3 C 1,6 km/h (1 Bft) 97,87 %
23.01.2017 20:14 -9,4 C 93 % 1025,5 hPa 0,0 l/m 0,0 km/h (0 Bft) O 80 0 min 0,000 mm 0,0 UV-I 0 W/m -10,3 C -9,4 C 0,0 km/h (0 Bft) 97,87 %
23.01.2017 20:16 -9,4 C 93 % 1025,5 hPa 0,0 l/m 0,0 km/h (0 Bft) O 80 0 min 0,000 mm 0,0 UV-I 0 W/m -10,3 C -9,4 C 0,0 km/h (0 Bft) 100,00 %
23.01.2017 20:18 -9,5 C 93 % 1025,5 hPa 0,0 l/m 0,0 km/h (0 Bft) O 80 0 min 0,000 mm 0,0 UV-I 0 W/m -10,4 C -9,5 C 0,0 km/h (0 Bft) 100,00 %
23.01.2017 20:20 -9,6 C 93 % 1025,6 hPa 0,0 l/m 0,0 km/h (0 Bft) O 80 0 min 0,000 mm 0,0 UV-I 0 W/m -10,5 C -9,6 C 0,0 km/h (0 Bft) 97,87 %
23.01.2017 20:22 -9,8 C 93 % 1025,6 hPa 0,0 l/m 0,0 km/h (0 Bft) O 80 0 min 0,000 mm 0,0 UV-I 0 W/m -10,7 C -9,8 C 0,0 km/h (0 Bft) 100,00 %
23.01.2017 20:24 -9,8 C 93 % 1025,6 hPa 0,0 l/m 0,0 km/h (0 Bft) O 80 0 min 0,000 mm 0,0 UV-I 0 W/m -10,7 C -9,8 C 0,0 km/h (0 Bft) 100,00 %
23.01.2017 20:26 -9,8 C 93 % 1025,6 hPa 0,0 l/m 0,0 km/h (0 Bft) O 80 0 min 0,000 mm 0,0 UV-I 0 W/m -10,7 C -9,8 C 0,0 km/h (0 Bft) 100,00 %
23.01.2017 20:28 -9,7 C 94 % 1025,6 hPa 0,0 l/m 0,0 km/h (0 Bft) O 80 0 min 0,000 mm 0,0 UV-I 0 W/m -10,5 C -9,7 C 0,0 km/h (0 Bft) 97,87 %
23.01.2017 20:30 -9,7 C 94 % 1025,6 hPa 0,0 l/m 0,0 km/h (0 Bft) O 80 0 min 0,000 mm 0,0 UV-I 0 W/m -10,5 C -9,7 C 0,0 km/h (0 Bft) 100,00 %
23.01.2017 20:32 -9,7 C 94 % 1025,6 hPa 0,0 l/m 0,0 km/h (0 Bft) O 80 0 min 0,000 mm 0,0 UV-I 0 W/m -10,5 C -9,7 C 0,0 km/h (0 Bft) 93,75 %
23.01.2017 20:34 -9,7 C 93 % 1025,6 hPa 0,0 l/m 0,0 km/h (0 Bft) O 80 0 min 0,000 mm 0,0 UV-I 0 W/m -10,6 C -9,7 C 0,0 km/h (0 Bft) 100,00 %
23.01.2017 20:36 -9,7 C 93 % 1025,6 hPa 0,0 l/m 0,5 km/h (0 Bft) O 80 0 min 0,000 mm 0,0 UV-I 0 W/m -10,6 C -9,7 C 1,6 km/h (1 Bft) 100,00 %
23.01.2017 20:38 -9,8 C 93 % 1025,7 hPa 0,0 l/m 0,9 km/h (0 Bft) O 80 0 min 0,000 mm 0,0 UV-I 0 W/m -10,7 C -9,8 C 1,6 km/h (1 Bft) 100,00 %
23.01.2017 20:40 -9,8 C 93 % 1025,7 hPa 0,0 l/m 0,9 km/h (0 Bft) O 80 0 min 0,000 mm 0,0 UV-I 0 W/m -10,7 C -9,8 C 1,6 km/h (1 Bft) 100,00 %
23.01.2017 20:42 -10,0 C 93 % 1025,6 hPa 0,0 l/m 0,1 km/h (0 Bft) O 80 0 min 0,000 mm 0,0 UV-I 0 W/m -10,9 C -10,0 C 1,6 km/h (1 Bft) 98,04 %
23.01.2017 20:44 -10,2 C 92 % 1025,6 hPa 0,0 l/m 0,0 km/h (0 Bft) O 80 0 min 0,000 mm 0,0 UV-I 0 W/m -11,2 C -10,2 C 0,0 km/h (0 Bft) 100,00 %
23.01.2017 20:46 -10,2 C 92 % 1025,6 hPa 0,0 l/m 0,0 km/h (0 Bft) O 80 0 min 0,000 mm 0,0 UV-I 0 W/m -11,2 C -10,2 C 0,0 km/h (0 Bft) 100,00 %
23.01.2017 20:48 -10,3 C 92 % 1025,6 hPa 0,0 l/m 0,0 km/h (0 Bft) O 80 0 min 0,000 mm 0,0 UV-I 0 W/m -11,3 C -10,3 C 0,0 km/h (0 Bft) 97,87 %
23.01.2017 20:50 -10,4 C 93 % 1025,6 hPa 0,0 l/m 0,0 km/h (0 Bft) O 80 0 min 0,000 mm 0,0 UV-I 0 W/m -11,3 C -10,4 C 0,0 km/h (0 Bft) 100,00 %
23.01.2017 20:52 -10,3 C 93 % 1025,6 hPa 0,0 l/m 0,0 km/h (0 Bft) O 80 0 min 0,000 mm 0,0 UV-I 0 W/m -11,2 C -10,3 C 0,0 km/h (0 Bft) 97,87 %
23.01.2017 20:54 -10,3 C 93 % 1025,6 hPa 0,0 l/m 0,1 km/h (0 Bft) O 80 0 min 0,000 mm 0,0 UV-I 0 W/m -11,2 C -10,3 C 1,6 km/h (1 Bft) 95,74 %
23.01.2017 20:56 -10,1 C 93 % 1025,5 hPa 0,0 l/m 0,1 km/h (0 Bft) O 80 0 min 0,000 mm 0,0 UV-I 0 W/m -11,0 C -10,1 C 1,6 km/h (1 Bft) 97,87 %
23.01.2017 20:58 -9,9 C 94 % 1025,6 hPa 0,0 l/m 0,0 km/h (0 Bft) O 80 0 min 0,000 mm 0,0 UV-I 0 W/m -10,7 C -9,9 C 0,0 km/h (0 Bft) 97,87 %
23.01.2017 21:00 -9,8 C 94 % 1025,5 hPa 0,0 l/m 0,0 km/h (0 Bft) O 80 0 min 0,000 mm 0,0 UV-I 0 W/m -10,6 C -9,8 C 0,0 km/h (0 Bft) 97,87 %
23.01.2017 21:02 -9,8 C 94 % 1025,5 hPa 0,0 l/m 0,0 km/h (0 Bft) O 80 0 min 0,000 mm 0,0 UV-I 0 W/m -10,6 C -9,8 C 0,0 km/h (0 Bft) 97,37 %
23.01.2017 21:04 -9,7 C 93 % 1025,5 hPa 0,0 l/m 0,0 km/h (0 Bft) O 80 0 min 0,000 mm 0,0 UV-I 0 W/m -10,6 C -9,7 C 0,0 km/h (0 Bft) 95,74 %
23.01.2017 21:06 -9,6 C 94 % 1025,5 hPa 0,0 l/m 0,0 km/h (0 Bft) O 80 0 min 0,000 mm 0,0 UV-I 0 W/m -10,4 C -9,6 C 0,0 km/h (0 Bft) 95,83 %
23.01.2017 21:08 -9,7 C 93 % 1025,5 hPa 0,0 l/m 0,1 km/h (0 Bft) O 80 0 min 0,000 mm 0,0 UV-I 0 W/m -10,6 C -9,7 C 1,6 km/h (1 Bft) 97,87 %
23.01.2017 21:10 -9,7 C 93 % 1025,5 hPa 0,0 l/m 2,5 km/h (1 Bft) O 80 0 min 0,000 mm 0,0 UV-I 0 W/m -10,6 C -9,7 C 4,8 km/h (1 Bft) 97,87 %
23.01.2017 21:12 -9,7 C 93 % 1025,6 hPa 0,0 l/m 2,8 km/h (1 Bft) O 80 0 min 0,000 mm 0,0 UV-I 0 W/m -10,6 C -9,7 C 4,8 km/h (1 Bft) 95,74 %
23.01.2017 21:14 -9,7 C 93 % 1025,6 hPa 0,0 l/m 3,2 km/h (1 Bft) O 80 0 min 0,000 mm 0,0 UV-I 0 W/m -10,6 C -9,7 C 4,8 km/h (1 Bft) 96,00 %
23.01.2017 21:16 -9,5 C 94 % 1025,6 hPa 0,0 l/m 2,7 km/h (1 Bft) O 80 0 min 0,000 mm 0,0 UV-I 0 W/m -10,3 C -9,5 C 3,2 km/h (1 Bft) 97,87 %
23.01.2017 21:18 -9,4 C 94 % 1025,6 hPa 0,0 l/m 3,5 km/h (1 Bft) O 80 0 min 0,000 mm 0,0 UV-I 0 W/m -10,2 C -9,4 C 4,8 km/h (1 Bft) 97,87 %
23.01.2017 21:20 -9,1 C 94 % 1025,6 hPa 0,0 l/m 3,4 km/h (1 Bft) O 80 0 min 0,000 mm 0,0 UV-I 0 W/m -9,9 C -9,1 C 4,8 km/h (1 Bft) 95,74 %
23.01.2017 21:22 -8,8 C 94 % 1025,6 hPa 0,0 l/m 3,5 km/h (1 Bft) O-NO 76 0 min 0,000 mm 0,0 UV-I 0 W/m -9,6 C -8,8 C 6,4 km/h (2 Bft) 97,50 %
23.01.2017 21:24 -8,6 C 95 % 1025,6 hPa 0,0 l/m 3,2 km/h (1 Bft) O-NO 76 0 min 0,000 mm 0,0 UV-I 0 W/m -9,3 C -8,6 C 4,8 km/h (1 Bft) 97,87 %
23.01.2017 21:26 -8,4 C 94 % 1025,6 hPa 0,0 l/m 3,2 km/h (1 Bft) O-NO 76 0 min 0,000 mm 0,0 UV-I 0 W/m -9,2 C -8,4 C 6,4 km/h (2 Bft) 100,00 %
23.01.2017 21:28 -8,3 C 94 % 1025,6 hPa 0,0 l/m 7,8 km/h (2 Bft) O-NO 71 0 min 0,000 mm 0,0 UV-I 0 W/m -9,1 C -10,1 C 12,9 km/h (3 Bft) 98,00 %
23.01.2017 21:30 -8,1 C 94 % 1025,6 hPa 0,0 l/m 8,6 km/h (2 Bft) O 80 0 min 0,000 mm 0,0 UV-I 0 W/m -8,9 C -10,9 C 11,3 km/h (2 Bft) 97,87 %
23.01.2017 21:32 -8,1 C 94 % 1025,7 hPa 0,0 l/m 5,9 km/h (2 Bft) O-NO 76 0 min 0,000 mm 0,0 UV-I 0 W/m -8,9 C -8,1 C 11,3 km/h (2 Bft) 97,87 %
23.01.2017 21:34 -7,9 C 94 % 1025,6 hPa 0,0 l/m 5,3 km/h (1 Bft) O 83 0 min 0,000 mm 0,0 UV-I 0 W/m -8,7 C -7,9 C 8,0 km/h (2 Bft) 97,87 %
23.01.2017 21:36 -7,9 C 94 % 1025,7 hPa 0,0 l/m 8,0 km/h (2 Bft) O-NO 74 0 min 0,000 mm 0,0 UV-I 0 W/m -8,7 C -9,9 C 11,3 km/h (2 Bft) 100,00 %
23.01.2017 21:38 -7,8 C 94 % 1025,7 hPa 0,0 l/m 5,6 km/h (1 Bft) O-NO 60 0 min 0,000 mm 0,0 UV-I 0 W/m -8,6 C -7,8 C 8,0 km/h (2 Bft) 100,00 %
23.01.2017 21:40 -7,8 C 94 % 1025,7 hPa 0,0 l/m 5,1 km/h (1 Bft) O-NO 65 0 min 0,000 mm 0,0 UV-I 0 W/m -8,6 C -7,8 C 8,0 km/h (2 Bft) 97,87 %
23.01.2017 21:42 -7,8 C 94 % 1025,7 hPa 0,0 l/m 5,7 km/h (1 Bft) O 80 0 min 0,000 mm 0,0 UV-I 0 W/m -8,6 C -7,8 C 8,0 km/h (2 Bft) 95,74 %
23.01.2017 21:44 -7,8 C 94 % 1025,7 hPa 0,0 l/m 4,9 km/h (1 Bft) O-NO 72 0 min 0,000 mm 0,0 UV-I 0 W/m -8,6 C -7,8 C 6,4 km/h (2 Bft) 100,00 %
23.01.2017 21:46 -7,8 C 94 % 1025,7 hPa 0,0 l/m 5,9 km/h (2 Bft) O 89 0 min 0,000 mm 0,0 UV-I 0 W/m -8,6 C -7,8 C 11,3 km/h (2 Bft) 100,00 %
23.01.2017 21:48 -7,8 C 94 % 1025,7 hPa 0,0 l/m 7,2 km/h (2 Bft) O-NO 78 0 min 0,000 mm 0,0 UV-I 0 W/m -8,6 C -8,8 C 11,3 km/h (2 Bft) 100,00 %
23.01.2017 21:50 -7,8 C 94 % 1025,7 hPa 0,0 l/m 5,0 km/h (1 Bft) O-NO 73 0 min 0,000 mm 0,0 UV-I 0 W/m -8,6 C -7,8 C 6,4 km/h (2 Bft) 93,62 %
23.01.2017 21:52 -7,8 C 94 % 1025,7 hPa 0,0 l/m 3,8 km/h (1 Bft) O-NO 67 0 min 0,000 mm 0,0 UV-I 0 W/m -8,6 C -7,8 C 6,4 km/h (2 Bft) 97,87 %
23.01.2017 21:54 -7,8 C 94 % 1025,7 hPa 0,0 l/m 4,5 km/h (1 Bft) O-NO 68 0 min 0,000 mm 0,0 UV-I 0 W/m -8,6 C -7,8 C 6,4 km/h (2 Bft) 95,74 %
23.01.2017 21:56 -7,8 C 94 % 1025,7 hPa 0,0 l/m 5,1 km/h (1 Bft) O-NO 66 0 min 0,000 mm 0,0 UV-I 0 W/m -8,6 C -7,8 C 6,4 km/h (2 Bft) 100,00 %
23.01.2017 21:58 -7,8 C 94 % 1025,8 hPa 0,0 l/m 9,4 km/h (2 Bft) O-NO 74 0 min 0,000 mm 0,0 UV-I 0 W/m -8,6 C -11,4 C 14,5 km/h (3 Bft) 98,08 %
23.01.2017 22:00 -7,8 C 94 % 1025,8 hPa 0,0 l/m 5,1 km/h (1 Bft) O 83 0 min 0,000 mm 0,0 UV-I 0 W/m -8,6 C -7,8 C 6,4 km/h (2 Bft) 100,00 %
23.01.2017 22:02 -7,8 C 94 % 1025,8 hPa 0,0 l/m 7,2 km/h (2 Bft) O-NO 58 0 min 0,000 mm 0,0 UV-I 0 W/m -8,6 C -8,8 C 12,9 km/h (3 Bft) 100,00 %
23.01.2017 22:04 -7,7 C 94 % 1025,8 hPa 0,0 l/m 7,1 km/h (2 Bft) O-NO 67 0 min 0,000 mm 0,0 UV-I 0 W/m -8,5 C -8,6 C 12,9 km/h (3 Bft) 94,29 %
23.01.2017 22:06 -7,7 C 94 % 1025,8 hPa 0,0 l/m 5,3 km/h (1 Bft) O 87 0 min 0,000 mm 0,0 UV-I 0 W/m -8,5 C -7,7 C 8,0 km/h (2 Bft) 100,00 %
23.01.2017 22:08 -7,7 C 94 % 1025,8 hPa 0,0 l/m 6,7 km/h (2 Bft) O-NO 74 0 min 0,000 mm 0,0 UV-I 0 W/m -8,5 C -8,1 C 12,9 km/h (3 Bft) 100,00 %
23.01.2017 22:10 -7,7 C 94 % 1025,8 hPa 0,0 l/m 5,6 km/h (1 Bft) O-NO 73 0 min 0,000 mm 0,0 UV-I 0 W/m -8,5 C -7,7 C 8,0 km/h (2 Bft) 100,00 %
23.01.2017 22:12 -7,7 C 94 % 1025,8 hPa 0,0 l/m 6,7 km/h (2 Bft) O-NO 76 0 min 0,000 mm 0,0 UV-I 0 W/m -8,5 C -8,1 C 12,9 km/h (3 Bft) 97,87 %
23.01.2017 22:14 -7,7 C 94 % 1025,7 hPa 0,0 l/m 5,0 km/h (1 Bft) O 83 0 min 0,000 mm 0,0 UV-I 0 W/m -8,5 C -7,7 C 8,0 km/h (2 Bft) 100,00 %
23.01.2017 22:16 -7,7 C 94 % 1025,7 hPa 0,0 l/m 2,8 km/h (1 Bft) O-NO 77 0 min 0,000 mm 0,0 UV-I 0 W/m -8,5 C -7,7 C 4,8 km/h (1 Bft) 97,37 %
23.01.2017 22:18 -7,7 C 94 % 1025,7 hPa 0,0 l/m 3,3 km/h (1 Bft) O-NO 77 0 min 0,000 mm 0,0 UV-I 0 W/m -8,5 C -7,7 C 4,8 km/h (1 Bft) 100,00 %
23.01.2017 22:20 -7,7 C 94 % 1025,7 hPa 0,0 l/m 5,0 km/h (1 Bft) O 96 0 min 0,000 mm 0,0 UV-I 0 W/m -8,5 C -7,7 C 8,0 km/h (2 Bft) 100,00 %
23.01.2017 22:22 -7,7 C 94 % 1025,7 hPa 0,0 l/m 7,3 km/h (2 Bft) O-NO 76 0 min 0,000 mm 0,0 UV-I 0 W/m -8,5 C -8,9 C 12,9 km/h (3 Bft) 100,00 %
23.01.2017 22:24 -7,7 C 94 % 1025,7 hPa 0,0 l/m 6,4 km/h (2 Bft) O-NO 78 0 min 0,000 mm 0,0 UV-I 0 W/m -8,5 C -7,6 C 9,7 km/h (2 Bft) 97,87 %
23.01.2017 22:26 -7,7 C 94 % 1025,7 hPa 0,0 l/m 6,9 km/h (2 Bft) O-NO 74 0 min 0,000 mm 0,0 UV-I 0 W/m -8,5 C -8,3 C 9,7 km/h (2 Bft) 100,00 %
23.01.2017 22:28 -7,7 C 94 % 1025,7 hPa 0,0 l/m 2,7 km/h (1 Bft) O-NO 68 0 min 0,000 mm 0,0 UV-I 0 W/m -8,5 C -7,7 C 6,4 km/h (2 Bft) 100,00 %
23.01.2017 22:30 -7,7 C 94 % 1025,7 hPa 0,0 l/m 4,0 km/h (1 Bft) O-NO 78 0 min 0,000 mm 0,0 UV-I 0 W/m -8,5 C -7,7 C 6,4 km/h (2 Bft) 98,00 %
23.01.2017 22:32 -7,7 C 94 % 1025,7 hPa 0,0 l/m 4,0 km/h (1 Bft) O-NO 65 0 min 0,000 mm 0,0 UV-I 0 W/m -8,5 C -7,7 C 8,0 km/h (2 Bft) 97,44 %
23.01.2017 22:34 -7,7 C 94 % 1025,7 hPa 0,0 l/m 7,2 km/h (2 Bft) O-NO 58 0 min 0,000 mm 0,0 UV-I 0 W/m -8,5 C -8,7 C 9,7 km/h (2 Bft) 100,00 %
23.01.2017 22:36 -7,7 C 94 % 1025,7 hPa 0,0 l/m 5,2 km/h (1 Bft) O-NO 57 0 min 0,000 mm 0,0 UV-I 0 W/m -8,5 C -7,7 C 8,0 km/h (2 Bft) 97,87 %
23.01.2017 22:38 -7,7 C 94 % 1025,7 hPa 0,0 l/m 6,0 km/h (2 Bft) O-NO 57 0 min 0,000 mm 0,0 UV-I 0 W/m -8,5 C -7,7 C 8,0 km/h (2 Bft) 97,87 %
23.01.2017 22:40 -7,7 C 94 % 1025,8 hPa 0,0 l/m 5,1 km/h (1 Bft) O-NO 67 0 min 0,000 mm 0,0 UV-I 0 W/m -8,5 C -7,7 C 8,0 km/h (2 Bft) 97,87 %
23.01.2017 22:42 -7,7 C 94 % 1025,7 hPa 0,0 l/m 3,5 km/h (1 Bft) O-NO 78 0 min 0,000 mm 0,0 UV-I 0 W/m -8,5 C -7,7 C 4,8 km/h (1 Bft) 100,00 %
23.01.2017 22:44 -7,7 C 94 % 1025,7 hPa 0,0 l/m 5,1 km/h (1 Bft) O-NO 71 0 min 0,000 mm 0,0 UV-I 0 W/m -8,5 C -7,7 C 6,4 km/h (2 Bft) 100,00 %
23.01.2017 22:46 -7,7 C 94 % 1025,7 hPa 0,0 l/m 3,7 km/h (1 Bft) O 92 0 min 0,000 mm 0,0 UV-I 0 W/m -8,5 C -7,7 C 6,4 km/h (2 Bft) 97,87 %
23.01.2017 22:48 -7,7 C 94 % 1025,8 hPa 0,0 l/m 1,9 km/h (1 Bft) O-NO 71 0 min 0,000 mm 0,0 UV-I 0 W/m -8,5 C -7,7 C 6,4 km/h (2 Bft) 100,00 %
23.01.2017 22:50 -7,7 C 94 % 1025,8 hPa 0,0 l/m 5,1 km/h (1 Bft) O 90 0 min 0,000 mm 0,0 UV-I 0 W/m -8,5 C -7,7 C 9,7 km/h (2 Bft) 100,00 %
23.01.2017 22:52 -7,8 C 94 % 1025,8 hPa 0,0 l/m 2,7 km/h (1 Bft) O-NO 74 0 min 0,000 mm 0,0 UV-I 0 W/m -8,6 C -7,8 C 6,4 km/h (2 Bft) 100,00 %
23.01.2017 22:54 -7,8 C 94 % 1025,8 hPa 0,0 l/m 3,4 km/h (1 Bft) O 96 0 min 0,000 mm 0,0 UV-I 0 W/m -8,6 C -7,8 C 4,8 km/h (1 Bft) 100,00 %
23.01.2017 22:56 -7,8 C 94 % 1025,8 hPa 0,0 l/m 5,0 km/h (1 Bft) O-NO 71 0 min 0,000 mm 0,0 UV-I 0 W/m -8,6 C -7,8 C 6,4 km/h (2 Bft) 98,08 %
23.01.2017 22:58 -7,8 C 94 % 1025,7 hPa 0,0 l/m 4,5 km/h (1 Bft) O 80 0 min 0,000 mm 0,0 UV-I 0 W/m -8,6 C -7,8 C 6,4 km/h (2 Bft) 97,37 %
23.01.2017 23:00 -7,8 C 94 % 1025,8 hPa 0,0 l/m 4,1 km/h (1 Bft) O-NO 77 0 min 0,000 mm 0,0 UV-I 0 W/m -8,6 C -7,8 C 6,4 km/h (2 Bft) 100,00 %
23.01.2017 23:02 -7,7 C 94 % 1025,8 hPa 0,0 l/m 2,8 km/h (1 Bft) O-NO 71 0 min 0,000 mm 0,0 UV-I 0 W/m -8,5 C -7,7 C 4,8 km/h (1 Bft) 100,00 %
23.01.2017 23:04 -7,7 C 94 % 1025,8 hPa 0,0 l/m 3,2 km/h (1 Bft) O-NO 61 0 min 0,000 mm 0,0 UV-I 0 W/m -8,5 C -7,7 C 6,4 km/h (2 Bft) 100,00 %
23.01.2017 23:06 -7,7 C 94 % 1025,8 hPa 0,0 l/m 4,8 km/h (1 Bft) O 81 0 min 0,000 mm 0,0 UV-I 0 W/m -8,5 C -7,7 C 6,4 km/h (2 Bft) 100,00 %
23.01.2017 23:08 -7,7 C 94 % 1025,8 hPa 0,0 l/m 3,9 km/h (1 Bft) O-SO 109 0 min 0,000 mm 0,0 UV-I 0 W/m -8,5 C -7,7 C 9,7 km/h (2 Bft) 97,87 %
23.01.2017 23:10 -7,7 C 94 % 1025,8 hPa 0,0 l/m 3,9 km/h (1 Bft) O-NO 65 0 min 0,000 mm 0,0 UV-I 0 W/m -8,5 C -7,7 C 6,4 km/h (2 Bft) 98,00 %
23.01.2017 23:12 -7,7 C 94 % 1025,8 hPa 0,0 l/m 4,4 km/h (1 Bft) NO 49 0 min 0,000 mm 0,0 UV-I 0 W/m -8,5 C -7,7 C 8,0 km/h (2 Bft) 97,92 %
23.01.2017 23:14 -7,7 C 94 % 1025,8 hPa 0,0 l/m 5,0 km/h (1 Bft) NO 54 0 min 0,000 mm 0,0 UV-I 0 W/m -8,5 C -7,7 C 8,0 km/h (2 Bft) 97,87 %
23.01.2017 23:16 -7,7 C 94 % 1025,9 hPa 0,0 l/m 4,8 km/h (1 Bft) O-NO 74 0 min 0,000 mm 0,0 UV-I 0 W/m -8,5 C -7,7 C 8,0 km/h (2 Bft) 97,37 %
23.01.2017 23:18 -7,7 C 94 % 1025,8 hPa 0,0 l/m 7,5 km/h (2 Bft) NO 55 0 min 0,000 mm 0,0 UV-I 0 W/m -8,5 C -9,1 C 12,9 km/h (3 Bft) 97,87 %
23.01.2017 23:20 -7,7 C 94 % 1025,8 hPa 0,0 l/m 6,0 km/h (2 Bft) O-NO 71 0 min 0,000 mm 0,0 UV-I 0 W/m -8,5 C -7,7 C 8,0 km/h (2 Bft) 97,87 %
23.01.2017 23:22 -7,7 C 94 % 1025,8 hPa 0,0 l/m 3,8 km/h (1 Bft) NO 49 0 min 0,000 mm 0,0 UV-I 0 W/m -8,5 C -7,7 C 6,4 km/h (2 Bft) 93,62 %
23.01.2017 23:24 -7,7 C 94 % 1025,8 hPa 0,0 l/m 4,0 km/h (1 Bft) O-NO 59 0 min 0,000 mm 0,0 UV-I 0 W/m -8,5 C -7,7 C 6,4 km/h (2 Bft) 95,74 %
23.01.2017 23:26 -7,8 C 94 % 1025,9 hPa 0,0 l/m 2,5 km/h (1 Bft) O-NO 59 0 min 0,000 mm 0,0 UV-I 0 W/m -8,6 C -7,8 C 4,8 km/h (1 Bft) 96,00 %
23.01.2017 23:28 -7,7 C 94 % 1025,8 hPa 0,0 l/m 2,4 km/h (1 Bft) O-NO 59 0 min 0,000 mm 0,0 UV-I 0 W/m -8,5 C -7,7 C 4,8 km/h (1 Bft) 97,87 %
23.01.2017 23:30 -7,7 C 94 % 1025,8 hPa 0,0 l/m 4,1 km/h (1 Bft) NO 49 0 min 0,000 mm 0,0 UV-I 0 W/m -8,5 C -7,7 C 6,4 km/h (2 Bft) 97,87 %
23.01.2017 23:32 -7,7 C 94 % 1025,8 hPa 0,0 l/m 3,5 km/h (1 Bft) NO 49 0 min 0,000 mm 0,0 UV-I 0 W/m -8,5 C -7,7 C 4,8 km/h (1 Bft) 97,87 %
23.01.2017 23:34 -7,7 C 94 % 1025,7 hPa 0,0 l/m 4,3 km/h (1 Bft) NO 55 0 min 0,000 mm 0,0 UV-I 0 W/m -8,5 C -7,7 C 6,4 km/h (2 Bft) 96,00 %
23.01.2017 23:36 -7,7 C 94 % 1025,7 hPa 0,0 l/m 6,8 km/h (2 Bft) O 81 0 min 0,000 mm 0,0 UV-I 0 W/m -8,5 C -8,2 C 9,7 km/h (2 Bft) 97,87 %
23.01.2017 23:38 -7,7 C 94 % 1025,8 hPa 0,0 l/m 3,8 km/h (1 Bft) O-NO 71 0 min 0,000 mm 0,0 UV-I 0 W/m -8,5 C -7,7 C 6,4 km/h (2 Bft) 95,74 %
23.01.2017 23:40 -7,7 C 94 % 1025,7 hPa 0,0 l/m 4,0 km/h (1 Bft) O-NO 71 0 min 0,000 mm 0,0 UV-I 0 W/m -8,5 C -7,7 C 6,4 km/h (2 Bft) 97,87 %
23.01.2017 23:42 -7,7 C 94 % 1025,7 hPa 0,0 l/m 2,9 km/h (1 Bft) NO 53 0 min 0,000 mm 0,0 UV-I 0 W/m -8,5 C -7,7 C 4,8 km/h (1 Bft) 97,87 %
23.01.2017 23:44 -7,7 C 94 % 1025,7 hPa 0,0 l/m 4,2 km/h (1 Bft) O-NO 61 0 min 0,000 mm 0,0 UV-I 0 W/m -8,5 C -7,7 C 8,0 km/h (2 Bft) 100,00 %
23.01.2017 23:46 -7,7 C 94 % 1025,7 hPa 0,0 l/m 7,0 km/h (2 Bft) O-NO 57 0 min 0,000 mm 0,0 UV-I 0 W/m -8,5 C -8,5 C 9,7 km/h (2 Bft) 100,00 %
23.01.2017 23:48 -7,7 C 94 % 1025,8 hPa 0,0 l/m 4,8 km/h (1 Bft) O-NO 59 0 min 0,000 mm 0,0 UV-I 0 W/m -8,5 C -7,7 C 6,4 km/h (2 Bft) 97,87 %
23.01.2017 23:50 -7,7 C 94 % 1025,8 hPa 0,0 l/m 3,4 km/h (1 Bft) O-NO 59 0 min 0,000 mm 0,0 UV-I 0 W/m -8,5 C -7,7 C 4,8 km/h (1 Bft) 93,62 %
23.01.2017 23:52 -7,7 C 94 % 1025,8 hPa 0,0 l/m 2,3 km/h (1 Bft) O-NO 57 0 min 0,000 mm 0,0 UV-I 0 W/m -8,5 C -7,7 C 4,8 km/h (1 Bft) 100,00 %
23.01.2017 23:54 -7,7 C 94 % 1025,8 hPa 0,0 l/m 4,0 km/h (1 Bft) O-NO 69 0 min 0,000 mm 0,0 UV-I 0 W/m -8,5 C -7,7 C 8,0 km/h (2 Bft) 100,00 %
23.01.2017 23:56 -7,7 C 94 % 1025,8 hPa 0,0 l/m 4,9 km/h (1 Bft) O-NO 69 0 min 0,000 mm 0,0 UV-I 0 W/m -8,5 C -7,7 C 9,7 km/h (2 Bft) 97,87 %
23.01.2017 23:58 -7,7 C 94 % 1025,8 hPa 0,0 l/m 1,8 km/h (1 Bft) O-NO 69 0 min 0,000 mm 0,0 UV-I 0 W/m -8,5 C -7,7 C 4,8 km/h (1 Bft) 95,74 %
_ Min-Zeit 08:08 14:30 15:10 - 04:46 - - - - - - 08:04 08:10 06:22 07:38
Minimum _ -13,0 C 81 % 1024,6 hPa - 0,0 km/h (0 Bft) - - - - - - -14,2 C -13,0 C 0,0 km/h (0 Bft) 52,38 %
_ Max-Zeit 15:22 21:24 10:24 13:04 21:58 - - 07:54 13:00 11:26 12:50 15:24 15:24 21:58 00:04
Maximum _ -4,4 C 95 % 1026,4 hPa 0,2 l/m 9,4 km/h
O-NO (2 Bft)
- - 2 min 0,102 mm 0,8 UV-I 361 W/m -7,2 C -4,4 C 14,5 km/h
O (3 Bft)
100,00 %
Durchschnitt _ -8,8 C 90 % 1025,5 hPa #0,2 l/m 2,6 km/h (1 Bft) S-SW - #7:58 h #0,483 mm 0,7 UV-I 196 W/m -10,1 C -8,8 C 4,2 km/h (1 Bft) 98,43 %